     2              OBSERVATION DATA    GPS                 RINEX VERSION / TYPE
teqc 2000Feb29 Duncan Agnew 20030429 22:29:16UTC            PGM / RUN BY / DATE
                                                            COMMENT
L2: 1 -> 1; 150 -> 5; 250 -> 9                              COMMENT
L2: 1 -> 1; 150 -> 5; 250 -> 9                              COMMENT
L2: 1 -> 1; 150 -> 5; 250 -> 9                              COMMENT
L2: 1 -> 1; 150 -> 5; 250 -> 9                              COMMENT
L2: 1 -> 1; 150 -> 5; 250 -> 9                              COMMENT
Original Marker Name: I021                                  COMMENT
Campaign Name: Imperial Valley 2003                         COMMENT
4-Character Station Name: I021                              COMMENT
6-Character Antenna Code: DMRCHT                            COMMENT
Vertical Measurement Point: BCR                             COMMENT
Vertical Offset to Rinex Ref. Point: 0.0348                 COMMENT
Radial Measurement Point: ECF                               COMMENT
Radial Offset to Rinex Ref. Point: 0.1897                   COMMENT
Antenna Height from Field Measurement: 0.7060 m             COMMENT
Additional Antenna Identification Info.:                    COMMENT
Turborogue and Ashtech Choke Ring                           COMMENT
Original XYZ: 0.0000 0.0000 0.0000                          COMMENT
New XYZ position is based on association with SCEC monument COMMENT
E1C8V6K8+0011. Position of that monument is believed to be  COMMENT
valid to within 1 m horizontally; vertical accuracy         COMMENT
should be no worse than 3-times this value.                 COMMENT
                                                            COMMENT
Revised Rinex header created by UCSD GPS archive for        COMMENT
GSAC on 11-Jul-2003 (2003:192) 15:59:11 GMT                 COMMENT
For assistance contact dagnew@ucsd.edu                      COMMENT
or anderson@python.ucsd.edu                                 COMMENT
                                                            COMMENT
X90 1931                                                    MARKER NAME
SJB SCRIPPS INSTITUTION OF OCEANOGRAPHY                     OBSERVER / AGENCY
319 ASHTECH Z-XII3 CC00                                     REC # / TYPE / VERS
756 DORNE-MARGOL. TYPE T                                    ANT # / TYPE
 -2344531.8635 -4828683.1572  3433444.4022                  APPROX POSITION XYZ
        0.6452        0.0000        0.0000                  ANTENNA: DELTA H/E/N
     1     1     0                                          WAVELENGTH FACT L1/2
     7    C1    L1    L2    P1    P2    S1    S2            # / TYPES OF OBSERV
     0                                                      INTERVAL
  2003     4    28    15    27   30.000000                  TIME OF FIRST OBS
  2003     4    28    21    59    0.000000                  TIME OF LAST OBS
                                                            END OF HEADER
 03  4 28 15 27 30.0000000  0  3G 4G 5G 9
  21937864.579      182582.99759    131123.06647  21937865.512    21937870.536
       233.000         189.000
  21230953.072     -127932.10359    -91244.95047  21230952.977    21230958.269
       238.000         199.000
  22377873.767      160143.83059    115893.87246  22377874.020    22377879.552
       233.000         187.000
 03  4 28 15 28  0.0000000  0  5G24G 4G 5G 9G10
                     51315.29659     38109.19243
       242.000          74.000
  21953341.469      263912.89649    194496.98147  21953341.878    21953347.252
       233.000         190.000
  21220393.074     -183427.43449   -134488.05847  21220392.548    21220397.528
       238.000         200.000
  22391579.722      232166.14849    172015.11547  22391579.182    22391584.623
       234.000         188.000
  23922483.819     -299888.19259   -220919.31845  23922484.149    23922492.559
       214.000         142.000
 03  4 28 15 28 30.0000000  0  7G24G30G 4G 5G 7G 9G10
                   -923913.19849   -762682.10843
       242.000          74.000
  23156036.236    -1294369.37259   -985375.92045  23156036.729    23156042.496
       216.000         159.000
  21779956.308     -647231.47849   -515485.69747  21779956.670    21779961.828
       234.000         190.000
  21020976.770    -1231367.82349   -951064.97647  21020976.091    21020981.036
       238.000         200.000
                   -820907.69059   -659526.03144                  23906818.461
       204.000         128.000
  22216432.036     -688243.69249   -545187.41447  22216431.135    22216436.262
       233.000         188.000
  23714831.157    -1391105.53149  -1071218.43145  23714831.284    23714841.403
       214.000         146.000
 03  4 28 15 29  0.0000000  0  7G24G30G 4G 5G 7G 9G10
                   -907864.35549   -750518.01943
       242.000          74.000
  23137723.833    -1390601.78149  -1060362.16645  23137724.237    23137729.759
       218.000         162.000
  21795168.987     -567289.31449   -453193.13947  21795169.188    21795174.623
       233.000         190.000
  21010165.359    -1288181.64249   -995335.47947  21010164.406    21010169.560
       238.000         201.000
  23918672.799     -758571.53849   -610952.57445  23918672.468    23918681.072
       205.000         132.000
  22229889.039     -617524.32949   -490081.47447  22229888.369    22229894.481
       233.000         188.000
  23695726.355    -1491504.44549  -1149451.27345  23695725.810    23695734.537
       212.000         149.000
 03  4 28 15 29 30.0000000  0  7G24G30G 4G 5G 7G 9G10
                   -891316.82249   -738131.82743
       242.000          70.000
  23119432.983    -1486721.35049  -1135260.49446  23119433.749    23119438.865
       219.000         163.000
  21810440.141     -487039.26549   -390660.66947  21810440.406    21810445.656
       232.000         189.000
  20999420.520    -1344645.84549  -1039333.56147  20999420.024    20999425.377
       239.000         201.000
  23930542.192     -696199.71049   -562351.31045  23930542.780    23930548.565
       209.000         136.000
  22243412.994     -546454.79349   -434702.67846  22243412.846    22243418.680
       232.000         187.000
  23676629.095    -1591861.51049  -1227651.47545  23676628.521    23676637.880
       213.000         149.000
 03  4 28 15 30  0.0000000  0  7G24G30G 4G 5G 7G 9G10
                   -874270.81049   -767964.90147                  20400895.517
       242.000         197.000
  23101164.171    -1582725.02649  -1210068.52746  23101164.726    23101169.788
       220.000         163.000
  21825769.511     -406483.25649   -327889.80246  21825769.904    21825775.351
       231.000         187.000
  20988742.841    -1400757.33949  -1083056.79547  20988742.406    20988747.413
       239.000         201.000
  23942418.525     -633790.85449   -513721.16445  23942419.178    23942426.805
       199.000         133.000
  22257003.302     -475037.14349   -379052.61647  22257003.247    22257008.913
       233.000         188.000
  23657540.575    -1692172.52949  -1305815.81745  23657540.046    23657549.063
       213.000         147.000
 03  4 28 15 30 30.0000000  0  7G24G30G 4G 5G 7G 9G10
  20404228.128     -856729.15849   -754296.07847  20404228.177    20404233.533
       243.000         207.000
  23082917.637    -1678611.47249  -1284785.20546  23082918.278    23082923.794
       221.000         163.000
  21841156.391     -325624.87949   -264883.30946  21841156.842    21841162.236
       231.000         184.000
  20978132.517    -1456514.89749  -1126504.23247  20978132.331    20978137.271
       240.000         201.000
  23954301.553     -571345.85049   -465062.87044  23954299.833    23954310.157
       200.000         126.000
  22270659.111     -403275.14549   -323134.23246  22270659.243    22270664.563
       233.000         187.000
  23638461.248    -1792435.47149  -1383942.69945  23638460.324    23638470.267
       214.000         146.000
 03  4 28 15 31  0.0000000  0  7G24G30G 4G 5G 7G 9G10
  20407660.263     -838693.45249   -740242.29547  20407660.171    20407665.611
       242.000         209.000
  23064693.849    -1774378.78949  -1359409.06346  23064694.614    23064699.237
       222.000         164.000
  21856600.294     -244467.02649   -201643.45746  21856600.530    21856606.568
       230.000         184.000
  20967589.925    -1511916.55949  -1169674.36147  20967589.740    20967594.429
       239.000         202.000
  23966191.365     -508864.66949   -416376.37844  23966192.031    23966197.966
       200.000         129.000
  22284379.891     -331172.00349   -266950.03246  22284379.725    22284385.611
       233.000         187.000
  23619391.605    -1892647.10249  -1462029.60745  23619390.047    23619400.327
       213.000         144.000
 03  4 28 15 31 30.0000000  0  7G24G30G 4G 5G 7G 9G10
  20411186.096     -820165.06949   -725804.60547  20411186.180    20411191.756
       242.000         209.000
  23046492.973    -1870025.18049  -1433938.68046  23046493.884    23046499.460
       218.000         163.000
  21872100.630     -163012.51249   -138172.45446  21872101.030    21872106.551
       231.000         184.000
  20957115.412    -1566960.59849  -1212565.81247  20957115.471    20957119.992
       240.000         202.000
  23978088.184     -446347.30648   -367661.72345  23978087.855    23978095.984
       166.000         132.000
  22298165.028     -258730.93849   -210502.51646  22298165.112    22298171.118
       233.000         186.000
  23600332.179    -1992804.97849  -1540074.61645  23600331.490    23600340.344
       211.000         144.000
 03  4 28 15 32  0.0000000  0  7G24G30G 4G 5G 7G 9G10
  20414805.452     -801145.34549   -710984.05747  20414805.514    20414811.193
       241.000         209.000
  23028315.567    -1965548.06949  -1508372.03545  23028315.789    23028320.569
       219.000         161.000
  21887656.907      -81263.94949    -74472.32547  21887657.530    21887662.584
       236.000         188.000
  20946709.392    -1621644.64949  -1255176.75647  20946709.285    20946713.780
       235.000         197.000
  23989991.927     -383793.03558   -318918.28644  23989993.393    23990001.184
       194.000         121.000
  22312014.012     -185954.33649   -153793.53946  22312014.174    22312019.798
       233.000         186.000
  23581283.749    -2092905.27149  -1618074.81045  23581283.337    23581292.729
       213.000         145.000
 03  4 28 15 32 30.0000000  0  7G24G30G 4G 5G 7G 9G10
  20418517.853     -781636.73449   -695782.54347  20418518.054    20418523.549
       242.000         209.000
  23010162.011    -2060945.78549  -1582707.90745  23010162.816    23010167.701
       219.000         162.000
  21903268.634         775.71849    -10545.34546  21903269.462    21903274.735
       233.000         187.000
  20936372.242    -1675966.88049  -1297505.76047  20936371.931    20936377.001
       240.000         200.000
  24001902.734     -321201.89458   -270146.05044  24001904.717    24001910.977
       188.000         120.000
  22325926.192     -112845.67449    -96825.79946  22325926.373    22325932.230
       231.000         186.000
  23562246.414    -2192947.02259  -1696029.60645  23562244.448    23562261.288
       213.000         139.000
 03  4 28 15 33  0.0000000  0  7G24G30G 4G 5G 7G 9G10
  20422323.133     -761640.05749   -680200.75847  20422323.260    20422329.008
       245.000         211.000
  22992032.700    -2156215.75949  -1656944.17045  22992032.207    22992039.818
       212.000         159.000
  21918935.216       83103.91249     53606.42547  21918935.477    21918941.213
       232.000         188.000
  20926104.405    -1729924.79849  -1339550.88347  20926104.130    20926109.284
       237.000         200.000
  24013820.430     -258574.71359   -221345.89844  24013820.568    24013829.479
       215.000         131.000
  22339901.022      -39407.48949    -39601.31546  22339900.599    22339906.996
       226.000         180.000
  23543221.513    -2292923.85249  -1773933.74945  23543222.916    23543228.568
       208.000         136.000
 03  4 28 15 33 30.0000000  0  7G24G30G 4G 5G 7G 9G10
  20426220.746     -741158.24949   -664240.89247  20426220.742    20426226.219
       241.000         208.000
  22973927.862    -2251357.05849  -1731080.23045  22973928.460    22973934.376
       217.000         162.000
  21934656.061      165716.93049    117980.17746  21934656.863    21934661.896
       231.000         184.000
  20915906.028    -1783517.79849  -1381311.67847  20915905.850    20915910.590
       239.000         200.000
  24025745.205     -195910.73149   -172516.94645  24025745.532    24025752.868
       213.000         135.000
  22353937.827       34355.95249     17876.65446  22353938.440    22353944.179
       230.000         184.000
  23524209.404    -2392833.69459  -1851785.34745  23524206.481    23524214.191
       216.000         134.000
 03  4 28 15 34  0.0000000  0  7G24G30G 4G 5G 7G 9G10
  20430210.535     -720192.00049   -647903.56847  20430210.350    20430215.906
       242.000         209.000
  22955847.975    -2346367.04849  -1805113.94546  22955848.727    22955854.026
       219.000         164.000
  21950430.554      248612.20749    182573.86546  21950430.833    21950436.210
       232.000         186.000
  20905777.608    -1836743.15349  -1422785.97847  20905777.272    20905782.007
       240.000         201.000
  24037676.937     -133209.96549   -123659.37045  24037676.703    24037684.723
       215.000         144.000
  22368036.057      108442.17349     75606.12946  22368035.941    22368041.764
       232.000         185.000
  23505210.187    -2492675.09949  -1929583.79245  23505210.192    23505218.429
       216.000         146.000
 03  4 28 15 34 30.0000000  0  7G24G30G 4G 5G 7G 9G10
  20434292.365     -698741.98449   -631189.28347  20434292.384    20434297.936
       241.000         209.000
  22937793.785    -2441242.43449  -1879042.77446  22937793.666    22937800.104
       220.000         166.000
  21966258.531      331788.24449    247386.31846  21966258.885    21966263.853
       232.000         187.000
  20895719.782    -1889597.71349  -1463971.34947  20895719.474    20895724.425
       238.000         202.000
  24049615.941      -70470.97048    -74772.02245  24049619.595    24049620.817
       184.000         141.000
  22382195.322      182849.41749    133585.74246  22382194.869    22382201.093
       229.000         184.000
  23486224.920    -2592442.96349  -2007324.92745  23486223.586    23486231.576
       208.000         144.000
 03  4 28 15 35  0.0000000  0  7G24G30G 4G 5G 7G 9G10
  20438465.905     -676810.03049   -614099.47247  20438465.914    20438471.339
       242.000         209.000
  22919765.530    -2535981.23049  -1952865.17046  22919765.676    22919771.733
       223.000         166.000
  21982139.410      415242.35249    312415.44546  21982140.001    21982144.522
       233.000         187.000
  20885732.855    -1942079.59249  -1504866.31547  20885732.668    20885737.420
       241.000         203.000
  24061562.345       -7693.88549    -25854.96844  24061562.427    24061570.125
       216.000         126.000
  22396415.095      257574.58249    191813.09246  22396415.374    22396421.539
       230.000         183.000
  23467254.075    -2692134.37249  -2085006.44545  23467254.608    23467262.317
       210.000         134.000
 03  4 28 15 35 30.0000000  0  6G24G 4G 5G 7G 9G10
  20442732.727     -654387.71249   -596627.53947  20442732.501    20442738.446
       243.000         210.000
  21998074.525      498981.69249    377666.81746  21998074.630    21998080.564
       229.000         186.000
  20875819.099    -1994176.56749  -1545461.33947  20875818.412    20875824.007
       238.000         202.000
  24073517.784       55131.78749     23099.95444  24073516.831    24073527.623
       217.000         129.000
  22410696.719      332624.71749    250293.67446  22410696.767    22410703.014
       228.000         183.000
  23448300.552    -2791735.69449  -2162617.84445  23448300.439    23448308.443
       214.000         138.000
 03  4 28 15 36  0.0000000  0  6G24G 4G 5G 7G 9G10
  20447089.784     -631491.34949   -578786.23447  20447089.984    20447095.487
       242.000         210.000
  22014060.607      582988.98649    443127.00846  22014060.763    22014066.678
       233.000         183.000
  20865976.176    -2045901.33649  -1585766.36347  20865975.955    20865981.052
       238.000         202.000
  24085479.705      117991.65548     72081.44545  24085479.090    24085488.460
       190.000         142.000
  22425036.820      407982.24449    309013.75346  22425036.980    22425043.068
       229.000         182.000
  23429362.073    -2891258.30349  -2240167.83045  23429361.830    23429371.428
       213.000         146.000
 03  4 28 15 36 30.0000000  0  6G24G 4G 5G 7G 9G10
  20451537.102     -608120.67049   -560575.32447  20451537.255    20451542.865
       241.000         210.000
  22030097.543      667263.53349    508795.42646  22030097.921    22030103.560
       233.000         185.000
  20856204.899    -2097249.76649  -1625778.12547  20856204.850    20856209.727
       240.000         203.000
  24097448.584      180887.90849    121091.39245  24097448.753    24097457.233
       213.000         142.000
  22439435.260      483646.24849    367972.67046  22439435.562    22439441.859
       229.000         183.000
  23410439.532    -2990697.06849  -2317652.53845  23410439.410    23410447.983
       214.000         151.000
 03  4 28 15 37  0.0000000  0  6G24G 4G 5G 7G 9G10
  20456074.332     -584277.58249   -541996.30647  20456074.314    20456080.167
       241.000         209.000
  22046184.745      751802.20049    574669.67046  22046185.353    22046190.771
       232.000         185.000
  20846505.532    -2148220.53949  -1665495.60847  20846505.455    20846510.475
       239.000         203.000
  24109424.327      243820.29949    170129.48945  24109425.372    24109433.693
       202.000         135.000
  22453891.291      559612.96049    427167.45546  22453891.734    22453897.150
       230.000         183.000
  23391533.394    -3090049.54549  -2395069.97845  23391532.819    23391541.550
       217.000         154.000
 03  4 28 15 37 30.0000000  0  6G24G 4G 5G 7G 9G10
  20460701.520     -559961.73449   -523048.90147  20460701.731    20460707.384
       243.000         209.000
  22062322.094      836604.27549    640749.16946  22062323.062    22062328.574
       231.000         185.000
  20836878.784    -2198809.42649  -1704915.51847  20836878.579    20836883.485
       241.000         203.000
  24121407.384      306790.94349    219197.30944  24121405.289    24121416.054
       210.000         129.000
  22468404.805      635881.69349    486597.57946  22468405.137    22468410.992
       230.000         182.000
  23372644.750    -3189310.21249  -2472415.88245  23372644.065    23372653.387
       215.000         157.000
 03  4 28 15 38  0.0000000  0  6G24G 4G 5G 7G 9G10
  20465418.205     -535175.43849   -503734.92247  20465418.156    20465423.846
       241.000         209.000
  22078508.848      921666.16449    707031.11046  22078509.306    22078514.965
       231.000         184.000
  20827324.959    -2249015.09749  -1744036.81347  20827324.493    20827329.577
       239.000         203.000
  24133397.672      369799.55549    268294.82444  24133395.668    24133403.288
       199.000         117.000
  22482975.083      712448.66049    546260.10046  22482974.960    22482981.187
       229.000         182.000
  23353773.924    -3288476.65149  -2549688.32445  23353772.760    23353782.417
       216.000         159.000
 03  4 28 15 38 30.0000000  0  6G24G 4G 5G 7G 9G10
  20470224.438     -509918.61849   -484054.29447  20470224.369    20470230.288
       242.000         209.000
  22094745.000     1006987.49949    773515.23546  22094745.616    22094751.206
       229.000         184.000
  20817844.806    -2298833.64249  -1782856.45447  20817844.366    20817849.531
       239.000         203.000
  24145395.616      432848.66149    317423.90545  24145395.251    24145405.068
       213.000         135.000
  22497601.931      789312.91649    606154.26846  22497601.355    22497608.099
       229.000         182.000
  23334922.156    -3387543.62049  -2626883.29045  23334921.750    23334929.654
       216.000         159.000
 03  4 28 15 39  0.0000000  0  6G24G 4G 5G 7G 9G10
  20475119.901     -484193.04649   -464008.40547  20475119.889    20475125.679
       243.000         209.000
  22111029.970     1092565.35949    840199.23646  22111030.702    22111035.940
       232.000         183.000
  20808438.779    -2348262.84149  -1821372.71747  20808438.408    20808443.488
       241.000         204.000
  24157401.302      495938.10249    366584.33345  24157400.859    24157410.341
       208.000         139.000
  22512284.729      866471.33149    666277.64546  22512285.039    22512290.804
       229.000         182.000
  23316089.795    -3486507.96449  -2703998.25645  23316088.967    23316098.284
       218.000         160.000
 03  4 28 15 39 30.0000000  0  7G24G30G 4G 5G 7G 9G10
  20480103.966     -458001.73249   -443599.60347  20480103.999    20480109.773
       242.000         209.000
                  -1132949.11659   -868002.03743
       223.000          74.000
  22127363.084     1178396.04449    907080.24046  22127363.215    22127369.043
       230.000         183.000
  20799106.999    -2397301.81249  -1859584.90147  20799106.618    20799111.951
       240.000         204.000
  24169414.463      559067.13149    415775.59745  24169415.132    24169423.742
       206.000         139.000
  22527022.749      943919.88549    726627.10546  22527022.897    22527029.225
       228.000         181.000
  23297277.446    -3585367.65649  -2781031.69045  23297276.811    23297285.627
       219.000         162.000
 03  4 28 15 40  0.0000000  0  7G24G30G 4G 5G 7G 9G10
  20485176.603     -431345.10649   -422828.22147  20485176.907    20485182.547
       242.000         209.000
  22741006.232    -1226202.64449   -940666.90846  22741007.138    22741012.406
       223.000         163.000
  22143743.964     1264477.83049    974156.90846  22143744.595    22143749.830
       230.000         182.000
  20789850.017    -2445947.74449  -1897490.83047  20789850.016    20789855.129
       240.000         204.000
  24181435.420      622236.95549    464998.64945  24181435.221    24181443.799
       206.000         136.000
  22541815.595     1021656.40349    787200.94746  22541816.395    22541821.832
       229.000         181.000
  23278485.803    -3684118.25349  -2857980.11445  23278485.070    23278493.968
       217.000         161.000
 03  4 28 15 40 30.0000000  0  7G24G30G 4G 5G 7G 9G10
  20490337.262     -404225.92249   -401696.39847  20490337.235    20490343.009
       244.000         209.000
  22723291.822    -1319295.91249  -1013207.06746  22723292.072    22723297.828
       222.000         169.000
  22160171.914     1350806.94449   1041426.30146  22160172.832    22160177.798
       230.000         182.000
  20780668.074    -2494199.51049  -1935089.60447  20780667.703    20780672.907
       241.000         204.000
  24193464.041      685446.95549    514253.04145  24193462.714    24193472.863
       206.000         134.000
  22556662.551     1099676.97249    847996.13546  22556662.747    22556669.178
       229.000         181.000
  23259715.416    -3782757.22649  -2934841.56145  23259714.315    23259723.515
       217.000         161.000
 03  4 28 15 41  0.0000000  0  7G24G30G 4G 5G 7G 9G10
  20495585.403     -376647.02349   -380206.35747  20495585.371    20495591.006
       243.000         209.000
  22705607.399    -1412227.36349  -1085621.14046  22705607.915    22705613.159
       224.000         171.000
  22176646.327     1437380.01649   1108885.79046  22176646.577    22176651.694
       230.000         182.000
  20771561.335    -2542055.90049  -1972380.29447  20771560.848    20771566.061
       241.000         204.000
  24205500.119      748696.44949    563538.20045  24205501.030    24205509.331
       203.000         133.000
  22571562.805     1177977.75049    909009.67146  22571562.792    22571569.022
       228.000         181.000
  23240966.601    -3881282.60649  -3011614.46845  23240964.815    23240975.189
       216.000         161.000
 03  4 28 15 41 30.0000000  0  7G24G30G 4G 5G 7G 9G10
  20500920.158     -348612.92249   -358361.62247  20500920.268    20500925.726
       245.000         209.000
  22687953.830    -1504997.80149  -1157909.77546  22687954.756    22687959.367
       223.000         171.000
  22193166.005     1524191.20149   1176530.81646  22193166.131    22193171.801
       231.000         182.000
  20762529.656    -2589517.96849  -2009363.72747  20762529.360    20762534.610
       243.000         205.000
  24217543.243      811982.68149    612851.97545  24217542.554    24217551.355
       205.000         135.000
  22586515.183     1256552.74249    970236.87046  22586515.091    22586521.559
       229.000         181.000
  23222239.436    -3979694.21149  -3088298.73845  23222238.399    23222247.829
       218.000         160.000
 03  4 28 15 42  0.0000000  0  7G24G30G 4G 5G 7G 9G10
  20506341.793     -320122.41549   -336161.23447  20506341.655    20506347.300
       243.000         209.000
  22670331.869    -1597601.48849  -1230068.45746  22670331.816    22670337.690
       223.000         170.000
  22209731.178     1611241.40049   1244362.09746  22209731.583    22209737.382
       229.000         182.000
  20753574.051    -2636580.09349  -2046035.51247  20753573.600    20753578.698
       242.000         205.000
  24229594.079      875309.44549    662197.32445  24229594.930    24229602.712
       207.000         139.000
  22601519.838     1335402.33849   1031678.04746  22601520.093    22601526.178
       228.000         180.000
  23203535.282    -4077985.02249  -3164888.88045  23203534.108    23203542.418
       218.000         160.000
 03  4 28 15 42 30.0000000  0  7G24G30G 4G 5G 7G 9G10
  20511850.650     -291173.41349   -313603.58447  20511850.671    20511856.245
       245.000         209.000
  22652742.774    -1690032.81949  -1302092.84046  22652742.962    22652749.409
       223.000         170.000
  22226341.957     1698531.31749   1312380.15546  22226342.723    22226347.948
       230.000         181.000
  20744695.551    -2683237.12449  -2082391.64147  20744695.306    20744700.556
       243.000         205.000
  24241653.361      938680.18949    711576.96045  24241653.153    24241662.767
       208.000         141.000
  22616576.813     1414526.82249   1093333.42946  22616576.390    22616583.113
       229.000         180.000
  23184855.308    -4176148.52149  -3241379.80345  23184854.579    23184863.401
       219.000         159.000
 03  4 28 15 43  0.0000000  0  7G24G30G 4G 5G 7G 9G10
  20517446.168     -261768.92349   -290691.00447  20517445.878    20517451.610
       244.000         209.000
  22635186.705    -1782290.38749  -1373981.81946  22635186.816    22635192.788
       221.000         169.000
  22242997.658     1786057.21449   1380582.10346  22242997.693    22243003.371
       229.000         181.000
  20735894.320    -2729488.09649  -2118431.35747  20735893.819    20735899.098
       242.000         205.000
  24253720.849     1002094.36549    760990.41445  24253720.788    24253730.731
       207.000         142.000
  22631685.290     1493922.14349   1155199.85346  22631685.060    22631691.594
       227.000         180.000
  23166200.089    -4274182.35649  -3317769.73945  23166199.154    23166207.404
       218.000         158.000
 03  4 28 15 43 30.0000000  0  7G24G30G 4G 5G 7G 9G10
  20523128.283     -231909.25649   -267423.75647  20523128.114    20523133.816
       244.000         209.000
  22617664.494    -1874370.23549  -1445732.33046  22617665.536    22617670.311
       223.000         168.000
  22259698.082     1873818.22749   1448967.23846  22259698.711    22259704.337
       230.000         181.000
  20727171.063    -2775329.27849  -2154151.76747  20727170.608    20727175.820
       242.000         205.000
  24265796.960     1065553.94549    810439.25745  24265796.878    24265806.274
       205.000         142.000
  22646845.122     1573587.01749   1217276.30946  22646845.205    22646851.698
       227.000         180.000
  23147570.401    -4372081.68849  -3394054.83445  23147570.111    23147578.368
       216.000         156.000
 03  4 28 15 44  0.0000000  0  7G24G30G 4G 5G 7G 9G10
  20528896.261     -201598.58849   -243805.07247  20528896.241    20528901.946
       244.000         209.000
  22600176.253    -1966271.99449  -1517344.05946  22600176.244    22600181.920
       223.000         168.000
  22276442.324     1961809.45049   1517531.77246  22276442.660    22276448.451
       230.000         181.000
  20718525.735    -2820760.93449  -2189553.06047  20718525.433    20718530.486
       243.000         205.000
  24277881.322     1129056.93149    859921.91845  24277881.632    24277889.592
       207.000         144.000
  22662055.167     1653516.01849   1279558.57946  22662055.535    22662061.882
       227.000         179.000
  23128966.518    -4469845.54649  -3470234.36245  23128965.500    23128973.318
       217.000         156.000
 03  4 28 15 44 30.0000000  0  8G24G30G 6G 4G 5G 7G 9G10
  20534749.071     -170841.93049   -219838.85747  20534748.999    20534754.738
       243.000         209.000
  22582721.481    -2057997.21849  -1588818.22246  22582721.877    22582727.722
       222.000         169.000
  24843346.055    -1535385.51859  -1189527.16244  24843347.019    24843352.712
       200.000         127.000
  22293229.214     2050024.90249   1586271.03646  22293229.898    22293235.281
       227.000         180.000
  20709958.033    -2865784.59049  -2224636.41947  20709957.755    20709962.586
       242.000         205.000
  24289973.466     1192600.16449    909435.96345  24289973.401    24289983.364
       206.000         145.000
  22677314.250     1733702.92249   1342041.81246  22677314.642    22677320.929
       227.000         179.000
  23110388.389    -4567474.06449  -3546308.45445  23110387.242    23110396.116
       217.000         155.000
 03  4 28 15 45  0.0000000  0  8G24G30G 6G 4G 5G 7G 9G10
  20540686.960     -139638.21949   -195524.29647  20540686.988    20540692.859
       243.000         209.000
  22565301.463    -2149540.35649  -1660150.51346  22565301.927    22565306.572
       225.000         170.000
  24830217.524    -1604377.28549  -1243286.94544  24830216.439    24830226.210
       199.000         129.000
  22310058.828     2138464.66949   1655185.07046  22310059.018    22310065.021
       228.000         180.000
  20701468.924    -2910395.27149  -2259397.99047  20701468.562    20701473.677
       243.000         206.000
  24302073.780     1256186.93549    958983.91645  24302073.445    24302082.658
       201.000         143.000
  22692622.446     1814147.62549   1404725.92446  22692623.094    22692629.066
       228.000         179.000
  23091837.288    -4664960.50549  -3622271.82645  23091836.144    23091844.956
       218.000         157.000
 03  4 28 15 45 30.0000000  0  8G24G30G 6G 4G 5G 7G 9G10
  20546709.893     -107987.71049   -170861.57447  20546709.729    20546715.421
       244.000         209.000
  22547916.793    -2240897.52649  -1731337.88946  22547917.262    22547922.465
       225.000         172.000
  24817092.149    -1673352.32749  -1297033.69245  24817092.424    24817099.959
       203.000         132.000
  22326930.931     2227127.95049   1724273.29246  22326931.337    22326937.391
       229.000         179.000
  20693059.018    -2954589.63749  -2293835.15447  20693058.544    20693063.753
       243.000         206.000
  24314182.652     1319819.03849   1008567.17045  24314183.111    24314192.214
       197.000         139.000
  22707979.386     1894848.51249   1467609.67246  22707979.633    22707985.338
       228.000         179.000
  23073314.092    -4762300.57549  -3698121.16145  23073313.467    23073321.523
       218.000         157.000
 03  4 28 15 46  0.0000000  0  8G24G30G 6G 4G 5G 7G 9G10
  20552817.432      -75892.56949   -145852.39547  20552817.311    20552823.290
       243.000         209.000
  22530567.862    -2332066.67949  -1802378.74746  22530567.792    22530573.320
       223.000         172.000
  24803969.888    -1742310.98349  -1350767.66745  24803969.519    24803977.230
       201.000         134.000
  22343844.964     2316011.52349   1793533.15746  22343845.598    22343851.726
       226.000         179.000
  20684728.716    -2998365.83549  -2327946.48047  20684728.091    20684733.491
       241.000         206.000
  24326300.185     1383496.59048   1058185.82245  24326299.733    24326309.199
       190.000         133.000
  22723384.489     1975802.42849   1530690.58346  22723384.798    22723390.716
       227.000         178.000
  23054819.311    -4859490.97249  -3773853.84545  23054818.221    23054827.012
       218.000         158.000
 03  4 28 15 46 30.0000000  0  8G24G30G 6G 4G 5G 7G 9G10
  20559009.257      -43354.60549   -120498.15247  20559009.014    20559014.814
       244.000         209.000
  22513255.213    -2423045.31549  -1873271.16946  22513255.048    22513260.061
       225.000         172.000
  24790850.605    -1811253.45749  -1404489.03745  24790850.002    24790858.868
       202.000         133.000
  22360800.522     2405113.22749   1862962.99746  22360800.870    22360805.807
       228.000         178.000
  20676478.332    -3041721.97349  -2361730.48747  20676477.922    20676482.834
       243.000         206.000
  24338426.432     1447220.05858   1107840.26644  24338426.068    24338437.565
       191.000         130.000
  22738837.127     2057006.27449   1593966.23446  22738837.181    22738843.619
       228.000         178.000
  23036353.669    -4956528.35349  -3849467.32045  23036353.225    23036361.031
       219.000         159.000
 03  4 28 15 47  0.0000000  0  8G24G30G 6G 4G 5G 7G 9G10
  20565284.610      -10377.56349    -94801.78147  20565284.600    20565290.247
       245.000         209.000
  22495978.938    -2513832.64549  -1944014.50946  22495979.088    22495984.993
       225.000         172.000
  24777734.053    -1880181.64549  -1458199.26645  24777734.172    24777741.433
       201.000         134.000
  22377796.738     2494428.74549   1932559.43346  22377796.944    22377802.376
       227.000         178.000
  20668308.029    -3084657.53349  -2395186.77247  20668307.828    20668312.574
       244.000         206.000
  24350561.079     1510987.97448   1157529.33044  24350560.408    24350571.363
       191.000         130.000
  22754336.473     2138455.48849   1657433.07646  22754336.990    22754343.213
       228.000         178.000
  23017917.485    -5053410.89649  -3924960.14245  23017916.348    23017924.686
       222.000         161.000
 03  4 28 15 47 30.0000000  0  8G24G30G 6G 4G 5G 7G 9G10
  20571643.433       23038.14249    -68763.59347  20571643.468    20571649.108
       244.000         209.000
  22478739.731    -2604425.11949  -2014606.01046  22478740.152    22478745.276
       225.000         172.000
  24764620.326    -1949094.76149  -1511897.77345  24764621.579    24764627.940
       201.000         133.000
  22394833.388     2583956.62449   2002321.35246  22394833.489    22394839.781
       228.000         177.000
  20660218.272    -3127169.57949  -2428313.04947  20660217.899    20660223.059
       243.000         206.000
  24362704.578     1574801.91749   1207254.27144  24362703.951    24362712.727
       197.000         130.000
  22769882.128     2220148.00249   1721089.50846  22769882.428    22769888.148
       227.000         177.000
  22999511.581    -5150134.25849  -4000328.91646  22999510.710    22999519.260
       221.000         163.000
 03  4 28 15 48  0.0000000  0  8G24G30G 6G 4G 5G 7G 9G10
  20578085.178       56889.46549    -42385.95947  20578085.228    20578090.870
       244.000         209.000
  22461537.932    -2694821.25449  -2085044.53546  22461538.810    22461543.746
       224.000         172.000
  24751509.329    -2017993.78549  -1565585.27845  24751508.867    24751516.557
       202.000         133.000
  22411909.758     2673693.29349   2072245.96746  22411910.327    22411916.062
       227.000         177.000
  20652209.266    -3169257.15049  -2461108.56547  20652208.823    20652214.168
       243.000         206.000
  24374856.837     1638661.16049   1257014.49445  24374857.807    24374865.166
       201.000         133.000
  22785473.309     2302079.95149   1784932.51846  22785473.555    22785479.487
       227.000         176.000
  22981136.440    -5246696.25249  -4075571.96846  22981135.471    22981144.193
       222.000         165.000
 03  4 28 15 48 30.0000000  0  8G24G30G 6G 4G 5G 7G 9G10
  20584609.249       91173.62349    -15671.04347  20584608.832    20584614.734
       244.000         208.000
  22444373.729    -2785019.62149  -2155328.95446  22444373.983    22444378.981
       227.000         172.000
  24738400.764    -2086879.81149  -1619262.63945  24738400.262    24738408.280
       205.000         134.000
  22429025.244     2763635.47549   2142330.72946  22429025.629    22429031.267
       227.000         177.000
  20644281.231    -3210919.20549  -2493572.50347  20644280.722    20644285.709
       243.000         206.000
  24387017.644     1702565.18149   1306809.66645  24387017.719    24387027.369
       205.000         136.000
  22801109.362     2384247.53049   1848959.14146  22801110.400    22801115.341
       226.000         176.000
  22962792.421    -5343094.26449  -4150687.22346  22962791.830    22962799.963
       221.000         165.000
 03  4 28 15 49  0.0000000  0  8G24G30G 6G 4G 5G 7G 9G10
  20591215.680      125890.48149     11381.03047  20591215.388    20591221.208
       244.000         208.000
  22427248.003    -2875016.19449  -2225456.12446  22427247.650    22427253.478
       226.000         173.000
  24725294.845    -2155751.58349  -1672928.88445  24725294.595    24725303.768
       203.000         134.000
  22446179.623     2853781.93749   2212574.66846  22446180.563    22446185.590
       227.000         176.000
  20636434.871    -3252152.26649  -2525702.17247  20636434.314    20636439.212
       244.000         206.000
  24399187.307     1766515.92349   1356641.25545  24399187.134    24399195.999
       209.000         138.000
  22816789.974     2466649.14449   1913168.12646  22816789.785    22816795.533
       228.000         176.000
  22944480.673    -5439323.22849  -4225670.76346  22944479.218    22944488.528
       219.000         165.000
 03  4 28 15 49 30.0000000  0  8G24G30G 6G 4G 5G 7G 9G10
  20597904.012      161037.74649     38768.49147  20597903.728    20597909.503
       244.000         208.000
  22410161.053    -2964808.63049  -2295424.24146  22410160.379    22410166.564
       228.000         173.000
  24712191.773    -2224609.27049  -1726584.19945  24712191.356    24712201.264
       206.000         135.000
  22463372.403     2944130.31549   2282975.93846  22463372.701    22463378.759
       227.000         176.000
  20628670.567    -3292954.27649  -2557495.95047  20628669.989    20628675.101
       244.000         206.000
  24411365.867     1830513.59649   1406509.44645  24411365.363    24411375.365
       207.000         138.000
  22832514.523     2549281.81949   1977557.14446  22832514.049    22832520.930
       227.000         177.000
  22926201.625    -5535379.85649  -4300520.03446  22926199.852    22926209.226
       219.000         164.000
 03  4 28 15 50  0.0000000  0  8G24G30G 6G 4G 5G 7G 9G10
  20604673.728      196612.65749     66489.18147  20604673.611    20604679.568
       244.000         208.000
  22393113.251    -3054395.60149  -2365232.25546  22393113.490    22393119.054
       228.000         174.000
  24699091.132    -2293454.07249  -1780229.48045  24699090.785    24699099.202
       208.000         135.000
  22480602.961     3034676.95049   2353531.70146  22480603.272    22480609.866
       228.000         176.000
  20620988.372    -3333324.51749  -2588953.28447  20620988.107    20620993.241
       243.000         206.000
  24423553.123     1894557.39849   1456413.53545  24423553.276    24423563.866
       209.000         139.000
  22848282.298     2632141.52949   2042123.08046  22848282.593    22848289.298
       227.000         177.000
  22907955.889    -5631261.72549  -4375233.09846  22907955.083    22907963.469
       218.000         164.000
 03  4 28 15 50 30.0000000  0  8G24G30G 6G 4G 5G 7G 9G10
  20611524.426      232613.21549     94541.54747  20611524.319    20611530.246
       245.000         208.000
  22376104.966    -3143774.74849  -2434878.32246  22376105.305    22376110.823
       228.000         175.000
  24685992.758    -2362286.27649  -1833864.91845  24685993.632    24685999.646
       209.000         136.000
  22497870.739     3125419.33849   2424239.98946  22497871.558    22497876.672
       229.000         175.000
  20613388.650    -3373261.22549  -2620072.80647  20613388.338    20613393.368
       244.000         206.000
  24435749.305     1958647.79849   1506353.84445  24435748.773    24435758.969
       209.000         140.000
  22864092.625     2715225.06849   2106863.40446  22864092.598    22864099.099
       228.000         176.000
  22889743.922    -5726965.71249  -4449807.58545  22889742.901    22889752.486
       219.000         162.000
 03  4 28 15 51  0.0000000  0  8G24G30G 6G 4G 5G 7G 9G10
  20618455.982      269038.60449    122924.94947  20618455.850    20618461.562
       243.000         208.000
  22359136.955    -3232942.20449  -2504359.44146  22359137.231    22359142.420
       227.000         175.000
  24672896.976    -2431104.94949  -1887489.82845  24672897.169    24672904.731
       208.000         137.000
  22515175.495     3216355.81949   2495099.53346  22515176.298    22515181.014
       228.000         175.000
  20605872.064    -3412761.38549  -2650852.15547  20605871.672    20605876.828
       243.000         207.000
  24447954.623     2022786.42749   1556331.87545  24447955.303    24447964.528
       207.000         140.000
  22879945.198     2798530.61249   2171776.75146  22879945.144    22879952.405
       226.000         176.000
  22871566.728    -5822487.42549  -4524240.01345  22871565.285    22871574.610
       215.000         161.000
 03  4 28 15 51 30.0000000  0  8G24G30G 6G 4G 5G 7G 9G10
  20625467.817      305885.86349    151637.06947  20625467.606    20625473.512
       243.000         208.000
  22342209.628    -3321896.20649  -2573674.22546  22342210.290    22342215.643
       226.000         176.000
  24659803.726    -2499910.93449  -1941104.84445  24659803.913    24659811.052
       211.000         137.000
  22532516.591     3307483.59449   2566108.11946  22532517.163    22532522.519
       227.000         175.000
  20598438.794    -3451823.65649  -2681290.30547  20598438.258    20598443.516
       243.000         207.000
  24460169.041     2086972.87749   1606347.13245  24460169.117    24460178.924
       208.000         141.000
  22895839.361     2882054.52349   2236860.23646  22895839.120    22895845.852
       225.000         176.000
  22853424.679    -5917823.77849  -4598528.02545  22853423.644    22853431.644
       218.000         160.000
 03  4 28 15 52  0.0000000  0  8G24G30G 6G 4G 5G 7G 9G10
  20632559.616      343153.42749    180676.71047  20632559.256    20632565.240
       244.000         208.000
  22325323.298    -3410634.24249  -2642820.71746  22325323.940    22325329.447
       226.000         176.000
  24646712.775    -2568704.45349  -1994710.17845  24646712.756    24646720.504
       206.000         138.000
  22549893.632     3398800.14349   2637263.81246  22549893.763    22549899.397
       226.000         174.000
  20591089.223    -3490445.97949  -2711385.62847  20591088.636    20591093.913
       243.000         207.000
  24472392.683     2151207.49149   1656399.86345  24472392.046    24472402.344
       206.000         140.000
  22911774.519     2965793.82149   2302111.56246  22911774.918    22911780.888
       226.000         175.000
  22835318.650    -6012971.55149  -4672669.07645  22835317.589    22835326.459
       219.000         160.000
 03  4 28 15 52 30.0000000  0  8G24G30G 6G 4G 5G 7G 9G10
  20639730.854      380838.40449    210041.59847  20639731.012    20639736.732
       243.000         208.000
  22308478.379    -3499154.99749  -2711797.91346  22308478.572    22308483.356
       226.000         176.000
  24633623.938    -2637486.49849  -2048306.54645  24633623.847    24633632.171
       207.000         136.000
  22567305.913     3490301.97749   2708563.87946  22567305.829    22567312.275
       226.000         174.000
  20583823.543    -3528627.42949  -2741137.42447  20583823.436    20583828.479
       243.000         207.000
  24484625.337     2215489.63749   1706489.66145  24484625.496    24484633.781
       205.000         139.000
  22927749.873     3049744.57549   2367527.64546  22927750.349    22927756.855
       225.000         175.000
  22817248.987    -6107928.15949  -4746661.20145  22817247.868    22817256.236
       221.000         161.000
 03  4 28 15 53  0.0000000  0  8G24G30G 6G 4G 5G 7G 9G10
  20646981.398      418940.07049    239731.19147  20646981.342    20646987.243
       243.000         208.000
  22291675.424    -3587454.86249  -2780602.96446  22291675.894    22291680.715
       226.000         176.000
  24620537.365    -2706256.26749  -2101893.30345  24620535.628    24620544.282
       207.000         137.000
  22584753.163     3581987.61749   2780007.16746  22584754.110    22584759.022
       225.000         173.000
  20576642.283    -3566365.25549  -2770543.52447  20576642.027    20576647.086
       243.000         207.000
  24496867.327     2279820.92349   1756617.79345  24496867.402    24496878.440
       201.000         139.000
  22943765.096     3133904.72449   2433106.90546  22943765.142    22943771.550
       224.000         174.000
  22799216.525    -6202689.49849  -4820501.14745  22799215.382    22799222.796
       221.000         161.000
 03  4 28 15 53 30.0000000  0  8G24G30G 6G 4G 5G 7G 9G10
  20654310.699      457455.71249    269743.35747  20654310.518    20654316.396
       243.000         208.000
  22274915.060    -3675531.37049  -2849233.97146  22274915.277    22274920.762
       226.000         177.000
  24607453.179    -2775014.04249  -2155470.75045  24607453.315    24607460.264
       209.000         138.000
  22602234.828     3673854.17649   2851591.44046  22602235.188    22602241.060
       225.000         172.000
  20569545.774    -3603657.82049  -2799602.67447  20569545.280    20569550.308
       244.000         207.000
  24509118.631     2344201.34649   1806784.17045  24509118.181    24509129.304
       198.000         137.000
  22959819.591     3218271.10749   2498846.86946  22959819.957    22959825.838
       225.000         173.000
  22781221.848    -6297252.23349  -4894186.35045  22781221.239    22781229.410
       223.000         161.000
 03  4 28 15 54  0.0000000  0  8G24G30G 6G 4G 5G 7G 9G10
  20661718.660      496384.52849    300077.46947  20661718.600    20661724.195
       243.000         208.000
  22258197.713    -3763381.57149  -2917688.65146  22258197.950    22258203.642
       228.000         176.000
  24594371.467    -2843759.17549  -2209038.38345  24594372.680    24594380.767
       210.000         138.000
  22619750.618     3765900.07449   2923315.44446  22619751.702    22619756.771
       225.000         172.000
  20562534.494    -3640502.54849  -2828312.86347  20562534.154    20562539.284
       243.000         207.000
  24521379.393     2408631.84949   1856989.52145  24521378.763    24521389.533
       197.000         136.000
  22975912.866     3302841.52449   2564745.80946  22975913.446    22975919.289
       226.000         173.000
  22763265.657    -6391612.40649  -4967713.70346  22763264.870    22763272.829
       222.000         163.000
 03  4 28 15 54 30.0000000  0  8G24G30G 6G 4G 5G 7G 9G10
  20669204.539      535722.92649    330730.73847  20669204.328    20669210.198
       242.000         208.000
  22241523.613    -3851004.43549  -2985966.18846  22241523.793    22241529.329
       228.000         177.000
  24581291.761    -2912493.51249  -2262597.57345  24581291.326    24581298.450
       209.000         137.000
  22637299.831     3858121.37249   2995176.13646  22637299.694    22637306.358
       224.000         171.000
  20555608.461    -3676899.14549  -2856673.85547  20555607.929    20555613.169
       242.000         207.000
  24533649.579     2473111.42649   1907233.09645  24533649.538    24533660.085
       198.000         139.000
  22992044.127     3387611.36849   2630800.16346  22992044.589    22992050.752
       225.000         173.000
  22745348.482    -6485767.82049  -5041081.48846  22745347.893    22745356.401
       222.000         164.000
 03  4 28 15 55  0.0000000  0  8G24G30G 6G 4G 5G 7G 9G10
  20676767.938      575468.71049    361701.45447  20676767.941    20676773.849
       243.000         208.000
  22224893.258    -3938397.48449  -3054064.65046  22224893.526    22224898.616
       228.000         178.000
  24568214.098    -2981217.22549  -2316148.49645  24568214.439    24568221.011
       208.000         137.000
  22654881.908     3950515.49749   3067171.48246  22654882.281    22654887.467
       223.000         171.000
  20548768.010    -3712845.95549  -2884684.37047  20548767.834    20548772.853
       242.000         207.000
  24545929.255     2537640.46949   1957515.28545  24545929.127    24545939.345
       205.000         142.000
  23008212.710     3472577.56049   2697007.49646  23008212.996    23008219.374
       224.000         172.000
  22727470.853    -6579715.31849  -5114287.26546  22727470.460    22727477.751
       221.000         164.000
 03  4 28 15 55 30.0000000  0  8G24G30G 6G 4G 5G 7G 9G10
  20684408.862      615621.82249    392989.56447  20684408.872    20684414.631
       243.000         208.000
  22208307.475    -4025556.30949  -3121980.59246  22208308.228    22208312.937
       229.000         178.000
  24555138.777    -3049928.26249  -2369689.55245  24555139.471    24555145.509
       208.000         135.000
  22672496.808     4043082.21249   3139301.31846  22672497.636    22672502.687
       223.000         170.000
  20542013.925    -3748339.17549  -2912341.43347  20542013.810    20542018.539
       243.000         207.000
  24558218.751     2602221.23449   2007837.77945  24558219.269    24558228.883
       204.000         143.000
  23024418.458     3557738.98749   2763366.96646  23024418.037    23024425.663
       224.000         172.000
  22709633.750    -6673449.43849  -5187326.74046  22709632.658    22709640.828
       220.000         165.000
 03  4 28 15 56  0.0000000  0  8G24G30G 6G 4G 5G 7G 9G10
  20692126.450      656177.99149    424591.74547  20692126.459    20692132.250
       243.000         208.000
  22191766.363    -4112480.47749  -3189713.68746  22191766.310    22191772.499
       228.000         179.000
  24542065.486    -3118629.18749  -2423222.70645  24542066.931    24542072.625
       209.000         134.000
  22690143.576     4135816.59549   3211561.81446  22690144.170    22690150.188
       224.000         170.000
  20535346.050    -3783379.12549  -2939645.29547  20535345.496    20535350.568
       244.000         207.000
  24570517.687     2666851.78749   2058199.04245  24570517.475    24570527.779
       205.000         143.000
  23040660.394     3643090.54649   2829874.58646  23040660.792    23040667.188
       225.000         172.000
  22691837.473    -6766969.13449  -5260199.13346  22691835.749    22691845.076
       219.000         165.000
 03  4 28 15 56 30.0000000  0  7G24G30G 6G 4G 5G 9G10
  20699920.602      697136.26249    456507.26047  20699920.523    20699926.299
       245.000         207.000
  22175270.544    -4199166.48349  -3257261.17546  22175270.560    22175276.042
       231.000         179.000
  24528994.230    -3187319.11549  -2476747.28945  24528994.331    24528999.754
       205.000         133.000
  22707822.097     4228717.48549   3283952.05246  22707822.092    22707828.257
       226.000         170.000
  20528764.961    -3817963.09449  -2966593.84347  20528764.452    20528769.493
       244.000         207.000
  23056938.105     3728630.02049   2896528.64646  23056938.294    23056944.311
       226.000         172.000
  22674082.843    -6860270.06549  -5332901.05546  22674081.170    22674090.429
       220.000         166.000
 03  4 28 15 57  0.0000000  0  7G24G30G 6G 4G 5G 9G10
  20707791.238      738496.61949    488736.07647  20707791.184    20707797.043
       243.000         207.000
  22158820.933    -4285609.85149  -3324619.63746  22158820.738    22158826.698
       229.000         180.000
  24515925.270    -3255996.35149  -2530261.97945  24515924.279    24515934.554
       204.000         132.000
  22725532.196     4321784.23749   3356471.52846  22725532.751    22725538.721
       224.000         170.000
  20522271.351    -3852087.27149  -2993184.12847  20522270.917    20522276.174
       243.000         207.000
  23073251.406     3814356.45549   2963328.38246  23073251.261    23073258.926
       224.000         172.000
  22656370.834    -6953346.68749  -5405428.17946  22656369.971    22656377.732
       220.000         167.000
 03  4 28 15 57 30.0000000  0  7G24G30G 6G 4G 5G 9G10
  20715737.270      780253.09549    521273.56447  20715737.184    20715742.898
       243.000         207.000
  22142417.208    -4371811.89149  -3391790.02146  22142417.983    22142422.989
       229.000         181.000
  24502858.051    -3324664.71449  -2583769.72445  24502859.293    24502866.584
       204.000         135.000
  22743272.690     4415010.64349   3429115.41646  22743272.940    22743278.265
       224.000         170.000
  20515864.918    -3885753.53349  -3019417.58747  20515864.443    20515869.533
       243.000         207.000
  23089599.006     3900263.24049   3030268.65046  23089599.453    23089604.884
       225.000         171.000
  22638701.447    -7046199.48549  -5477780.88446  22638700.084    22638708.001
       220.000         168.000
 03  4 28 15 58  0.0000000  0  7G24G30G 6G 4G 5G 9G10
  20723758.528      822404.90449    554119.11247  20723758.221    20723763.958
       243.000         207.000
  22126060.052    -4457769.05549  -3458769.60146  22126059.748    22126065.333
       230.000         181.000
  24489792.762    -3393323.33249  -2637269.92545  24489791.970    24489800.726
       204.000         135.000
  22761043.262     4508395.28249   3501882.60746  22761043.258    22761049.238
       224.000         169.000
  20509546.119    -3918959.24049  -3045292.16947  20509545.537    20509550.790
       243.000         208.000
  23105980.469     3986348.18049   3097347.75046  23105980.323    23105986.944
       223.000         170.000
  22621075.531    -7138824.07749  -5549955.78546  22621074.866    22621083.295
       223.000         169.000
 03  4 28 15 58 30.0000000  0  7G24G30G 6G 4G 5G 9G10
  20731854.633      864950.15749    587271.22247  20731854.566    20731860.362
       243.000         207.000
  22109750.083    -4543478.37949  -3525556.07246  22109750.348    22109755.700
       231.000         181.000
  24476729.388    -3461972.05949  -2690762.40345  24476728.064    24476738.150
       204.000         135.000
  22778843.550     4601936.11949   3574771.49346  22778844.394    22778850.794
       224.000         169.000
  20503315.322    -3951702.39849  -3070806.33747  20503314.771    20503320.034
       243.000         208.000
  23122395.333     4072608.54349   3164563.52346  23122394.529    23122401.862
       222.000         169.000
  22603493.789    -7231216.78949  -5621950.01046  22603493.117    22603500.951
       226.000         171.000
 03  4 28 15 59  0.0000000  0  7G24G30G 6G 4G 5G 9G10
  20740025.255      907886.89349    620728.39647  20740025.259    20740031.076
       242.000         207.000
  22093487.756    -4628937.53749  -3592147.60246  22093488.166    22093493.302
       230.000         182.000
  24463667.739    -3530610.95349  -2744247.20545  24463666.376    24463675.368
       201.000         133.000
  22796673.156     4695630.85349   3647780.30846  22796672.932    22796679.655
       223.000         168.000
  20497172.872    -3983981.26549  -3095958.70647  20497172.443    20497177.583
       243.000         208.000
  23138843.069     4159041.63149   3231913.89246  23138842.613    23138849.595
       223.000         170.000
  22585956.829    -7323374.26449  -5693760.94546  22585955.888    22585964.706
       225.000         172.000
 03  4 28 15 59 30.0000000  0  7G24G30G 6G 4G 5G 9G10
  20748269.941      951212.92149    654488.91447  20748269.762    20748275.857
       241.000         207.000
  22077273.569    -4714143.75949  -3658542.03846  22077274.281    22077278.725
       232.000         181.000
  24450607.873    -3599240.04949  -2797724.36844  24450607.357    24450614.770
       197.000         130.000
  22814531.544     4789477.12149   3720907.20646  22814531.269    22814537.744
       224.000         167.000
  20491119.128    -4015793.87249  -3120747.75647  20491118.614    20491123.804
       244.000         208.000
  23155323.167     4245644.75349   3299396.75546  23155322.834    23155330.123
       224.000         170.000
  22568465.232    -7415292.93149  -5765385.77746  22568465.007    22568472.490
       227.000         171.000
 03  4 28 16  0  0.0000000  0  7G24G30G 6G 4G 5G 9G10
  20756588.081      994925.01749    688550.26047  20756587.983    20756593.896
       242.000         207.000
  22061107.788    -4799095.75249  -3724738.38746  22061108.213    22061112.982
       231.000         181.000
  24437549.656    -3667860.87749  -2851195.06044  24437548.727    24437556.465
       196.000         128.000
  22832418.047     4883471.24049   3794149.31346  22832418.865    22832424.736
       223.000         167.000
  20485154.192    -4047139.95449  -3145173.28547  20485153.943    20485158.957
       244.000         208.000
  23171834.764     4332413.20349   3367008.44546  23171834.113    23171841.369
       223.000         170.000
  22551019.549    -7506970.61249  -5836822.85446  22551019.094    22551026.669
       226.000         170.000
 03  4 28 16  0 30.0000000  0  7G24G30G 6G 4G 5G 9G10
  20764979.932     1039024.28549    722913.30647  20764980.163    20764985.763
       241.000         207.000
  22044991.423    -4883787.97949  -3790732.30246  22044991.700    22044997.241
       231.000         181.000
  24424493.661    -3736470.33049  -2904656.93544  24424494.205    24424501.654
       199.000         130.000
  22850332.949     4977614.08649   3867507.30046  22850333.174    22850339.082
       222.000         167.000
  20479278.957    -4078014.77349  -3169231.59347  20479278.580    20479283.644
       243.000         208.000
  23188377.769     4419347.12749   3434749.06946  23188377.830    23188384.542
       221.000         169.000
  22533620.965    -7598400.63849  -5908066.94746  22533620.279    22533627.086
       223.000         169.000
 03  4 28 16  1  0.0000000  0  7G24G30G 6G 4G 5G 9G10
  20773444.312     1083504.67749    757573.32847  20773444.414    20773450.307
       241.000         207.000
  22028924.298    -4968221.56249  -3856524.69346  22028924.503    22028929.095
       231.000         182.000
  24411439.186    -3805072.22049  -2958112.92045  24411438.423    24411446.780
       202.000         134.000
  22868274.955     5071899.47249   3940976.35746  22868275.213    22868280.851
       222.000         166.000
  20473492.999    -4108420.30749  -3192924.22447  20473492.586    20473497.704
       243.000         208.000
  23204950.988     4506439.74049   3502613.34446  23204951.856    23204956.659
       222.000         168.000
  22516269.344    -7689583.61149  -5979118.53846  22516269.761    22516276.456
       222.000         168.000
 03  4 28 16  1 30.0000000  0  7G24G30G 6G 4G 5G 9G10
  20781981.171     1128365.83449    792530.05347  20781980.944    20781986.746
       241.000         207.000
  22012907.068    -5052392.45849  -3922112.37146  22012906.982    22012913.091
       231.000         182.000
  24398386.353    -3873665.25749  -3011561.99545  24398385.759    24398393.809
       201.000         137.000
  22886243.916     5166326.51449   4014555.81146  22886243.214    22886250.819
       223.000         166.000
  20467796.926    -4138353.47949  -3216248.77847  20467796.439    20467801.443
       243.000         208.000
  23221554.141     4593689.43149   3570600.02346  23221553.973    23221560.485
       223.000         167.000
  22498965.600    -7780514.75249  -6049973.88646  22498964.811    22498972.671
       220.000         167.000
 03  4 28 16  2  0.0000000  0  7G24G30G 6G 4G 5G 9G10
  20790590.186     1173606.41049    827782.42847  20790589.964    20790595.707
       243.000         207.000
  21996940.442    -5136297.48249  -3987492.89246  21996940.605    21996946.070
       232.000         183.000
  24385335.347    -3942248.65449  -3065003.54245  24385335.344    24385342.674
       204.000         139.000
  22904239.466     5260893.51349   4088244.31046  22904239.275    22904245.597
       222.000         166.000
  20462191.234    -4167811.77649  -3239203.30447  20462190.440    20462195.773
       244.000         208.000
  23238186.817     4681094.07349   3638707.45246  23238187.148    23238193.878
       223.000         167.000
  22481710.597    -7871189.84649  -6120629.70146  22481708.967    22481717.411
       220.000         167.000
 03  4 28 16  2 30.0000000  0  7G24G30G 6G 4G 5G 9G10
  20799270.879     1219223.65249    863328.30347  20799270.725    20799276.633
       241.000         207.000
  21981024.791    -5219934.49949  -4052664.58046  21981024.833    21981030.360
       231.000         183.000
  24372286.007    -4010823.29649  -3118438.26745  24372286.007    24372293.569
       202.000         140.000
  22922261.128     5355597.81449   4162039.78646  22922261.119    22922267.892
       221.000         165.000
  20456676.043    -4196794.21449  -3261787.03147  20456675.668    20456680.744
       243.000         208.000
  23254848.291     4768650.30249   3706932.99346  23254848.563    23254855.588
       222.000         167.000
  22464504.875    -7961605.82249  -6191083.62646  22464503.878    22464511.483
       220.000         168.000
 03  4 28 16  3  0.0000000  0  7G24G30G 6G 4G 5G 9G10
  20808022.829     1265215.13849    899165.80047  20808022.776    20808028.631
       241.000         207.000
  21965160.548    -5303301.54349  -4117625.89146  21965160.955    21965166.190
       231.000         184.000
  24359238.260    -4079389.69749  -3171866.58245  24359239.160    24359246.421
       202.000         141.000
  22940308.359     5450436.33749   4235939.85646  22940308.115    22940314.623
       220.000         165.000
  20451251.675    -4225299.71949  -3283999.12447  20451251.313    20451256.505
       243.000         209.000
  23271537.884     4856354.41249   3775273.77146  23271537.890    23271545.110
       221.000         166.000
  22447349.035    -8051760.06949  -6261333.58346  22447348.674    22447356.678
       221.000         170.000
 03  4 28 16  3 30.0000000  0  7G24G30G 6G 4G 5G 9G10
  20816845.589     1311578.87649    935293.36547  20816845.218    20816851.321
       241.000         207.000
  21949348.288    -5386395.68149  -4182374.54146  21949348.822    21949353.832
       232.000         183.000
  24346192.096    -4147947.64049  -3225288.30745  24346192.162    24346199.978
       204.000         141.000
  22958380.746     5545407.13949   4309943.00946  22958381.433    22958387.402
       221.000         165.000
  20445918.426    -4253326.23149  -3305837.97247  20445918.035    20445923.115
       244.000         209.000
  23288255.136     4944203.86549   3843727.77446  23288255.126    23288262.207
       221.000         166.000
  22430243.672    -8141648.98649  -6331376.81646  22430243.146    22430250.449
       224.000         172.000
 03  4 28 16  4  0.0000000  0  7G24G30G 6G 4G 5G 9G10
  20825738.621     1358311.96749    971708.74347  20825738.471    20825744.270
       242.000         206.000
  21933588.313    -5469215.09649  -4246909.13146  21933588.732    21933593.808
       231.000         184.000
  24333147.430    -4216497.87949  -3278704.03045  24333146.663    24333154.623
       203.000         141.000
  22976477.803     5640507.36849   4384047.01146  22976478.465    22976484.346
       222.000         166.000
  20440676.458    -4280873.00349  -3327302.99547  20440676.044    20440681.009
       244.000         209.000
  23304999.372     5032194.96449   3912292.16746  23304999.734    23305005.371
       221.000         165.000
  22413189.383    -8231269.82449  -6401211.15146  22413188.463    22413196.235
       225.000         175.000
 03  4 28 16  4 30.0000000  0  7G24G30G 6G 4G 5G 9G10
  20834701.823     1405413.72149   1008411.38047  20834701.636    20834707.726
       242.000         206.000
  21917881.362    -5551755.89749  -4311226.61646  21917881.137    21917886.380
       231.000         184.000
  24320104.409    -4285039.04349  -3332112.65745  24320103.323    24320112.501
       202.000         140.000
  22994599.307     5735735.96249   4458251.03446  22994598.611    22994604.621
       224.000         166.000
  20435526.371    -4307936.93249  -3348391.78447  20435525.910    20435531.107
       244.000         209.000
  23321770.196     5120325.82549   3980965.46646  23321769.855    23321777.603
       221.000         165.000
  22396187.019    -8320617.76849  -6470832.85246  22396186.693    22396194.221
       228.000         177.000
 03  4 28 16  5  0.0000000  0  7G24G30G 6G 4G 5G 9G10
  20843734.517     1452880.64649   1045398.57147  20843734.443    20843740.247
       243.000         206.000
  21902227.695    -5634016.49349  -4375325.76946  21902227.593    21902233.250
       233.000         184.000
  24307062.995    -4353572.27749  -3385515.12045  24307062.561    24307070.822
       205.000         142.000
  23012744.556     5831089.54449   4532552.44246  23012745.408    23012750.407
       223.000         167.000
  20430468.248    -4334517.67649  -3369104.06147  20430467.781    20430472.936
       243.000         209.000
  23338566.897     5208592.55249   4049744.62646  23338566.896    23338573.287
       223.000         165.000
  22379237.025    -8409690.66049  -6540240.23046  22379236.397    22379243.952
       228.000         177.000
 03  4 28 16  5 30.0000000  0  7G24G30G 6G 4G 5G 9G10
  20852836.305     1500710.77949   1082668.77447  20852836.292    20852842.043
       241.000         206.000
  21886627.722    -5715994.62949  -4439204.81946  21886627.983    21886632.963
       231.000         185.000
  24294022.991    -4422097.97249  -3438911.72745  24294022.009    24294030.986
       207.000         144.000
  23030913.147     5926565.64949   4606949.32946  23030913.580    23030919.609
       222.000         167.000
  20425502.340    -4360613.79649  -3389438.71547  20425501.899    20425507.087
       241.000         209.000
  23355388.822     5296991.84549   4118627.08346  23355389.240    23355395.724
       221.000         165.000
  22362339.909    -8498485.21049  -6609430.73146  22362339.375    22362347.216
       226.000         176.000
 03  4 28 16  6  0.0000000  0  7G24G30G 6G 4G 5G 9G10
  20862006.900     1548902.29249   1120220.57847  20862006.643    20862012.734
       242.000         206.000
  21871082.083    -5797687.36949  -4502861.47646  21871081.945    21871087.251
       232.000         186.000
  24280984.570    -4490615.85149  -3492302.24545  24280984.454    24280991.305
       206.000         146.000
  23049104.689     6022162.38649   4681440.21346  23049105.137    23049112.057
       222.000         167.000
  20420629.014    -4386223.31049  -3409394.19047  20420628.383    20420633.737
       242.000         209.000
  23372235.482     5385520.92949   4187610.69046  23372235.448    23372241.540
       220.000         165.000
  22345496.540    -8586997.73549  -6678401.46246  22345495.236    22345503.113
       224.000         175.000
 03  4 28 16  6 30.0000000  0  7G24G30G 6G 4G 5G 9G10
  20871245.985     1597453.86849   1158052.95147  20871245.647    20871251.898
       243.000         206.000
  21855591.369    -5879091.44349  -4566293.19846  21855591.519    21855597.051
       233.000         186.000
  24267947.563    -4559125.38649  -3545686.23645  24267946.870    24267954.080
       207.000         145.000
  23067318.848     6117878.11949   4756023.82746  23067319.267    23067325.854
       225.000         168.000
  20415848.735    -4411344.04349  -3428968.80047  20415848.552    20415853.344
       244.000         209.000
  23389106.406     5474177.82949   4256693.88846  23389106.119    23389114.993
       221.000         165.000
  22328707.551    -8675224.25049  -6747149.33846  22328706.918    22328714.502
       225.000         173.000
 03  4 28 16  7  0.0000000  0  7G24G30G 6G 4G 5G 9G10
  20880552.941     1646362.03649   1196163.17947  20880553.034    20880558.562
       241.000         206.000
  21840155.897    -5960205.31449  -4629498.79846  21840156.404    21840161.472
       232.000         186.000
  24254911.907    -4627627.60849  -3599064.52845  24254911.144    24254919.351
       207.000         146.000
  23085555.049     6213709.53949   4830697.57746  23085555.912    23085561.522
       223.000         168.000
  20411161.530    -4435975.66049  -3448162.28047  20411161.207    20411166.072
       243.000         209.000
  23406000.925     5562958.50549   4325873.52846  23406000.173    23406007.633
       220.000         164.000
  22311973.421    -8763162.39749  -6815672.51446  22311972.953    22311979.724
       223.000         171.000
 03  4 28 16  7 30.0000000  0  7G24G30G 6G 4G 5G 9G10
  20889927.514     1695625.59849   1234550.34147  20889927.484    20889933.342
       242.000         206.000
  21824776.280    -6041025.86049  -4692475.82546  21824777.051    21824781.959
       232.000         186.000
  24241877.880    -4696121.92149  -3652436.67945  24241877.817    24241884.459
       208.000         147.000
  23103812.998     6309655.11349   4905460.27846  23103813.663    23103818.845
       223.000         168.000
  20406567.816    -4460116.05549  -3466972.99147  20406567.397    20406572.405
       242.000         209.000
  23422918.484     5651860.65749   4395147.81846  23422918.991    23422925.723
       219.000         164.000
  22295294.878    -8850807.97449  -6883967.70046  22295293.999    22295301.130
       223.000         169.000
 03  4 28 16  8  0.0000000  0  7G24G30G 6G 4G 5G 9G10
  20899369.106     1745241.32349   1273211.91947  20899368.908    20899374.792
       242.000         206.000
  21809452.866    -6121551.19549  -4755222.81146  21809452.980    21809458.024
       232.000         186.000
  24228845.202    -4764609.24049  -3705803.38245  24228845.359    24228852.984
       209.000         147.000
  23122092.077     6405711.72749   4980309.50746  23122091.649    23122098.531
       223.000         167.000
  20402067.656    -4483764.56749  -3485400.41247  20402067.123    20402072.251
       243.000         209.000
  23439858.457     5740880.45349   4464513.78346  23439857.744    23439865.454
       220.000         163.000
  22278672.554    -8938158.60249  -6952033.06646  22278671.347    22278679.043
       223.000         169.000
 03  4 28 16  8 30.0000000  0  7G24G30G 6G 4G 5G 9G10
  20908877.337     1795207.37049   1312146.47047  20908877.365    20908883.059
       241.000         206.000
  21794186.104    -6201778.59149  -4817737.64946  21794186.229    21794190.808
       232.000         186.000
  24215814.013    -4833089.21449  -3759164.38045  24215814.071    24215820.685
       210.000         148.000
  23140391.796     6501877.35249   5055243.67746  23140392.600    23140398.579
       221.000         167.000
  20397661.436    -4506919.38249  -3503443.14447  20397661.043    20397666.170
       242.000         210.000
  23456820.321     5830015.07349   4533969.22446  23456820.571    23456828.018
       221.000         163.000
  22262107.077    -9025210.66949  -7019865.80146  22262106.255    22262113.889
       224.000         171.000
 03  4 28 16  9  0.0000000  0  7G24G30G 6G 4G 5G 9G10
  20918451.818     1845521.27049   1351352.07947  20918451.597    20918457.669
       241.000         206.000
  21778976.458    -6281705.71349  -4880018.50946  21778976.438    21778981.348
       232.000         186.000
  24202783.976    -4901562.15349  -3812519.89445  24202783.292    24202791.197
       208.000         146.000
  23158711.861     6598149.65649   5130260.97746  23158711.448    23158717.680
       222.000         166.000
  20393349.461    -4529579.23349  -3521100.18147  20393349.008    20393354.050
       242.000         210.000
  23473803.376     5919261.44549   4603511.73946  23473803.364    23473810.903
       221.000         163.000
  22245598.893    -9111961.33849  -7087463.67046  22245598.243    22245605.795
       227.000         174.000
 03  4 28 16  9 30.0000000  0  7G24G30G 6G 4G 5G 9G10
  20928092.266     1896181.94149   1390827.89547  20928092.053    20928098.058
       241.000         206.000
  21763824.653    -6361328.70349  -4942062.38346  21763824.928    21763829.916
       232.000         186.000
  24189755.435    -4970027.02349  -3865869.09145  24189755.421    24189763.101
       210.000         145.000
  23177052.006     6694527.50149   5205360.50146  23177053.080    23177059.015
       221.000         165.000
  20389132.147    -4551741.47849  -3538369.47947  20389131.528    20389136.792
       242.000         210.000
  23490807.464     6008617.82049   4673139.97646  23490807.712    23490814.777
       219.000         163.000
  22229149.046    -9198405.87249  -7154822.98246  22229148.331    22229155.859
       228.000         176.000
 03  4 28 16 10  0.0000000  0  7G24G30G 6G 4G 5G 9G10
  20937798.000     1947185.75749   1430571.09847  20937797.864    20937803.819
       241.000         206.000
  21748730.900    -6440646.69949  -5003868.59246  21748730.887    21748736.072
       232.000         187.000
  24176728.176    -5038485.48049  -3919213.27445  24176728.389    24176735.421
       210.000         148.000
  23195411.529     6791006.96649   5280539.22746  23195412.070    23195418.045
       219.000         163.000
  20385009.414    -4573406.60749  -3555251.41347  20385008.902    20385013.960
       242.000         210.000
  23507831.528     6098079.39249   4742850.16946  23507831.397    23507838.048
       219.000         163.000
  22212757.824    -9284542.60149  -7221942.46146  22212756.758    22212764.509
       229.000         178.000
 03  4 28 16 10 30.0000000  0  7G24G30G 6G 4G 5G 9G10
  20947568.706     1998531.10949   1470580.42847  20947568.730    20947574.530
       241.000         205.000
  21733695.813    -6519656.45649  -5065434.62246  21733696.145    21733701.192
       233.000         187.000
  24163702.369    -5106936.94149  -3972552.01745  24163701.987    24163709.684
       213.000         150.000
  23213790.076     6887586.67249   5355796.04445  23213789.828    23213796.712
       218.000         162.000
  20380981.698    -4594572.53349  -3571744.35947  20380981.280    20380986.591
       242.000         210.000
  23524875.213     6187644.01949   4812640.67545  23524875.707    23524882.563
       221.000         162.000
  22196425.886    -9370367.39049  -7288818.86046  22196425.504    22196432.842
       229.000         179.000
 03  4 28 16 11  0.0000000  0  7G24G30G 6G 4G 5G 9G10
  20957404.090     2050216.10749   1510854.42347  20957403.931    20957409.911
       241.000         205.000
  21718719.923    -6598355.42149  -5126758.47546  21718720.762    21718725.368
       233.000         187.000
  24150677.881    -5175381.33949  -4025885.25745  24150678.073    24150684.579
       213.000         151.000
  23232187.331     6984264.44049   5431129.29345  23232187.911    23232194.346
       217.000         161.000
  20377049.262    -4615237.71149  -3587847.10647  20377048.993    20377053.977
       242.000         210.000
  23541937.946     6277308.62549   4882509.07646  23541937.826    23541945.473
       220.000         163.000
  22180153.947    -9455876.81749  -7355449.53346  22180153.159    22180160.643
       226.000         178.000
 03  4 28 16 11 30.0000000  0  7G24G30G 6G 4G 5G 9G10
  20967303.526     2102237.75749   1551390.74247  20967303.348    20967309.453
       241.000         205.000
  21703803.557    -6676741.48149  -5187838.51047  21703803.809    21703808.413
       233.000         188.000
  24137654.520    -5243819.41549  -4079213.57945  24137654.040    24137661.484
       213.000         150.000
  23250602.703     7081037.45249   5506536.75145  23250603.292    23250609.287
       217.000         159.000
  20373212.282    -4635401.30449  -3603559.01147  20373211.919    20373216.847
       242.000         210.000
  23559019.038     6367069.76149   4952452.69945  23559018.561    23559026.705
       220.000         162.000
  22163942.502    -9541068.33149  -7421832.46846  22163941.313    22163948.954
       226.000         178.000
 03  4 28 16 12  0.0000000  0  7G24G30G 6G 4G 5G 9G10
  20977266.657     2154594.12849   1592187.88247  20977266.501    20977272.618
       241.000         205.000
  21688947.310    -6754811.72149  -5248672.44747  21688947.324    21688952.397
       232.000         188.000
  24124632.375    -5312250.79149  -4132536.67945  24124632.195    24124640.276
       211.000         149.000
  23269035.903     7177904.23349   5582017.26745  23269036.961    23269042.004
       216.000         157.000
  20369471.106    -4655061.54749  -3618878.69647  20369470.689    20369475.783
       242.000         210.000
  23576118.013     6456924.92849   5022469.59946  23576118.063    23576124.982
       221.000         163.000
  22147792.205    -9625938.23749  -7487964.78946  22147791.163    22147799.351
       226.000         176.000
 03  4 28 16 12 30.0000000  0  7G24G30G 6G 4G 5G 9G10
  20987292.988     2207282.78049   1633243.94847  20987292.700    20987298.625
       241.000         205.000
  21674151.596    -6832563.80249  -5309258.46647  21674151.967    21674156.817
       234.000         188.000
  24111611.552    -5380675.50349  -4185854.58245  24111611.159    24111618.682
       213.000         149.000
  23287486.419     7274862.09949   5657568.76445  23287486.339    23287492.829
       216.000         156.000
  20365825.905    -4674217.30349  -3633805.27247  20365825.333    20365830.539
       243.000         210.000
  23593234.271     6546871.00549   5092557.33145  23593234.324    23593241.277
       220.000         161.000
  22131703.724    -9710483.45449  -7553844.11346  22131702.711    22131709.864
       226.000         175.000
 03  4 28 16 13  0.0000000  0  7G24G30G 6G 4G 5G 9G10
  20997382.460     2260303.11549   1674558.45847  20997382.305    20997388.321
       242.000         205.000
  21659417.015    -6909994.33749  -5369593.94147  21659417.557    21659422.294
       235.000         189.000
  24098592.151    -5449092.89249  -4239166.78945  24098592.342    24098598.121
       214.000         148.000
  23305954.042     7371909.80349   5733190.25645  23305953.824    23305960.246
       216.000         155.000
  20362277.115    -4692866.43049  -3648337.08447  20362276.989    20362281.868
       243.000         210.000
  23610367.426     6636906.03349   5162714.36045  23610367.763    23610374.052
       218.000         161.000
  22115677.835    -9794699.85749  -7619467.23246  22115676.856    22115683.601
       227.000         175.000
 03  4 28 16 13 30.0000000  0  7G24G30G 6G 4G 5G 9G10
  21007534.218     2313650.73449   1716128.00647  21007533.817    21007540.182
       242.000         205.000
  21644743.857    -6987102.49549  -5429678.20547  21644744.215    21644748.478
       236.000         189.000
  24085573.790    -5517504.75749  -4292474.67545  24085573.974    24085580.395
       215.000         149.000
  23324438.030     7469043.44849   5808878.73045  23324438.127    23324444.359
       217.000         153.000
  20358824.632    -4711009.59249  -3662474.62847  20358823.979    20358829.106
       244.000         210.000
  23627516.631     6727025.15249   5232936.93245  23627515.951    23627524.341
       220.000         161.000
  22099714.831    -9878585.92049  -7684832.92046  22099714.046    22099721.519
       230.000         175.000
 03  4 28 16 14  0.0000000  0  7G24G30G 6G 4G 5G 9G10
  21017748.120     2367325.10749   1757952.15847  21017747.746    21017753.945
       240.000         204.000
  21630132.783    -7063884.09949  -5489508.01547  21630132.691    21630137.504
       234.000         190.000
  24072556.847    -5585909.37049  -4345776.90745  24072556.536    24072563.010
       214.000         150.000
  23342938.269     7566262.44649   5884633.69945  23342936.971    23342945.393
       214.000         152.000
  20355468.971    -4728643.71949  -3676215.53147  20355468.372    20355473.674
       243.000         210.000
  23644681.607     6817227.19349   5303224.09745  23644681.737    23644689.080
       220.000         161.000
  22083815.698    -9962136.44649  -7749937.19046  22083813.534    22083822.273
       228.000         176.000
 03  4 28 16 14 30.0000000  0  7G24G30G 6G 4G 5G 9G10
  21028023.515     2421322.53849   1800028.05247  21028023.372    21028029.232
       241.000         204.000
  21615584.140    -7140337.84549  -5549082.34947  21615584.452    21615589.312
       235.000         190.000
  24059540.991    -5654308.01949  -4399074.50845  24059540.207    24059547.308
       215.000         151.000
  23361454.084     7663563.40649   5960452.54545  23361454.851    23361460.889
       218.000         152.000
  20352210.200    -4745768.80949  -3689559.78247  20352209.509    20352214.870
       243.000         210.000
  23661861.631     6907507.98049   5373572.65546  23661861.044    23661869.008
       220.000         163.000
  22067980.774   -10045349.61949  -7814778.57246  22067979.845    22067986.270
       230.000         178.000
 03  4 28 16 15  0.0000000  0  7G24G30G 6G 4G 5G 9G10
  21038360.205     2475641.98849   1842354.86147  21038359.976    21038365.880
       240.000         204.000
  21601098.596    -7216459.94249  -5608398.25547  21601098.601    21601104.045
       235.000         190.000
  24046526.464    -5722699.72949  -4452366.70245  24046525.857    24046533.679
       215.000         152.000
  23379985.376     7760945.58149   6036334.66445  23379985.053    23379991.842
       215.000         152.000
  20349048.718    -4762382.60049  -3702505.62047  20349048.317    20349053.518
       242.000         210.000
  23679056.158     6997865.40049   5443980.89546  23679056.031    23679063.628
       219.000         163.000
  22052210.775   -10128221.33749  -7879353.89046  22052210.163    22052216.962
       230.000         179.000
 03  4 28 16 15 30.0000000  0  7G24G30G 6G 4G 5G 9G10
  21048757.504     2530280.02249   1884929.92047  21048757.139    21048763.651
       240.000         204.000
  21586676.347    -7292249.39649  -5667454.95647  21586676.545    21586681.611
       235.000         191.000
  24033512.976    -5791085.87349  -4505654.55545  24033512.855    24033520.313
       212.000         151.000
  23398531.389     7858405.22149   6112277.14945  23398531.504    23398538.415
       217.000         153.000
  20345984.524    -4778485.20649  -3715053.13247  20345984.198    20345989.116
       242.000         210.000
  23696264.586     7088295.27049   5514445.61145  23696264.957    23696272.015
       217.000         162.000
  22036506.183   -10210749.56149  -7943661.53746  22036505.445    22036512.793
       229.000         179.000
 03  4 28 16 16  0.0000000  0  7G24G30G 6G 4G 5G 9G10
  21059215.151     2585235.12349   1927752.04547  21059214.979    21059221.112
       240.000         203.000
  21572318.138    -7367702.51649  -5726249.58247  21572318.495    21572323.438
       234.000         191.000
  24020500.763    -5859465.23449  -4558937.11345  24020500.544    24020507.597
       210.000         149.000
  23417091.975     7955941.27749   6188279.18645  23417092.314    23417098.631
       218.000         154.000
  20343018.025    -4794074.47049  -3727200.63447  20343017.512    20343022.752
       242.000         210.000
  23713486.284     7178795.72949   5584965.29845  23713486.775    23713494.628
       216.000         162.000
  22020867.724   -10292929.84549  -8007698.06146  22020867.671    22020874.312
       229.000         180.000
 03  4 28 16 16 30.0000000  0  7G24G30G 6G 4G 5G 9G10
  21069732.820     2640505.64249   1970819.95247  21069732.807    21069738.614
       239.000         203.000
  21558024.343    -7442816.84949  -5784780.21947  21558024.780    21558029.471
       233.000         191.000
  24007489.851    -5927837.88049  -4612214.44145  24007489.461    24007497.108
       213.000         148.000
  23435666.682     8053551.57149   6264339.06745  23435667.275    23435673.431
       219.000         155.000
  20340149.380    -4809149.42649  -3738947.37547  20340148.918    20340154.054
       241.000         210.000
  23730720.897     7269363.80749   5655537.68445  23730721.633    23730728.457
       214.000         159.000
  22005296.070   -10374759.20749  -8071461.13346  22005295.941    22005302.942
       228.000         180.000
 03  4 28 16 17  0.0000000  0  7G24G30G 6G 4G 5G 9G10
  21080309.736     2696087.58549   2014130.52247  21080309.425    21080315.540
       241.000         203.000
  21543795.210    -7517591.30949  -5843046.01947  21543795.581    21543800.152
       237.000         192.000
  23994479.938    -5996205.43349  -4665487.82845  23994479.727    23994486.360
       213.000         150.000
  23454254.943     8151232.56549   6340454.03145  23454254.767    23454261.962
       221.000         156.000
  20337378.580    -4823710.27649  -3750293.51647  20337378.176    20337383.203
       244.000         210.000
  23747967.533     7359995.10349   5726159.33145  23747967.644    23747976.119
       218.000         159.000
  21989791.560   -10456235.69649  -8134949.24546  21989790.405    21989798.272
       228.000         179.000
 03  4 28 16 17 30.0000000  0  7G24G30G 6G 4G 5G 9G10
  21090945.859     2751980.69549   2057683.56247  21090945.972    21090951.743
       241.000         203.000
  21529631.631    -7592021.34149  -5901043.43847  21529632.366    21529637.033
       236.000         192.000
  23981471.410    -6064565.71149  -4718755.52245  23981470.413    23981478.354
       212.000         151.000
  23472856.577     8248984.27349   6416624.10145  23472857.099    23472863.369
       222.000         157.000
  20334706.205    -4837753.89449  -3761236.61447  20334705.856    20334711.098
       245.000         210.000
  23765226.049     7450688.83249   5796829.62345  23765225.797    23765233.841
       218.000         157.000
  21974355.174   -10537354.20749  -8198158.41546  21974354.601    21974362.146
       230.000         179.000
 03  4 28 16 18  0.0000000  0  7G24G30G 6G 4G 5G 9G10
  21101640.522     2808181.26249   2101476.18147  21101640.438    21101646.364
       240.000         203.000
  21515533.752    -7666106.15249  -5958771.84947  21515533.786    21515538.515
       235.000         191.000
  23968463.854    -6132920.26349  -4772018.72745  23968463.048    23968470.944
       207.000         149.000
  23491470.955     8346803.05949   6492846.45045  23491470.973    23491478.133
       221.000         158.000
  20332132.186    -4851280.53549  -3771776.87047  20332131.688    20332136.763
       243.000         210.000
  23782495.685     7541440.39749   5867545.02845  23782495.401    23782504.178
       218.000         158.000
  21958987.260   -10618112.93349  -8261087.23846  21958985.860    21958993.955
       229.000         180.000
 03  4 28 16 18 30.0000000  0  7G24G30G 6G 4G 5G 9G10
  21112393.387     2864687.83049   2145507.23747  21112393.154    21112399.106
       239.000         202.000
  21501502.287    -7739842.07349  -6016228.39947  21501502.599    21501507.411
       236.000         192.000
  23955457.470    -6201268.40949  -4825276.93045  23955456.253    23955464.971
       207.000         147.000
  23510097.887     8444687.71749   6569120.12245  23510098.667    23510104.827
       222.000         159.000
  20329656.906    -4864288.31949  -3781912.82847  20329656.392    20329661.565
       242.000         210.000
  23799775.859     7632247.85249   5938303.94445  23799776.667    23799782.780
       220.000         158.000
  21943688.609   -10698507.83549  -8323732.58346  21943687.391    21943694.949
       229.000         180.000
 03  4 28 16 19  0.0000000  0  7G24G30G 6G 4G 5G 9G10
  21123204.058     2921497.99049   2189774.86247  21123203.880    21123210.093
       240.000         202.000
  21487537.647    -7813226.86649  -6073411.34547  21487537.967    21487542.936
       235.000         192.000
  23942452.384    -6269610.26349  -4878530.25445  23942451.855    23942459.317
       208.000         146.000
  23528736.937     8542635.99649   6645443.36745  23528737.724    23528743.914
       222.000         160.000
  20327280.570    -4876776.21949  -3791643.67947  20327280.087    20327285.328
       242.000         210.000
  23817066.196     7723107.89449   6009103.86545  23817064.949    23817074.711
       218.000         159.000
  21928459.746   -10778535.96149  -8386092.11446  21928458.444    21928466.036
       230.000         180.000
 03  4 28 16 19 30.0000000  0  7G24G30G 6G 4G 5G 9G10
  21134072.008     2978609.25649   2234277.11747  21134071.896    21134078.086
       239.000         202.000
  21473640.244    -7886258.42949  -6130319.04847  21473640.908    21473645.111
       236.000         192.000
  23929448.535    -6337946.11149  -4931778.93045  23929449.227    23929455.347
       211.000         146.000
  23547387.605     8640645.28349   6721814.14345  23547388.622    23547395.156
       222.000         160.000
  20325003.251    -4888743.73749  -3800969.03647  20325002.713    20325008.048
       242.000         210.000
  23834365.712     7814017.13749   6079942.06945  23834365.822    23834373.895
       216.000         159.000
  21913301.210   -10858194.60349  -8448163.74846  21913300.158    21913307.658
       230.000         181.000
 03  4 28 16 20  0.0000000  0  7G24G30G 6G 4G 5G 9G10
  21144996.683     3036018.66449   2279011.68847  21144996.454    21145002.811
       240.000         202.000
  21459810.406    -7958934.81649  -6186949.98447  21459810.792    21459815.632
       236.000         193.000
  23916445.773    -6406276.47049  -4985023.33945  23916445.309    23916452.614
       212.000         148.000
  23566049.416     8738713.18049   6798230.60645  23566049.923    23566056.929
       221.000         160.000
  20322825.073    -4900190.32649  -3809888.47247  20322824.661    20322829.904
       243.000         210.000
  23851674.079     7904972.31949   6150816.08645  23851673.530    23851682.867
       212.000         158.000
  21898213.462   -10937481.02549  -8509945.33646  21898213.013    21898219.515
       230.000         181.000
 03  4 28 16 20 30.0000000  0  7G24G30G 6G 4G 5G 9G10
  21155977.981     3093725.63249   2323978.12247  21155977.911    21155983.956
       240.000         202.000
  21446048.941    -8031251.73849  -6243300.82147  21446049.119    21446053.965
       237.000         193.000
  23903444.315    -6474599.64249  -5038262.15345  23903443.311    23903450.351
       211.000         147.000
  23584722.302     8836839.40649   6874692.50645  23584723.336    23584729.534
       222.000         161.000
  20320746.519    -4911113.38349  -3818399.96547  20320745.960    20320751.199
       243.000         210.000
  23868990.800     7995972.27649   6221724.97145  23868990.412    23868999.964
       212.000         156.000
  21883197.417   -11016390.64149  -8571433.30746  21883196.348    21883203.820
       230.000         181.000
 03  4 28 16 21  0.0000000  0  7G24G30G 6G 4G 5G 9G10
  21167015.400     3151727.39949   2369174.26847  21167015.370    21167021.230
       239.000         202.000
  21432356.144    -8103207.72349  -6299370.40647  21432356.368    21432361.332
       235.000         193.000
  23890443.985    -6542916.49249  -5091496.00145  23890443.920    23890450.528
       210.000         147.000
  23603405.663     8935020.77349   6951197.36445  23603405.772    23603412.143
       219.000         160.000
  20318767.625    -4921512.64949  -3826503.31047  20318767.180    20318772.405
       242.000         210.000
  23886315.410     8087013.16449   6292665.74745  23886314.249    23886322.722
       210.000         155.000
  21868253.577   -11094921.02849  -8632625.78346  21868252.474    21868259.621
       229.000         182.000
 03  4 28 16 21 30.0000000  0  7G24G30G 6G 4G 5G 9G10
  21178108.406     3210021.35449   2414598.10147  21178108.201    21178114.175
       240.000         201.000
  21418732.524    -8174800.24149  -6355156.76447  21418732.480    21418737.320
       237.000         193.000
  23877444.740    -6611227.24749  -5144725.08545  23877444.289    23877451.413
       210.000         147.000
  23622099.122     9033255.17149   7027743.54845  23622099.361    23622106.385
       219.000         159.000
  20316888.558    -4931387.37049  -3834197.91347  20316888.111    20316893.068
       243.000         210.000
  23903647.252     8178092.09449   6363636.16545  23903647.409    23903654.968
       215.000         154.000
  21853382.483   -11173069.14349  -8693520.36446  21853381.539    21853388.775
       229.000         182.000
 03  4 28 16 22  0.0000000  0  7G24G30G 6G 4G 5G 9G10
  21189256.627     3268605.46549   2460248.01847  21189256.703    21189262.696
       240.000         201.000
  21405178.587    -8246026.68449  -6410657.87847  21405178.833    21405183.849
       237.000         194.000
  23864446.821    -6679531.56849  -5197949.16145  23864446.877    23864453.766
       214.000         149.000
  23640802.391     9131541.04749   7104329.85145  23640802.963    23640809.522
       219.000         159.000
  20315109.552    -4940736.25949  -3841482.78347  20315109.083    20315114.166
       244.000         210.000
  23920985.926     8269206.31849   6434634.12345  23920986.116    23920993.568
       217.000         154.000
  21838584.710   -11250831.58749  -8754114.43646  21838583.903    21838591.060
       230.000         183.000
 03  4 28 16 22 30.0000000  0  7G24G30G 6G 4G 5G 9G10
  21200459.428     3327476.38149   2506121.42647  21200459.347    21200465.496
       239.000         201.000
  21391694.643    -8316885.42649  -6465872.46647  21391694.768    21391699.649
       237.000         194.000
  23851450.098    -6747830.43549  -5251169.00545  23851450.544    23851456.518
       215.000         152.000
  23659514.894     9229875.32449   7180953.86845  23659515.288    23659522.439
       218.000         158.000
  20313430.596    -4949559.40049  -3848357.97647  20313430.185    20313435.445
       242.000         210.000
  23938330.499     8360352.03149   6505656.61245  23938331.568    23938338.391
       219.000         154.000
  21823860.802   -11328206.24949  -8814406.34446  21823859.986    21823866.934
       231.000         184.000
 03  4 28 16 23  0.0000000  0  7G24G30G 6G 4G 5G 9G10
  21211716.764     3386633.85649   2552218.12447  21211716.434    21211722.683
       239.000         201.000
  21378281.450    -8387372.18849  -6520797.20847  21378281.783    21378286.798
       237.000         195.000
  23838454.768    -6816121.85649  -5304383.06445  23838454.601    23838460.911
       215.000         152.000
  23678236.563     9328257.91349   7257615.52445  23678236.608    23678243.707
       216.000         157.000
  20311852.180    -4957854.05749  -3854821.37047  20311851.748    20311856.911
       242.000         210.000
  23955680.968     8451528.05049   6576702.76745  23955681.127    23955689.490
       219.000         153.000
  21809211.620   -11405188.20949  -8874392.25346  21809210.538    21809218.410
       231.000         184.000
 03  4 28 16 23 30.0000000  0  7G24G30G 6G 4G 5G 9G10
  21223027.872     3446073.91649   2598535.02647  21223027.874    21223033.843
       240.000         200.000
  21364939.148    -8457486.35449  -6575431.60447  21364939.190    21364944.066
       237.000         195.000
  23825460.351    -6884407.67349  -5357592.74245  23825460.127    23825466.338
       215.000         151.000
  23696966.623     9426684.85849   7334311.74445  23696968.090    23696973.603
       215.000         155.000
  20310374.189    -4965621.13049  -3860873.65247  20310373.771    20310378.825
       243.000         210.000
  23973036.182     8542729.82449   6647768.95345  23973036.622    23973044.708
       216.000         151.000
  21794637.365   -11481776.34049  -8934071.27246  21794636.427    21794643.195
       231.000         184.000
 03  4 28 16 24  0.0000000  0  7G24G30G 6G 4G 5G 9G10
  21234392.470     3505795.15549   2645071.02247  21234392.226    21234398.278
       239.000         200.000
  21351668.433    -8527224.42049  -6629772.94647  21351668.547    21351673.263
       238.000         195.000
  23812467.109    -6952686.94849  -5410797.31845  23812466.373    23812473.283
       215.000         151.000
  23715705.007     9525155.17649   7411041.77045  23715704.939    23715711.609
       214.000         154.000
  20308996.923    -4972858.95949  -3866513.54047  20308996.254    20309001.625
       243.000         210.000
  23990395.904     8633955.22149   6718853.54045  23990395.745    23990403.304
       213.000         152.000
  21780138.873   -11557966.31749  -8993440.04846  21780138.314    21780144.537
       232.000         185.000
 03  4 28 16 24 30.0000000  0  7G24G30G 6G 4G 5G 9G10
  21245810.274     3565796.08649   2691824.95047  21245810.152    21245815.936
       239.000         200.000
  21338469.824    -8596583.50549  -6683818.98947  21338470.184    21338474.987
       237.000         195.000
  23799475.305    -7020958.83849  -5463996.15645  23799474.836    23799481.603
       213.000         153.000
  23734451.347     9623667.57649   7487804.57545  23734451.621    23734458.614
       214.000         154.000
  20307720.592    -4979566.07849  -3871739.88947  20307720.128    20307725.316
       242.000         210.000
  24007759.610     8725202.01249   6789954.77145  24007758.794    24007765.764
       208.000         149.000
  21765716.863   -11633754.45249  -9052495.71046  21765716.498    21765723.433
       232.000         185.000
 03  4 28 16 25  0.0000000  0  7G24G30G 6G 4G 5G 9G10
  21257280.635     3626073.02449   2738793.95947  21257280.571    21257286.437
       239.000         200.000
  21325343.664    -8665561.90449  -6737568.38847  21325344.012    21325348.463
       237.000         196.000
  23786484.778    -7089224.25349  -5517189.93045  23786484.140    23786491.510
       214.000         154.000
  23753205.095     9722219.08949   7564597.84945  23753204.299    23753211.159
       213.000         153.000
  20306545.260    -4985742.58749  -3876552.77347  20306544.732    20306549.997
       242.000         210.000
  24025126.726     8816466.55649   6861069.82045  24025126.401    24025135.794
       210.000         151.000
  21751371.661   -11709138.78349  -9111236.70846  21751370.949    21751377.305
       232.000         184.000
 03  4 28 16 25 30.0000000  0  7G24G30G 6G 4G 5G 9G10
  21268803.137     3686623.85449   2785976.38147  21268803.154    21268808.885
       240.000         200.000
  21312290.410    -8734157.49049  -6791019.49147  21312290.418    21312295.377
       239.000         196.000
  23773495.522    -7157483.30449  -5570378.76045  23773495.601    23773502.283
       215.000         155.000
  23771965.913     9820807.58949   7641419.95545  23771967.050    23771974.094
       213.000         152.000
  20305471.029    -4991387.72949  -3880951.60047  20305470.455    20305475.539
       244.000         210.000
  24042496.651     8907745.74349   6932196.27145  24042496.346    24042505.231
       213.000         152.000
  21737103.841   -11784116.60349  -9169660.94146  21737102.837    21737109.785
       232.000         185.000
 03  4 28 16 26  0.0000000  0  7G24G30G 6G 4G 5G 9G10
  21280377.418     3747447.00149   2833370.99447  21280377.361    21280383.648
       239.000         200.000
  21299310.542    -8802367.12349  -6844169.84947  21299311.024    21299315.451
       237.000         196.000
  23760507.560    -7225735.37549  -5623562.14745  23760507.063    23760514.406
       215.000         155.000
  23790733.511     9919431.70749   7718269.80645  23790734.147    23790738.871
       211.000         151.000
  20304498.220    -4996500.12149  -3884935.30647  20304497.779    20304503.072
       243.000         210.000
  24059869.002     8999037.09349   7003332.21345  24059869.439    24059877.961
       216.000         156.000
  21722914.101   -11858684.14949  -9227765.49246  21722912.700    21722920.262
       231.000         185.000
 03  4 28 16 26 30.0000000  0  7G24G30G 6G 4G 5G 9G10
  21292003.030     3808539.83249   2880975.75347  21292002.923    21292008.881
       240.000         200.000
  21286404.413    -8870189.03949  -6897018.08247  21286404.719    21286409.189
       239.000         196.000
  23747520.826    -7293981.09349  -5676740.58545  23747520.803    23747526.351
       217.000         156.000
  23809507.451    10018088.82149   7795145.39245  23809508.111    23809514.669
       212.000         150.000
  20303626.778    -5001079.69449  -3888503.81647  20303626.282    20303631.440
       244.000         210.000
  24077243.034     9090337.26949   7074475.04645  24077242.982    24077251.956
       221.000         160.000
  21708802.841   -11932839.09749  -9285548.52646  21708801.919    21708808.870
       233.000         185.000
 03  4 28 16 27  0.0000000  0  7G24G30G 6G 4G 5G 9G10
  21303679.588     3869900.26249   2928789.02747  21303679.600    21303685.681
       240.000         199.000
  21273572.627    -8937620.46749  -6949562.04647  21273572.792    21273577.614
       238.000         197.000
  23734535.379    -7362220.01349  -5729913.72845  23734535.353    23734541.825
       214.000         156.000
  23828287.331    10116777.51149   7872045.57445  23828286.810    23828294.404
       212.000         150.000
  20302856.931    -5005125.32549  -3891656.27747  20302856.445    20302861.663
       243.000         210.000
  24094618.236     9181643.87049   7145622.89445  24094618.982    24094626.711
       221.000         161.000
  21694770.759   -12006578.13849  -9343007.49246  21694770.163    21694777.298
       233.000         186.000
 03  4 28 16 27 30.0000000  0  7G24G30G 6G 4G 5G 9G10
  21315406.764     3931526.75149   2976809.61947  21315406.521    21315412.686
       239.000         199.000
  21260815.824    -9004658.07849  -7001799.13947  21260816.323    21260821.268
       237.000         197.000
  23721551.381    -7430451.15749  -5783080.79445  23721551.042    23721557.668
       212.000         156.000
  23847073.019    10215496.52249   7948969.37045  23847073.095    23847081.534
       212.000         149.000
  20302188.983    -5008635.51949  -3894391.51447  20302188.537    20302193.806
       242.000         210.000
  24111994.362     9272954.96049   7216774.25545  24111994.234    24112002.924
       222.000         160.000
  21680818.613   -12079897.09949  -9400139.10946  21680817.672    21680824.786
       233.000         187.000
 03  4 28 16 28  0.0000000  0  7G24G30G 6G 4G 5G 9G10
  21327183.734     3993415.04349   3025034.21747  21327183.208    21327189.406
       240.000         199.000
  21248134.037    -9071301.28249  -7053728.89247  21248134.143    21248138.804
       240.000         197.000
  23708568.411    -7498676.40049  -5836243.25345  23708567.540    23708574.731
       213.000         156.000
  23865863.774    10314242.20849   8025913.96745  23865864.086    23865871.125
       214.000         148.000
  20301622.731    -5011611.38249  -3896710.38147  20301622.259    20301627.492
       244.000         210.000
  24129370.381     9364265.71049   7287925.33045  24129370.834    24129378.458
       220.000         157.000
  21666946.527   -12152795.32849  -9456942.88047  21666945.766    21666952.086
       234.000         188.000
 03  4 28 16 28 30.0000000  0  7G24G30G 6G 4G 5G 9G10
  21339010.625     4055565.51549   3073463.10147  21339010.410    21339016.664
       239.000         199.000
  21235528.254    -9137545.25249  -7105347.56347  21235528.530    21235533.264
       238.000         198.000
  23695587.049    -7566893.20849  -5889399.15245  23695587.186    23695594.473
       213.000         156.000
  23884659.712    10413015.14549   8102879.78145  23884660.174    23884667.621
       214.000         149.000
  20301158.703    -5014049.93249  -3898610.57547  20301158.331    20301163.387
       242.000         210.000
  24146746.202     9455575.73449   7359075.85345  24146746.026    24146754.076
       216.000         152.000
  21653155.584   -12225267.23549  -9513414.47047  21653154.983    21653161.821
       233.000         188.000
 03  4 28 16 29  0.0000000  0  7G24G30G 6G 4G 5G 9G10
  21350886.563     4117973.88649   3122092.95347  21350886.179    21350892.423
       239.000         199.000
  21222998.387    -9203390.12149  -7156655.23947  21222998.224    21223003.286
       238.000         198.000
  23682606.983    -7635103.73549  -5942550.15445  23682606.293    23682614.490
       213.000         157.000
  23903460.004    10511811.06049   8179863.50745  23903460.728    23903465.945
       214.000         148.000
  20300796.603    -5015952.77749  -3900093.32747  20300796.061    20300801.362
       243.000         210.000
  24164120.897     9546879.90249   7430221.84145  24164120.108    24164128.847
       211.000         145.000
  21639445.889   -12297312.12649  -9569553.30347  21639444.634    21639452.228
       232.000         188.000
 03  4 28 16 29 30.0000000  0  7G24G30G 6G 4G 5G 9G10
  21362811.468     4180639.45649   3170923.21447  21362811.323    21362817.636
       239.000         198.000
  21210545.308    -9268831.30149  -7207648.36447  21210545.805    21210550.070
       238.000         198.000
  23669628.573    -7703305.88049  -5995694.63045  23669627.978    23669635.226
       214.000         157.000
  23922264.693    10610630.15649   8256865.34045  23922264.491    23922271.973
       213.000         147.000
  20300536.986    -5017317.32549  -3901156.63647  20300536.441    20300541.842
       243.000         210.000
  24181494.251     9638177.32149   7501362.49745  24181494.550    24181502.465
       209.000         142.000
  21625818.346   -12368925.12249  -9625355.60247  21625817.418    21625824.699
       232.000         188.000
 03  4 28 16 30  0.0000000  0  7G24G30G 6G 4G 5G 9G10
  21374784.599     4243558.59149   3219951.06247  21374784.615    21374790.479
       238.000         198.000
  21198169.211    -9333868.07849  -7258326.37047  21198169.413    21198174.226
       238.000         198.000
  23656651.474    -7771501.07749  -6048833.69345  23656651.611    23656658.242
       214.000         157.000
  23941073.114    10709468.68849   8333882.25845  23941073.770    23941081.120
       212.000         146.000
  20300379.593    -5018144.53949  -3901801.24047  20300379.170    20300384.473
       242.000         210.000
  24198865.527     9729463.58949   7572494.47745  24198864.405    24198874.311
       206.000         140.000
  21612273.288   -12440104.65349  -9680820.14546  21612272.285    21612279.431
       232.000         187.000
 03  4 28 16 30 30.0000000  0  7G24G30G 6G 4G 5G 9G10
  21386805.672     4306729.52549   3269175.12547  21386805.423    21386811.489
       237.000         198.000
  21185870.651    -9398497.40149  -7308686.87647  21185870.787    21185875.528
       239.000         198.000
  23643675.781    -7839688.78649  -6101966.92345  23643675.454    23643681.762
       215.000         157.000
  23959885.023    10808325.65549   8410913.58345  23959885.926    23959892.266
       214.000         146.000
  20300324.654    -5018433.22149  -3902026.20847  20300324.068    20300329.614
       242.000         211.000
  24216234.213     9820736.42649   7643615.99545  24216234.410    24216242.352
       210.000         142.000
  21598811.313   -12510847.59449  -9735944.48147  21598810.525    21598817.286
       232.000         188.000
 03  4 28 16 31  0.0000000  0  7G24G30G 6G 4G 5G 9G10
  21398874.269     4370150.21949   3318593.80347  21398874.108    21398880.436
       238.000         198.000
  21173650.119    -9462716.98749  -7358728.10447  21173650.527    21173655.010
       240.000         198.000
  23630701.495    -7907868.82649  -6155094.17645  23630700.197    23630707.051
       216.000         156.000
  23978700.088    10907199.05549   8487957.71345  23978699.672    23978707.740
       214.000         147.000
  20300372.366    -5018182.68949  -3901831.00947  20300371.795    20300377.151
       243.000         210.000
  24233599.987     9911992.96649   7714724.80345  24233600.188    24233609.298
       213.000         148.000
  21585433.050   -12581150.71849  -9790726.09847  21585432.016    21585438.875
       234.000         188.000
 03  4 28 16 31 30.0000000  0  7G24G30G 6G 4G 5G 9G10
  21410990.087     4433818.95049   3368205.75947  21410989.770    21410996.001
       238.000         198.000
  21161508.081    -9526524.00649  -7408447.85847  21161508.512    21161513.163
       239.000         199.000
  23617728.786    -7976040.72949  -6208215.11045  23617728.027    23617734.647
       216.000         157.000
  23997518.030    11006087.59449   8565013.62645  23997517.344    23997525.568
       213.000         147.000
  20300522.832    -5017392.04649  -3901214.94647  20300522.321    20300527.464
       243.000         211.000
  24250962.106    10003231.02649   7785819.18445  24250962.758    24250971.509
       213.000         153.000
  21572139.091   -12651011.03249  -9845162.67947  21572137.900    21572145.473
       234.000         189.000
 03  4 28 16 32  0.0000000  0  7G24G30G 6G 4G 5G 9G10
  21423152.456     4497732.50449   3418008.48747  21423152.350    21423158.440
       238.000         197.000
  21149444.838    -9589916.73549  -7457844.78647  21149445.164    21149449.885
       240.000         199.000
  23604757.497    -8044205.01749  -6261330.10045  23604757.416    23604763.920
       215.000         157.000
  24016338.308    11104988.58449   8642079.21345  24016338.765    24016345.797
       213.000         146.000
  20300776.062    -5016061.39249  -3900178.09447  20300775.586    20300780.830
       243.000         210.000
  24268320.155    10094447.11949   7856896.49945  24268320.981    24268329.342
       219.000         157.000
  21558929.853   -12720426.08449  -9899252.30647  21558928.984    21558935.722
       234.000         189.000
 03  4 28 16 32 30.0000000  0  7G24G30G 6G 4G 5G 9G10
  21435361.072     4561888.96549   3468000.49647  21435360.918    21435367.257
       238.000         197.000
  21137460.907    -9652892.49349  -7506916.80347  21137460.870    21137465.696
       239.000         199.000
  23591787.704    -8112361.16449  -6314438.73745  23591787.345    23591793.972
       214.000         156.000
  24035160.764    11203900.86449   8719153.60945  24035161.084    24035167.833
       214.000         146.000
  20301132.208    -5014189.98549  -3898719.87647  20301131.709    20301137.206
       243.000         211.000
  24285673.531    10185638.84949   7927954.81745  24285673.988    24285683.338
       216.000         159.000
  21545805.855   -12789392.91149  -9952992.65547  21545804.970    21545812.067
       233.000         189.000
 03  4 28 16 33  0.0000000  0  7G24G30G 6G 4G 5G 9G10
  21447615.602     4626286.69949   3518180.51047  21447615.535    21447621.825
       239.000         197.000
  21125556.893    -9715448.58149  -7555661.80147  21125556.981    21125561.791
       240.000         199.000
  23578819.625    -8180508.68049  -6367540.65345  23578819.343    23578826.374
       217.000         156.000
  24053985.094    11302822.83349   8796235.58045  24053985.892    24053992.500
       213.000         144.000
  20301591.424    -5011777.01849  -3896839.66547  20301590.901    20301596.193
       243.000         211.000
  24303021.803    10276803.73349   7998992.18745  24303021.808    24303030.644
       218.000         159.000
  21532767.779   -12857908.38149 -10006381.30647  21532766.756    21532773.644
       233.000         189.000
 03  4 28 16 33 30.0000000  0  7G24G30G 6G 4G 5G 9G10
  21459915.550     4690923.33149   3568546.67947  21459915.300    21459921.620
       237.000         197.000
  21113733.160    -9777582.78849  -7604078.06847  21113733.287    21113737.946
       239.000         200.000
  23565853.236    -8248647.67149  -6420635.93445  23565853.019    23565859.100
       217.000         158.000
  24072810.891    11401752.43049   8873323.48845  24072811.689    24072818.910
       213.000         144.000
  20302153.729    -5008822.00849  -3894537.09147  20302153.192    20302158.438
       242.000         211.000
  24320364.450    10367938.89049   8070006.41045  24320363.962    24320373.675
       217.000         159.000
  21519816.108   -12925969.48649 -10059415.90347  21519815.572    21519822.017
       233.000         189.000
 03  4 28 16 34  0.0000000  0  7G24G30G 6G 4G 5G 9G10
  21472260.395     4755795.49949   3619096.38147  21472260.094    21472266.593
       238.000         197.000
  21101989.936    -9839293.98249  -7652164.70647  21101990.656    21101995.042
       239.000         200.000
  23552888.375    -8316779.02449  -6473725.27945  23552887.985    23552894.907
       216.000         157.000
  24091637.598    11500686.89149   8950415.20145  24091638.955    24091644.297
       214.000         145.000
  20302819.073    -5005325.80949  -3891812.80347  20302818.581    20302823.775
       243.000         211.000
  24337700.612    10459040.18849   8140994.25245  24337700.541    24337709.305
       211.000         154.000
  21506951.219   -12993574.79949 -10112095.33347  21506950.398    21506957.125
       233.000         189.000
 03  4 28 16 34 30.0000000  0  7G24G30G 6G 4G 5G 9G10
  21484649.951     4820902.96949   3669829.43747  21484649.796    21484655.789
       238.000         196.000
  21090328.066    -9900577.58949  -7699918.16547  21090328.369    21090333.130
       240.000         200.000
  23539925.302    -8384900.34849  -6526806.79945  23539924.959    23539931.301
       215.000         156.000
  24110465.289    11599626.36149   9027510.79945  24110464.902    24110471.558
       214.000         146.000
  20303587.874    -5001285.86449  -3888664.82147  20303587.489    20303592.517
       244.000         211.000
  24355030.187    10550107.20649   8211955.35345  24355030.613    24355039.394
       210.000         150.000
  21494174.036   -13060719.32349 -10164415.70147  21494173.004    21494180.254
       234.000         190.000
 03  4 28 16 35  0.0000000  0  7G24G30G 6G 4G 5G 9G10
  21497083.538     4886241.67749   3720742.68247  21497083.029    21497089.532
       238.000         196.000
  21078747.615    -9961433.21349  -7747338.13047  21078747.447    21078752.421
       240.000         200.000
  23526963.714    -8453013.31149  -6579881.79445  23526963.252    23526969.397
       216.000         156.000
  24129293.249    11698567.40949   9104607.62645  24129294.387    24129300.706
       212.000         146.000
  20304459.866    -4996703.60249  -3885094.25147  20304459.225    20304464.542
       243.000         211.000
  24372352.466    10641135.45349   8282886.25445  24372353.701    24372362.093
       207.000         147.000
  21481484.788   -13127401.74949 -10216375.99947  21481483.598    21481490.756
       235.000         190.000
 03  4 28 16 35 30.0000000  0  7G24G30G 6G 4G 5G 9G10
  21509560.903     4951810.48249   3771835.22047  21509560.691    21509567.001
       238.000         196.000
  21067249.243   -10021857.48349  -7794421.97647  21067249.537    21067254.380
       242.000         200.000
  23514003.945    -8521116.78449  -6632949.40245  23514003.014    23514010.656
       217.000         158.000
  24148121.310    11797509.27849   9181705.06445  24148121.923    24148130.150
       212.000         144.000
  20305435.308    -4991577.57549  -3881099.97547  20305434.750    20305440.121
       244.000         211.000
  24389666.879    10732123.07949   8353785.48745  24389665.546    24389676.079
       202.000         138.000
  21468884.106   -13193618.64649 -10267973.54747  21468883.411    21468890.172
       235.000         190.000
 03  4 28 16 36  0.0000000  0  7G24G30G 6G 4G 5G 9G10
  21522081.687     5017607.59749   3823105.66547  21522081.493    21522088.002
       239.000         195.000
  21055833.397   -10081848.03749  -7841167.86247  21055833.530    21055838.116
       242.000         201.000
  23501046.117    -8589210.35749  -6686009.29445  23501045.835    23501052.154
       218.000         159.000
  24166949.236    11896450.52049   9258802.04045  24166949.969    24166957.477
       211.000         143.000
  20306514.408    -4985907.03349  -3876681.39847  20306514.063    20306519.174
       244.000         211.000
  24406973.092    10823067.44049   8424650.99845  24406973.554    24406982.209
       206.000         135.000
  21456372.545   -13259367.19849 -10319206.15047  21456371.783    21456378.488
       235.000         191.000
 03  4 28 16 36 30.0000000  0  7G24G30G 6G 4G 5G 9G10
  21534645.371     5083630.01849   3874551.66247  21534645.465    21534651.355
       236.000         195.000
  21044500.481   -10141403.13149  -7887574.43547  21044501.105    21044505.385
       240.000         201.000
  23488090.062    -8657294.60949  -6739061.92045  23488089.764    23488095.995
       218.000         160.000
  24185776.585    11995388.50349   9335896.47945  24185777.355    24185785.771
       212.000         143.000
  20307697.058    -4979692.42149  -3871838.87847  20307696.654    20307701.750
       243.000         211.000
  24424270.491    10913965.19049   8495480.23345  24424271.279    24424279.622
       206.000         137.000
  21443950.558   -13324645.11349 -10370072.02047  21443949.762    21443956.884
       234.000         191.000
 03  4 28 16 37  0.0000000  0  8G24G30G 6G 4G 5G17G 9G10
  21547250.305     5149869.25149   3926166.61747  21547250.179    21547256.091
       237.000         195.000
  21033249.676   -10200526.64949  -7933644.70147  21033249.774    21033254.628
       241.000         201.000
  23475134.771    -8725375.45349  -6792111.90745  23475134.622    23475140.070
       219.000         162.000
  24204601.844    12094315.47649   9412982.32945  24204603.092    24204608.249
       212.000         144.000
  20308982.076    -4972939.76349  -3866577.09247  20308981.505    20308986.973
       243.000         211.000
  25021023.562    -2277558.89958  -1756505.05544  25021022.916    25021032.507
       192.000         118.000
  24441557.327    11004807.39849   8566266.15745  24441557.282    24441567.355
       206.000         139.000
  21431617.437   -13389455.96349 -10420573.93847  21431616.720    21431623.771
       234.000         191.000
 03  4 28 16 37 30.0000000  0  8G24G30G 6G 4G 5G17G 9G10
  21559897.697     5216331.56449   3977955.38947  21559897.194    21559903.751
       237.000         195.000
  21022083.029   -10259207.81849  -7979370.29047  21022083.105    21022087.916
       241.000         201.000
  23462181.761    -8793444.32749  -6845152.55745  23462181.580    23462188.628
       220.000         161.000
  24223426.370    12193238.13949   9490064.81845  24223427.120    24223435.027
       212.000         144.000
  20310371.179    -4965640.18349  -3860889.13547  20310370.743    20310376.035
       244.000         211.000
  25004091.623    -2366536.14548  -1825837.89044  25004087.940    25004096.739
       194.000         115.000
  24458834.754    11095599.83949   8637013.32245  24458835.041    24458844.075
       214.000         142.000
  21419375.336   -13453788.50249 -10470703.14447  21419374.755    21419381.696
       236.000         191.000
 03  4 28 16 38  0.0000000  0  8G24G30G 6G 4G 5G17G 9G10
  21572587.072     5283014.60849   4029916.16247  21572586.719    21572593.005
       236.000         194.000
  21011000.887   -10317444.84049  -8024749.78747  21011001.037    21011006.087
       240.000         201.000
  23449230.958    -8861501.10249  -6898183.76545  23449231.235    23449237.427
       218.000         162.000
  24242249.641    12292154.61549   9567142.50045  24242250.040    24242256.973
       212.000         146.000
  20311864.345    -4957793.57749  -3854774.92447  20311863.739    20311869.053
       242.000         211.000
  24987186.294    -2455374.26949  -1895062.36244  24987187.380    24987195.082
       200.000         122.000
  24476102.195    11186339.76449   8707719.61245  24476102.757    24476112.000
       214.000         146.000
  21407224.725   -13517640.26649 -10520457.72547  21407224.017    21407230.425
       234.000         191.000
 03  4 28 16 38 30.0000000  0  8G24G30G 6G 4G 5G17G 9G10
  21585317.947     5349915.59049   4082046.75947  21585318.005    21585324.055
       237.000         194.000
  21000003.590   -10375236.01049  -8069781.86647  21000003.690    21000008.686
       241.000         202.000
  23436282.444    -8929546.25149  -6951205.92146  23436282.689    23436289.293
       220.000         164.000
  24261071.229    12391062.51049   9644213.49245  24261070.860    24261079.740
       208.000         145.000
  20313461.560    -4949400.40649  -3848234.81747  20313460.944    20313466.581
       243.000         211.000
  24970307.497    -2544072.96949  -1964178.18944  24970306.517    24970316.553
       203.000         128.000
  24493358.987    11277023.72549   8778382.23745  24493359.320    24493368.084
       213.000         149.000
  21395165.956   -13581009.38649 -10569836.21047  21395164.656    21395172.235
       235.000         192.000
 03  4 28 16 39  0.0000000  0  8G24G30G 6G 4G 5G17G 9G10
  21598089.823     5417031.97449   4134345.19847  21598089.943    21598096.034
       236.000         194.000
  20989091.496   -10432579.53349  -8114465.13647  20989091.844    20989096.245
       240.000         202.000
  23423336.031    -8997580.16149  -7004219.32046  23423335.462    23423342.285
       219.000         166.000
  24279890.790    12489959.60249   9721276.04845  24279890.002    24279899.112
       206.000         143.000
  20315162.683    -4940460.92749  -3841269.02247  20315162.176    20315167.576
       242.000         211.000
  24953455.495    -2632631.40149  -2033184.69445  24953454.283    24953464.603
       203.000         133.000
  24510604.400    11367648.38149   8848998.64245  24510604.731    24510614.107
       213.000         151.000
  21383199.498   -13643893.37849 -10618836.69047  21383198.829    21383205.664
       234.000         192.000
 03  4 28 16 39 30.0000000  0  8G24G30G 6G 4G 5G17G 9G10
  21610902.186     5484361.18449   4186809.47847  21610902.294    21610908.399
       236.000         194.000
  20978264.943   -10489473.44049  -8158798.04847  20978265.709    20978269.922
       241.000         202.000
  23410391.686    -9065602.86149  -7057223.98946  23410391.623    23410398.429
       220.000         166.000
  24298707.971    12588843.96249   9798328.69445  24298707.825    24298716.518
       208.000         143.000
  20316967.749    -4930975.33049  -3833877.67647  20316967.286    20316972.698
       242.000         211.000
  24936630.099    -2721049.15749  -2102081.59245  24936627.772    24936640.089
       203.000         133.000
  24527838.104    11458210.97149   8919566.68745  24527838.751    24527847.447
       215.000         153.000
  21371325.805   -13706289.97149 -10667457.37647  21371324.800    21371332.104
       235.000         192.000
 03  4 28 16 40  0.0000000  0  8G24G30G 6G 4G 5G17G 9G10
  21623754.597     5551900.77049   4239437.68447  21623754.366    21623760.516
       236.000         194.000
  20967524.430   -10545915.45949  -8202778.84247  20967524.625    20967529.370
       241.000         202.000
  23397449.574    -9133614.05449  -7110219.68846  23397449.103    23397455.100
       219.000         166.000
  24317522.366    12687714.07749   9875370.23645  24317522.200    24317530.907
       209.000         145.000
  20318876.844    -4920943.26849  -3826060.51647  20318876.395    20318881.749
       244.000         211.000
  24919831.636    -2809325.02049  -2170867.87344  24919831.270    24919840.167
       200.000         130.000
  24545059.442    11548708.75849   8990084.26045  24545060.448    24545069.705
       213.000         153.000
  21359545.390   -13768196.47549 -10715696.17747  21359544.185    21359551.066
       234.000         192.000
 03  4 28 16 40 30.0000000  0  8G24G30G 6G 4G 5G17G 9G10
  21636646.655     5619648.98549   4292228.45547  21636646.521    21636652.886
       236.000         193.000
  20956870.227   -10601903.57649  -8246405.94647  20956870.211    20956875.128
       241.000         202.000
  23384509.681    -9201613.48049  -7163206.24146  23384509.941    23384516.104
       219.000         165.000
  24336333.796    12786568.23049   9952399.35645  24336333.517    24336342.269
       210.000         145.000
  20320889.900    -4910364.66349  -3817817.48047  20320889.471    20320894.917
       244.000         211.000
  24903060.367    -2897457.91849  -2239542.74844  24903061.869    24903067.271
       199.000         123.000
  24562267.890    11639139.01049   9060549.17245  24562267.696    24562277.946
       209.000         151.000
  21347858.628   -13829610.59149 -10763551.29347  21347857.496    21347864.553
       234.000         192.000
 03  4 28 16 41  0.0000000  0  8G24G30G 6G 4G 5G17G 9G10
  21649577.963     5687603.26349   4345179.79447  21649577.499    21649584.038
       236.000         193.000
  20946302.795   -10657435.65749  -8289677.70147  20946303.036    20946307.857
       241.000         202.000
  23371572.001    -9269601.22049  -7216183.67246  23371571.588    23371578.541
       218.000         164.000
  24355141.737    12885404.44349  10029414.50245  24355141.806    24355150.217
       207.000         143.000
  20323006.943    -4899239.70049  -3809148.71247  20323006.575    20323011.906
       244.000         211.000
  24886316.448    -2985447.15649  -2308105.69944  24886317.141    24886324.232
       201.000         120.000
  24579462.859    11729498.73549   9130959.11545  24579462.712    24579473.186
       207.000         149.000
  21336266.005   -13890529.97649 -10811020.90647  21336265.031    21336271.939
       235.000         192.000
 03  4 28 16 41 30.0000000  0  8G24G30G 6G 4G 5G17G 9G10
  21662548.048     5755761.56749   4398290.11647  21662547.750    21662554.052
       236.000         193.000
  20935822.654   -10712509.19449  -8332592.14147  20935822.951    20935827.596
       242.000         203.000
  23358636.704    -9337576.56449  -7269151.45346  23358636.173    23358642.659
       220.000         164.000
  24373946.062    12984221.55649  10106414.73745  24373946.768    24373953.482
       204.000         140.000
  20325228.045    -4887567.71249  -3800053.68847  20325227.648    20325232.936
       244.000         211.000
  24869600.194    -3073291.40049  -2376555.77344  24869600.084    24869607.962
       205.000         122.000
  24596644.014    11819785.50549   9201312.19445  24596643.758    24596653.521
       207.000         148.000
  21324768.144   -13950951.55549 -10858102.62247  21324767.211    21324773.706
       235.000         193.000
 03  4 28 16 42  0.0000000  0  8G24G30G 6G 4G 5G17G 9G10
  21675556.571     5824121.49549   4451557.55147  21675556.465    21675562.668
       236.000         193.000
  20925430.088   -10767122.66849  -8375148.09547  20925430.226    20925435.221
       242.000         203.000
  23345703.835    -9405539.73349  -7322109.73646  23345703.696    23345710.114
       220.000         165.000
  24392746.340    13083017.47749  10183398.47645  24392747.053    24392754.023
       205.000         139.000
  20327553.176    -4875349.18549  -3790532.79247  20327552.748    20327558.160
       245.000         211.000
  24852911.752    -3160990.06749  -2444892.34444  24852911.088    24852921.341
       205.000         126.000
  24613810.718    11909996.49249   9271606.22945  24613809.994    24613821.345
       202.000         145.000
  21313365.404   -14010873.19649 -10904794.77547  21313364.335    21313371.580
       236.000         193.000
 03  4 28 16 42 30.0000000  0  8G24G30G 6G 4G 5G17G 9G10
  21688602.970     5892680.57949   4504980.17047  21688603.132    21688608.920
       237.000         192.000
  20915125.458   -10821273.93149  -8417343.87947  20915125.820    20915130.485
       243.000         203.000
  23332773.179    -9473490.80649  -7375058.59646  23332772.867    23332779.298
       219.000         164.000
  24411542.211    13181790.30549  10260364.20145  24411542.871    24411551.080
       206.000         140.000
  20329982.289    -4862584.34749  -3780586.19847  20329981.756    20329987.171
       245.000         211.000
  24836250.952    -3248542.69649  -2513115.09644  24836249.822    24836260.059
       205.000         128.000
  24630962.392    12000128.87549   9341839.00945  24630963.909    24630973.141
       201.000         140.000
  21302058.245   -14070292.76949 -10951095.71047  21302057.093    21302064.231
       237.000         194.000
 03  4 28 16 43  0.0000000  0  8G24G30G 6G 4G 5G17G 9G10
  21701687.105     5961437.85149   4558557.22847  21701687.035    21701693.161
       235.000         192.000
  20904909.313   -10874959.88849  -8459177.09047  20904909.582    20904914.413
       241.000         203.000
  23319844.987    -9541428.55549  -7427997.06646  23319844.318    23319851.175
       217.000         163.000
  24430333.590    13280539.30549  10337311.34745  24430333.802    24430341.541
       208.000         142.000
  20332515.506    -4849272.27449  -3770213.18747  20332515.093    20332520.400
       244.000         211.000
  24819618.417    -3335946.93949  -2581222.22144  24819617.996    24819627.575
       204.000         129.000
  24648098.847    12090180.80149   9412009.10945  24648098.546    24648108.802
       204.000         139.000
  21290847.285   -14129206.67449 -10997002.61447  21290846.444    21290853.137
       235.000         194.000
 03  4 28 16 43 30.0000000  0  8G24G30G 6G 4G 5G17G 9G10
  21714808.236     6030389.62949   4612285.84047  21714808.081    21714814.650
       236.000         192.000
  20894781.829   -10928180.03949  -8500647.33947  20894782.053    20894786.857
       242.000         203.000
  23306919.120    -9609353.90349  -7480925.87645  23306918.766    23306924.522
       217.000         162.000
  24449119.909    13379261.68249  10414237.77945  24449120.596    24449127.591
       206.000         142.000
  20335152.651    -4835414.13849  -3759414.67847  20335152.127    20335157.585
       244.000         211.000
  24803014.017    -3423203.43749  -2649214.21344  24803012.252    24803024.003
       206.000         129.000
  24665219.270    12180148.33849   9482113.45545  24665219.124    24665228.955
       205.000         140.000
  21279732.766   -14187613.76549 -11042514.60447  21279731.728    21279738.622
       235.000         194.000
 03  4 28 16 44  0.0000000  0  8G24G30G 6G 4G 5G17G 9G10
  21727966.268     6099535.37049   4666165.59547  21727965.912    21727972.261
       235.000         192.000
  20884743.790   -10980930.41149  -8541751.52547  20884744.162    20884748.638
       242.000         204.000
  23293995.971    -9677265.00449  -7533843.57545  23293995.642    23294001.914
       214.000         161.000
  24467901.196    13477957.48249  10491143.49145  24467901.604    24467909.322
       208.000         143.000
  20337894.023    -4821008.33449  -3748189.40947  20337893.549    20337898.930
       244.000         211.000
  24786438.276    -3510309.61949  -2717089.11944  24786438.436    24786446.705
       203.000         130.000
  24682323.468    12270030.43449   9552151.20745  24682323.663    24682333.918
       206.000         140.000
  21268715.450   -14245509.84649 -11087628.40247  21268714.655    21268721.318
       236.000         194.000
 03  4 28 16 44 30.0000000  0  8G24G30G 6G 4G 5G17G 9G10
  21741160.601     6168871.86149   4720193.99147  21741160.468    21741166.626
       235.000         191.000
  20874795.328   -11033209.97349  -8582488.84747  20874795.670    20874800.359
       242.000         204.000
  23281075.367    -9745162.89049  -7586750.98345  23281075.517    23281081.716
       216.000         161.000
  24486676.898    13576623.86449  10568026.29045  24486677.246    24486684.436
       211.000         143.000
  20340739.353    -4806056.08849  -3736538.34147  20340738.790    20340744.248
       244.000         211.000
  24769891.103    -3597265.53549  -2784846.93044  24769890.372    24769900.585
       204.000         128.000
  24699410.692    12359823.42149   9622119.51245  24699411.773    24699420.697
       209.000         140.000
  21257795.596   -14302893.89649 -11132343.21947  21257794.595    21257801.392
       235.000         194.000
 03  4 28 16 45  0.0000000  0  8G24G30G 6G 4G 5G17G 9G10
  21754390.867     6238397.21249   4774369.53847  21754390.998    21754396.985
       236.000         191.000
  20864936.891   -11085016.57049  -8622857.62947  20864937.205    20864941.871
       242.000         204.000
  23268157.406    -9813047.04849  -7639647.70245  23268156.800    23268163.453
       217.000         162.000
  24505446.772    13675259.60949  10644885.23245  24505447.582    24505455.118
       210.000         143.000
  20343688.741    -4790557.16049  -3724461.29547  20343688.268    20343693.624
       245.000         211.000
  24753372.653    -3684070.19049  -2852486.89044  24753371.747    24753380.843
       206.000         128.000
  24716480.491    12449524.67649   9692016.39545  24716479.797    24716491.578
       211.000         138.000
  21246973.749   -14359762.96249 -11176656.75647  21246972.777    21246979.870
       237.000         194.000
 03  4 28 16 45 30.0000000  0  8G24G30G 6G 4G 5G17G 9G10
  21767656.786     6308110.01049   4828691.16047  21767656.575    21767662.950
       236.000         191.000
  20855168.928   -11136347.33549  -8662855.62847  20855168.887    20855173.726
       242.000         204.000
  23255242.249    -9880916.38649  -7692532.86645  23255242.101    23255248.882
       216.000         162.000
  24524210.598    13773863.81549  10721719.59145  24524210.392    24524218.875
       209.000         142.000
  20346742.242    -4774510.94649  -3711957.78347  20346741.864    20346747.199
       245.000         211.000
  24736883.382    -3770721.81449  -2920007.60044  24736883.852    24736891.399
       207.000         130.000
  24733532.498    12539132.47849   9761840.46245  24733532.592    24733542.402
       214.000         138.000
  21236250.477   -14416114.06449 -11220566.67747  21236249.500    21236256.523
       238.000         195.000
 03  4 28 16 46  0.0000000  0  8G24G30G 6G 4G 5G17G 9G10
  21780957.920     6378007.89349   4883156.99447  21780958.096    21780964.309
       235.000         191.000
  20845491.902   -11187200.41549  -8702481.41247  20845492.096    20845496.942
       242.000         204.000
  23242329.934    -9948770.83649  -7745406.42745  23242329.560    23242336.269
       217.000         162.000
  24542968.005    13872434.47149  10798527.79045  24542968.137    24542976.022
       205.000         139.000
  20349899.835    -4757917.88949  -3699028.16747  20349899.428    20349904.822
       245.000         211.000
  24720423.343    -3857219.65049  -2987408.48644  24720422.877    24720432.373
       206.000         131.000
  24750566.181    12628643.91149   9831589.40445  24750566.050    24750576.385
       214.000         138.000
  21225626.130   -14471945.32549 -11264071.53447  21225625.185    21225632.039
       237.000         196.000
 03  4 28 16 46 30.0000000  0  8G24G30G 6G 4G 5G17G 9G10
  21794293.696     6448087.65049   4937764.55447  21794293.465    21794300.088
       235.000         191.000
  20835906.018   -11237574.73849  -8741734.12947  20835906.292    20835910.808
       242.000         204.000
  23229420.419   -10016611.04849  -7798268.89346  23229419.717    23229426.396
       218.000         163.000
  24561718.589    13970969.40749  10875308.16945  24561718.716    24561727.365
       205.000         139.000
  20353161.268    -4740779.12049  -3685673.31247  20353160.780    20353166.180
       244.000         211.000
  24703992.477    -3943564.18649  -3054689.92245  24703991.343    24704000.739
       203.000         132.000
  24767580.798    12718055.60949   9901260.61945  24767581.550    24767591.169
       214.000         138.000
  21215101.040   -14527255.13249 -11307170.05847  21215100.042    21215106.771
       237.000         196.000
 03  4 28 16 47  0.0000000  0  8G24G30G 6G 4G 5G17G 9G10
  21807663.990     6518348.94549   4992513.56847  21807664.058    21807670.245
       236.000         191.000
  20826411.981   -11287466.50449  -8780610.83447  20826412.165    20826416.882
       242.000         204.000
  23216514.029   -10084434.91949  -7851118.64546  23216514.132    23216519.840
       219.000         164.000
  24580462.544    14069468.87649  10952060.90545  24580462.160    24580470.919
       207.000         139.000
  20356526.887    -4723092.89949  -3671891.88247  20356526.370    20356531.737
       244.000         210.000
  24687591.297    -4029752.55549  -3121849.66644  24687591.196    24687599.576
       199.000         130.000
  24784576.347    12807366.72849   9970853.47445  24784577.354    24784586.813
       214.000         138.000
  21204675.953   -14582039.24949 -11349858.95947  21204675.179    21204682.004
       237.000         196.000
 03  4 28 16 47 30.0000000  0  8G24G30G 6G 4G 5G17G 9G10
  21821068.108     6588787.81249   5047400.94647  21821068.409    21821074.575
       235.000         191.000
  20817009.757   -11336875.48449  -8819111.34047  20817009.864    20817014.770
       241.000         204.000
  23203610.403   -10152243.96849  -7903956.83546  23203610.735    23203615.991
       218.000         164.000
  24599199.088    14167929.50649  11028783.39845  24599199.399    24599207.370
       209.000         139.000
  20359996.294    -4704861.12249  -3657685.33947  20359995.778    20360001.447
       244.000         210.000
  24671219.780    -4115785.55049  -3188888.32844  24671219.710    24671227.058
       198.000         129.000
  24801551.913    12896572.71049  10040364.41545  24801552.772    24801562.715
       216.000         137.000
  21194350.975   -14636297.26249 -11392137.90847  21194350.027    21194356.992
       236.000         196.000
 03  4 28 16 48  0.0000000  0  8G24G30G 6G 4G 5G17G 9G10
  21834505.862     6659403.25549   5102425.92347  21834505.556    21834512.104
       236.000         190.000
  20807699.968   -11385798.54249  -8857233.20547  20807700.259    20807705.054
       242.000         204.000
  23190709.849   -10220036.69149  -7956782.30446  23190709.406    23190715.997
       218.000         164.000
  24617928.071    14266350.70049  11105475.14745  24617928.603    24617936.782
       209.000         140.000
  20363569.691    -4686082.99749  -3643053.07347  20363569.214    20363574.847
       245.000         210.000
  24654878.064    -4201661.28349  -3255804.42944  24654876.824    24654887.344
       201.000         130.000
  24818507.126    12985672.12349  10109792.29145  24818508.044    24818517.637
       216.000         138.000
  21184126.743   -14690025.76249 -11434004.24547  21184126.025    21184132.361
       237.000         195.000
 03  4 28 16 48 30.0000000  0  8G24G30G 6G 4G 5G17G 9G10
  21847976.744     6730193.13849   5157586.81947  21847976.461    21847983.320
       235.000         190.000
  20798483.018   -11434233.95349  -8894975.09047  20798483.380    20798488.013
       242.000         205.000
  23177812.423   -10287812.89049  -8009594.89646  23177812.035    23177818.097
       219.000         165.000
  24636649.329    14364731.05549  11182135.09645  24636648.963    24636657.582
       210.000         139.000
  20367247.012    -4666758.80149  -3627995.30147  20367246.409    20367252.061
       244.000         210.000
  24638566.594    -4287378.60349  -3322597.10544  24638565.116    24638575.898
       198.000         131.000
  24835441.658    13074662.40449  10179135.11845  24835441.102    24835453.505
       214.000         138.000
  21174003.758   -14743222.33149 -11475456.10447  21174003.353    21174009.667
       237.000         196.000
 03  4 28 16 49  0.0000000  0  8G24G30G 6G 4G 5G17G 9G10
  21861480.535     6801155.85349   5212882.38347  21861480.642    21861486.479
       235.000         190.000
  20789359.383   -11482179.19449  -8932335.02647  20789359.646    20789364.227
       242.000         205.000
  23164918.250   -10355572.10049  -8062394.26146  23164917.541    23164924.377
       219.000         165.000
  24655362.507    14463069.30849  11258762.21845  24655362.428    24655370.212
       208.000         138.000
  20371028.241    -4646888.41049  -3612511.92547  20371027.841    20371033.275
       244.000         210.000
  24622285.464    -4372936.60849  -3389265.64744  24622283.838    24622294.116
       197.000         130.000
  24852354.932    13163541.21349  10248391.06745  24852355.482    24852365.062
       214.000         139.000
  21163982.445   -14795884.78149 -11516491.76347  21163981.650    21163988.233
       237.000         196.000
 03  4 28 16 49 30.0000000  0  8G24G30G 6G 4G 5G17G 9G10
  21875016.711     6872288.57149   5268310.42347  21875016.811    21875023.166
       235.000         189.000
  20780329.161   -11529633.38049  -8969312.31247  20780329.447    20780333.891
       242.000         205.000
  23152027.217   -10423314.68649  -8115180.65846  23152026.586    23152033.580
       217.000         164.000
  24674067.223    14561362.98949  11335354.62945  24674067.229    24674074.632
       206.000         136.000
  20374913.179    -4626472.94249  -3596603.80947  20374912.821    20374918.204
       244.000         210.000
  24606034.581    -4458335.37848  -3455810.09444  24606032.388    24606044.144
       193.000         128.000
  24869246.391    13252305.23249  10317557.57045  24869245.250    24869257.540
       213.000         142.000
  21154063.014   -14848011.61249 -11557110.05347  21154062.237    21154068.740
       237.000         196.000
 03  4 28 16 50  0.0000000  0  8G24G30G 6G 4G 5G17G 9G10
  21888584.899     6943589.73549   5323869.71447  21888584.668    21888591.240
       235.000         189.000
  20771392.899   -11576593.55949  -9005904.66647  20771392.934    20771397.898
       242.000         205.000
  23139139.574   -10491039.44449  -8167953.16746  23139139.047    23139145.225
       217.000         163.000
  24692763.394    14659611.74649  11411912.01545  24692762.886    24692771.750
       205.000         135.000
  20378902.000    -4605511.88149  -3580270.55547  20378901.620    20378907.104
       244.000         210.000
  24589814.121    -4543573.32748  -3522229.24544  24589812.447    24589823.653
       192.000         128.000
  24886115.616    13340952.67049  10386633.23645  24886117.210    24886125.544
       211.000         142.000
  21144246.155   -14899599.56249 -11597308.43947  21144245.144    21144251.902
       237.000         197.000
 03  4 28 16 50 30.0000000  0  8G24G30G 6G 4G 5G17G 9G10
  21902184.752     7015057.35249   5379558.71047  21902184.813    21902191.417
       235.000         189.000
  20762551.081   -11623057.72349  -9042110.51347  20762551.095    20762556.113
       242.000         205.000
  23126255.475   -10558745.88649  -8220711.40746  23126255.407    23126261.277
       219.000         165.000
  24711450.765    14757814.29549  11488433.39145  24711451.468    24711459.344
       206.000         134.000
  20382994.609    -4584005.29749  -3563512.21647  20382994.117    20382999.667
       244.000         210.000
  24573624.732    -4628648.98849  -3588521.89545  24573623.235    24573634.200
       197.000         132.000
  24902962.241    13429481.32349  10455616.34345  24902963.027    24902972.232
       209.000         141.000
  21134532.208   -14950646.56149 -11637085.30247  21134531.208    21134538.114
       237.000         197.000
 03  4 28 16 51  0.0000000  0  8G24G30G 6G 4G 5G17G 9G10
  21915815.854     7086689.00649   5435375.53147  21915815.657    21915822.477
       234.000         189.000
  20753803.913   -11669024.32649  -9077928.65447  20753804.260    20753808.891
       242.000         205.000
  23113374.848   -10626434.16249  -8273455.48546  23113374.344    23113381.004
       219.000         165.000
  24730128.994    14855968.48449  11564917.07845  24730128.418    24730138.178
       205.000         134.000
  20387190.865    -4561953.94249  -3546329.38147  20387190.312    20387195.925
       244.000         210.000
  24557466.121    -4713562.70049  -3654688.35745  24557464.361    24557476.146
       199.000         134.000
  24919785.674    13517887.86749  10524504.28045  24919786.960    24919795.914
       208.000         140.000
  21124921.526   -15001150.88749 -11676439.29747  21124920.612    21124927.121
       238.000         197.000
 03  4 28 16 51 30.0000000  0  8G24G30G 6G 4G 5G17G 9G10
  21929477.823     7158482.85549   5491318.73847  21929478.098    21929484.071
       235.000         188.000
  20745151.845   -11714491.52549  -9113357.64947  20745152.250    20745156.818
       243.000         206.000
  23100497.713   -10694103.85349  -8326185.08846  23100497.149    23100503.961
       220.000         164.000
  24748797.658    14954073.00949  11641362.08745  24748799.403    24748804.679
       204.000         132.000
  20391490.737    -4539358.13649  -3528722.29647  20391490.175    20391495.723
       244.000         210.000
  24541338.681    -4798313.03149  -3720727.53945  24541337.566    24541347.261
       201.000         136.000
  24936585.350    13606169.83849  10593295.13845  24936585.111    24936597.384
       207.000         139.000
  21115414.612   -15051110.07149 -11715368.51347  21115414.133    21115420.409
       238.000         197.000
 03  4 28 16 52  0.0000000  0  8G24G30G 6G 4G 5G17G 9G10
  21943170.361     7230437.29449   5547387.07647  21943170.249    21943177.088
       234.000         188.000
  20736595.246   -11759456.73049  -9148395.48347  20736595.364    20736600.325
       242.000         206.000
  23087624.326   -10761753.92749  -8378899.39946  23087624.450    23087629.918
       219.000         164.000
  24767456.768    15052127.06649  11717767.79244  24767455.068    24767465.637
       205.000         131.000
  20395894.217    -4516217.91749  -3510690.99647  20395893.797    20395899.151
       244.000         210.000
  24525242.503    -4882898.87749  -3786638.52645  24525241.948    24525251.142
       200.000         136.000
  24953361.038    13694325.65449  10661987.69645  24953360.838    24953373.488
       208.000         140.000
  21106011.911   -15100521.59349 -11753870.98747  21106010.993    21106017.717
       238.000         198.000
 03  4 28 16 52 30.0000000  0  8G24G30G 6G 4G 5G17G 9G10
  21956892.897     7302549.57849   5603578.40947  21956892.470    21956898.716
       234.000         188.000
  20728134.402   -11803918.75949  -9183041.22847  20728134.501    20728139.284
       243.000         206.000
  23074754.588   -10829384.58249  -8431598.60246  23074754.870    23074760.436
       221.000         164.000
  24786105.950    15150128.55749  11794132.51844  24786106.895    24786114.529
       207.000         131.000
  20400401.077    -4492534.32649  -3492236.27947  20400400.517    20400405.898
       245.000         210.000
  24509177.694    -4967319.78549  -3852420.99145  24509177.450    24509187.104
       200.000         138.000
  24970112.072    13782352.09949  10730579.43445  24970112.101    24970124.413
       208.000         141.000
  21096713.731   -15149383.97749 -11791945.55447  21096713.019    21096719.123
       239.000         198.000
 03  4 28 16 53  0.0000000  0  7G24G30G 6G 5G17G 9G10
  21970645.119     7374817.82749   5659891.26847  21970644.999    21970651.267
       234.000         188.000
  20719769.693   -11847875.50549  -9217293.25047  20719770.022    20719774.556
       243.000         206.000
  23061888.672   -10896995.32049  -8484282.26846  23061888.767    23061894.152
       221.000         165.000
  20405011.341    -4468307.43949  -3473358.22147  20405010.905    20405016.467
       244.000         210.000
  24493144.574    -5051574.46849  -3918073.94145  24493143.829    24493154.062
       205.000         140.000
  24986838.062    13870246.77949  10799068.49845  24986839.531    24986849.668
       205.000         140.000
  21087520.417   -15197695.13849 -11829590.59347  21087519.554    21087526.008
       238.000         198.000
 03  4 28 16 53 30.0000000  0  7G24G30G 6G 5G17G 9G10
  21984426.678     7447240.11449   5716324.16246  21984426.398    21984433.165
       234.000         187.000
  20711501.493   -11891325.34049  -9251150.27347  20711501.716    20711506.677
       243.000         206.000
  23049026.651   -10964585.67649  -8536950.04846  23049026.561    23049032.435
       221.000         166.000
  20409724.921    -4443537.60049  -3454057.08147  20409724.512    20409730.034
       244.000         210.000
  24477143.160    -5135662.77449  -3983597.24445  24477143.007    24477151.334
       205.000         143.000
  25003538.493    13958007.22049  10867452.96445  25003539.230    25003550.475
       205.000         137.000
  21078432.441   -15245452.75849 -11866804.30147  21078431.555    21078437.853
       238.000         198.000
 03  4 28 16 54  0.0000000  0  7G24G30G 6G 5G17G 9G10
  21998237.141     7519814.50349   5772875.58346  21998237.267    21998243.805
       234.000         187.000
  20703330.206   -11934265.85449  -9284610.42047  20703330.662    20703335.175
       243.000         206.000
  23036168.732   -11032154.84949  -8589601.34146  23036168.552    23036173.599
       222.000         167.000
  20414541.762    -4418225.16849  -3434333.14447  20414541.367    20414546.776
       244.000         210.000
  24461173.612    -5219583.26749  -4048989.77845  24461172.882    24461182.549
       206.000         143.000
  25020213.003    14045631.22649  10935731.10145  25020212.967    25020223.716
       204.000         135.000
  21069450.235   -15292654.62149 -11903584.94947  21069449.294    21069455.968
       238.000         198.000
 03  4 28 16 54 30.0000000  0  7G24G30G 6G 5G17G 9G10
  22012076.363     7592539.83949   5829544.61346  22012076.527    22012083.038
       233.000         187.000
  20695256.281   -11976694.75549  -9317671.91747  20695256.592    20695261.470
       242.000         206.000
  23023314.917   -11099702.06949  -8642235.51346  23023314.231    23023320.870
       220.000         167.000
  20419461.863    -4392369.98949  -3414186.29047  20419461.471    20419466.919
       244.000         210.000
  24445236.224    -5303334.78749  -4114250.65245  24445235.376    24445245.472
       205.000         143.000
  25036861.187    14133116.94149  11003901.49145  25036861.941    25036871.340
       203.000         135.000
  21060574.256   -15339298.02449 -11939930.44347  21060573.368    21060580.036
       238.000         198.000
 03  4 28 16 55  0.0000000  0  7G24G30G 6G 5G17G 9G10
  22025943.691     7665412.73749   5886328.63546  22025943.666    22025950.445
       234.000         187.000
  20687279.831   -12018611.28849  -9350334.16247  20687280.104    20687284.955
       243.000         207.000
  23010465.150   -11167227.83049  -8694852.97046  23010464.527    23010471.464
       221.000         168.000
  20424484.967    -4365973.47449  -3393617.61347  20424484.434    20424490.057
       244.000         210.000
  24429330.999    -5386917.30649  -4179379.84545  24429330.756    24429339.860
       206.000         142.000
  25053482.404    14220460.82049  11071961.35145  25053483.334    25053492.411
       206.000         136.000
  21051804.796   -15385381.89049 -11975839.92847  21051803.929    21051810.483
       239.000         198.000
 03  4 28 16 55 30.0000000  0  7G24G30G 6G 5G17G 9G10
  22039838.990     7738432.65549   5943227.21346  22039839.077    22039845.710
       233.000         187.000
  20679401.403   -12060012.73049  -9382595.03547  20679401.618    20679406.204
       243.000         207.000
  22997619.762   -11234730.69849  -8747452.57846  22997619.829    22997625.964
       220.000         169.000
  20429611.147    -4339035.34249  -3372626.90247  20429610.675    20429616.202
       244.000         210.000
  24413458.173    -5470329.34849  -4244376.18345  24413457.555    24413466.781
       204.000         141.000
  25070076.323    14307661.41749  11139909.58045  25070076.847    25070089.217
       202.000         134.000
  21043142.314   -15430903.33149 -12011311.15947  21043141.456    21043148.034
       238.000         198.000
 03  4 28 16 56  0.0000000  0  7G24G30G 6G 5G17G 9G10
  22053761.759     7811597.10249   6000238.41946  22053761.828    22053767.637
       226.000         186.000
  20671621.294   -12100897.48149  -9414453.29147  20671621.704    20671626.312
       243.000         207.000
  22984778.776   -11302210.47949  -8800034.19446  22984778.609    22984784.612
       220.000         170.000
  20434840.260    -4311556.22749  -3351214.64547  20434839.835    20434845.352
       245.000         210.000
  24397617.909    -5553570.35549  -4309239.26745  24397617.571    24397625.759
       207.000         140.000
  25086642.408    14394715.79349  11207743.83745  25086642.809    25086654.285
       202.000         134.000
  21034587.186   -15475860.75149 -12046342.88747  21034586.279    21034592.900
       238.000         199.000
 03  4 28 16 56 30.0000000  0  6G24G30G 6G 5G17G10
  22067712.632     7884909.29749   6057364.74746  22067712.820    22067719.180
       233.000         186.000
  20663940.860   -12141258.48749  -9445903.43647  20663941.261    20663945.828
       243.000         207.000
  22971943.259   -11369661.38549  -8852593.31546  22971942.845    22971949.551
       221.000         169.000
  20440173.253    -4283531.44049  -3329377.19347  20440172.813    20440178.360
       245.000         210.000
  24381811.426    -5636633.91749  -4373964.06245  24381810.414    24381820.042
       206.000         141.000
  21026140.784   -15520246.92649 -12080929.49747  21026139.866    21026146.666
       239.000         199.000
 03  4 28 16 57  0.0000000  0  6G24G30G 6G 5G17G10
  22081690.024     7958360.68649   6114599.54846  22081689.924    22081696.271
       233.000         186.000
  20656359.129   -12181100.74149  -9476949.34947  20656359.300    20656364.077
       244.000         207.000
  22959112.012   -11437089.72249  -8905134.84046  22959111.998    22959118.072
       221.000         168.000
  20445608.643    -4254968.34349  -3307120.27547  20445607.960    20445613.493
       245.000         210.000
  24366037.526    -5719525.99849  -4438555.24645  24366035.784    24366045.840
       204.000         141.000
  21017802.163   -15564066.50349 -12115074.60147  21017800.989    21017807.583
       240.000         199.000
 03  4 28 16 57 30.0000000  0  6G24G30G 6G 5G17G10
  22095693.325     8031948.21549   6171940.42946  22095693.410    22095699.807
       233.000         186.000
  20648876.242   -12220423.66949  -9507590.59747  20648876.300    20648881.087
       243.000         207.000
  22946284.993   -11504496.10149  -8957659.28846  22946284.957    22946290.816
       221.000         170.000
  20451146.183    -4225868.64549  -3284445.22747  20451145.607    20451151.103
       244.000         210.000
  24350296.105    -5802247.45849  -4503013.44545  24350295.721    24350305.389
       205.000         140.000
  21009571.514   -15607318.81149 -12148777.67147  21009570.427    21009577.242
       238.000         199.000
 03  4 28 16 58  0.0000000  0  6G24G30G 6G 5G17G10
  22109722.417     8105671.49749   6229387.07946  22109722.228    22109728.592
       232.000         185.000
  20641492.823   -12259223.67549  -9537824.38247  20641493.252    20641497.862
       243.000         207.000
  22933462.637   -11571878.14249  -9010164.75046  22933462.025    22933468.353
       221.000         170.000
  20456786.031    -4196231.17349  -3261351.14547  20456785.812    20456791.169
       244.000         210.000
  24334587.789    -5884795.65949  -4567336.65045  24334586.776    24334596.792
       209.000         141.000
  21001449.505   -15650000.24949 -12182035.91547  21001448.360    21001455.263
       239.000         199.000
 03  4 28 16 58 30.0000000  0  6G24G30G 6G 5G17G10
  22123777.060     8179528.81549   6286938.19046  22123776.948    22123783.922
       231.000         185.000
  20634209.278   -12297499.17649  -9567649.45747  20634209.404    20634214.124
       243.000         207.000
  22920644.917   -11639235.37349  -9062650.86546  22920644.188    22920650.737
       221.000         169.000
  20462528.103    -4166056.53749  -3237838.48747  20462527.677    20462533.331
       244.000         210.000
  24318912.533    -5967169.48949  -4631523.99145  24318911.648    24318919.617
       208.000         142.000
  20993436.459   -15692108.86449 -12214847.79547  20993435.417    20993442.083
       238.000         199.000
 03  4 28 16 59  0.0000000  0  6G24G30G 6G 5G17G10
  22137856.873     8253518.57949   6344592.49446  22137856.851    22137863.311
       231.000         185.000
  20627025.936   -12335247.97849  -9597064.11847  20627026.197    20627030.891
       243.000         207.000
  22907832.119   -11706567.03349  -9115117.07946  22907832.108    22907837.495
       223.000         170.000
  20468372.351    -4135345.11749  -3213907.56147  20468371.891    20468377.467
       244.000         210.000
  24303270.620    -6049368.07049  -4695574.75445  24303270.216    24303279.145
       206.000         141.000
  20985532.878   -15733642.42649 -12247211.58447  20985531.719    20985538.437
       239.000         199.000
 03  4 28 16 59 30.0000000  0  6G24G30G 6G 5G17G10
  22151961.538     8327638.78149   6402348.45046  22151960.917    22151967.596
       231.000         184.000
  20619943.122   -12372468.50449  -9626067.13347  20619943.270    20619948.025
       243.000         207.000
  22895024.278   -11773872.74849  -9167563.07246  22895024.045    22895030.588
       223.000         171.000
  20474318.589    -4104097.53249  -3189558.84147  20474318.005    20474323.716
       244.000         209.000
  24287662.146    -6131390.79949  -4759488.47445  24287661.732    24287669.865
       208.000         143.000
  20977739.006   -15774599.45949 -12279126.12447  20977738.044    20977744.819
       238.000         199.000
 03  4 28 17  0  0.0000000  0  6G24G30G 6G 5G17G10
  22166090.657     8401887.60949   6460204.61846  22166090.735    22166097.228
       231.000         184.000
  20612961.093   -12409159.20149  -9654657.30247  20612961.494    20612966.326
       243.000         208.000
  22882221.467   -11841152.01649  -9219988.45146  22882220.928    22882227.816
       223.000         170.000
  20480366.716    -4072314.53149  -3164792.91647  20480366.138    20480371.943
       244.000         209.000
  24272087.369    -6213236.74649  -4823264.45845  24272086.674    24272095.282
       210.000         143.000
  20970055.217   -15814977.97549 -12310589.88047  20970054.633    20970060.879
       240.000         200.000
 03  4 28 17  0 30.0000000  0  6G24G30G 6G 5G17G10
  22180243.977     8476263.57449   6518159.86546  22180243.517    22180250.831
       231.000         184.000
  20606080.393   -12445317.57649  -9682832.66647  20606080.777    20606085.508
       243.000         208.000
  22869423.938   -11908403.28449  -9272392.01846  22869423.298    22869429.164
       223.000         170.000
  20486516.796    -4039995.98549  -3139609.67847  20486516.410    20486522.077
       244.000         209.000
  24256546.454    -6294904.53749  -4886901.60045  24256545.703    24256554.408
       207.000         143.000
  20962481.994   -15854775.44449 -12341600.86647  20962481.186    20962487.575
       238.000         200.000
 03  4 28 17  1  0.0000000  0  6G24G30G 6G 5G17G10
  22194421.108     8550764.69649   6576212.63646  22194420.972    22194427.230
       231.000         183.000
  20599301.251   -12480942.39349  -9710592.28047  20599301.690    20599306.253
       244.000         208.000
  22856631.820   -11975626.46049  -9324773.71646  22856631.963    22856637.778
       224.000         171.000
  20492768.521    -4007143.13949  -3114010.11447  20492768.102    20492773.936
       244.000         209.000
  24241039.386    -6376393.78149  -4950399.59645  24241038.578    24241047.560
       208.000         142.000
  20955019.618   -15893990.51149 -12372158.04547  20955018.692    20955025.096
       239.000         199.000
 03  4 28 17  1 30.0000000  0  6G24G30G 6G 5G17G10
  22208621.748     8625389.26449   6634361.60446  22208621.451    22208629.059
       230.000         183.000
  20592623.957   -12516031.86949  -9737934.73847  20592624.173    20592628.872
       243.000         208.000
  22843845.189   -12042820.74649  -9377132.89046  22843845.215    22843850.834
       223.000         171.000
  20499121.830    -3973756.39349  -3087994.51747  20499121.214    20499127.127
       243.000         209.000
  24225566.585    -6457703.52249  -5013757.73445  24225564.910    24225575.301
       210.000         142.000
  20947668.393   -15932621.26249 -12402259.90147  20947667.392    20947673.932
       238.000         199.000
 03  4 28 17  2  0.0000000  0  6G24G30G 6G 5G17G10
  22222845.401     8700135.00549   6692604.98846  22222845.015    22222851.640
       231.000         183.000
  20586048.718   -12550584.85349  -9764859.15847  20586049.065    20586053.836
       244.000         208.000
  22831063.949   -12109986.09849  -9429469.53746  22831063.624    22831069.612
       223.000         171.000
  20505576.486    -3939837.06549  -3061563.92347  20505576.045    20505581.884
       244.000         209.000
  24210127.953    -6538833.80849  -5076976.04445  24210126.948    24210136.223
       208.000         142.000
  20940428.578   -15970666.61549 -12431905.60747  20940427.704    20940434.293
       239.000         199.000
 03  4 28 17  2 30.0000000  0  6G24G30G 6G 5G17G10
  22237091.766     8774999.95449   6750941.26846  22237091.632    22237098.238
       230.000         183.000
  20579575.918   -12584599.76149  -9791364.28947  20579576.096    20579581.135
       243.000         208.000
  22818288.448   -12177121.73249  -9481782.99446  22818288.538    22818294.318
       222.000         171.000
  20512132.382    -3905385.87249  -3034718.88647  20512131.937    20512137.763
       243.000         209.000
  24194723.688    -6619783.48049  -5140053.58445  24194723.461    24194732.193
       207.000         142.000
  20933300.514   -16008124.78249 -12461093.76747  20933299.688    20933306.407
       238.000         200.000
 03  4 28 17  3  0.0000000  0  7G24G30G 6G 5G17G21G10
  22251358.972     8849974.39149   6809362.85846  22251358.785    22251365.096
       230.000         183.000
  20573204.383   -12618082.58749  -9817454.81547  20573204.607    20573209.563
       244.000         208.000
  22805517.264   -12244234.75849  -9534078.82446  22805516.599    22805522.097
       221.000         171.000
  20518787.842    -3870411.35649  -3007466.06447  20518787.269    20518793.191
       244.000         209.000
  24179352.356    -6700559.66449  -5202995.94445  24179351.633    24179359.783
       207.000         141.000
  24914308.699    -4819726.14659  -1755046.46944  24914308.283    24914317.212
       199.000         123.000
  20926283.016   -16045001.78149 -12489829.06947  20926282.206    20926288.600
       239.000         200.000
 03  4 28 17  3 30.0000000  0  7G24G30G 6G 5G17G21G10
  22265648.709     8925067.28449   6867876.75546  22265648.542    22265655.498
       230.000         182.000
  20566936.469   -12651020.94149  -9843121.07947  20566936.966    20566941.625
       244.000         208.000
  22792752.512   -12311313.64049  -9586348.05546  22792751.976    22792758.979
       223.000         171.000
  20525544.791    -3834903.41149  -2979797.59047  20525544.381    20525550.165
       244.000         209.000
  24164016.312    -6781150.55249  -5265793.92645  24164016.140    24164023.982
       205.000         140.000
  24897553.950    -4907772.50949  -1823653.99244  24897552.073    24897560.472
       199.000         123.000
  20919378.556   -16081284.87049 -12518101.59047  20919377.686    20919384.162
       239.000         200.000
 03  4 28 17  4  0.0000000  0  7G24G30G 6G 5G17G21G10
  22279960.530     9000276.31549   6926481.14546  22279960.514    22279967.583
       230.000         182.000
  20560772.187   -12683414.32849  -9868362.69247  20560772.423    20560777.095
       244.000         208.000
  22779994.206   -12378358.88349  -9638591.07846  22779994.068    22780000.251
       222.000         172.000
  20532402.926    -3798863.95849  -2951714.94947  20532402.553    20532408.281
       244.000         209.000
  24148715.402    -6861556.94349  -5328448.15645  24148714.673    24148723.539
       208.000         140.000
  24880826.846    -4995673.81049  -1892148.42944  24880826.442    24880832.143
       199.000         123.000
  20912587.266   -16116973.34949 -12545910.77847  20912586.218    20912592.666
       239.000         200.000
 03  4 28 17  4 30.0000000  0  7G24G30G 6G 5G17G21G10
  22294293.973     9075598.89049   6985174.01146  22294293.862    22294300.034
       229.000         182.000
  20554711.806   -12715261.89349  -9893178.99347  20554712.029    20554716.783
       243.000         208.000
  22767242.279   -12445370.58049  -9690807.96846  22767241.946    22767247.450
       220.000         171.000
  20539361.865    -3762294.61649  -2923219.40847  20539361.336    20539367.157
       242.000         209.000
  24133449.629    -6941778.75049  -5390958.55045  24133447.832    24133457.346
       205.000         140.000
  24864127.359    -5083430.20349  -1960529.99844  24864128.452    24864133.407
       199.000         121.000
  20905909.174   -16152066.89049 -12573256.38447  20905908.431    20905915.033
       239.000         200.000
 03  4 28 17  5  0.0000000  0  7G24G30G 6G 5G17G21G10
  22308648.538     9151032.57449   7043953.45246  22308648.284    22308655.023
       230.000         181.000
  20548755.471   -12746562.77449  -9917569.30247  20548755.722    20548760.560
       244.000         209.000
  22754496.692   -12512348.61649  -9742998.62246  22754496.420    22754502.953
       223.000         172.000
  20546421.399    -3725196.82149  -2894312.09047  20546420.969    20546426.867
       243.000         209.000
  24118218.957    -7021815.71549  -5453324.92145  24118218.255    24118226.966
       205.000         141.000
  24847455.424    -5171041.57949  -2028798.57844  24847457.023    24847463.397
       201.000         122.000
  20899344.491   -16186564.49649 -12600137.62547  20899343.695    20899350.005
       240.000         200.000
 03  4 28 17  5 30.0000000  0  7G24G30G 6G 5G17G21G10
  22323023.888     9226575.38649   7102817.92846  22323024.082    22323030.583
       231.000         181.000
  20542903.465   -12777315.36549  -9941532.37147  20542903.684    20542908.591
       245.000         209.000
  22741757.778   -12579292.23149  -9795162.46346  22741757.999    22741764.185
       226.000         173.000
  20553581.317    -3687571.39849  -2864993.63247  20553580.852    20553586.780
       244.000         209.000
  24103023.625    -7101667.30649  -5515546.83645  24103023.004    24103032.114
       206.000         141.000
  24830811.250    -5258506.97149  -2096953.35744  24830810.178    24830818.553
       204.000         124.000
  20892893.563   -16220464.30149 -12626553.04747  20892892.551    20892899.400
       240.000         200.000
 03  4 28 17  6  0.0000000  0  7G24G30G 6G 5G17G21G10
  22337419.525     9302224.69649   7161765.39446  22337419.456    22337426.408
       228.000         180.000
  20537155.910   -12807519.06349  -9965067.73947  20537156.123    20537161.030
       243.000         209.000
  22729025.336   -12646201.57449  -9847299.59746  22729025.393    22729030.946
       224.000         174.000
  20560841.296    -3649420.16449  -2835265.45347  20560840.956    20560846.693
       242.000         209.000
  24087863.549    -7181333.51249  -5577624.33945  24087862.350    24087872.419
       206.000         142.000
  24814194.926    -5345826.32349  -2164994.39544  24814195.350    24814201.908
       205.000         125.000
  20886556.531   -16253765.50749 -12652502.02647  20886555.419    20886562.174
       238.000         200.000
 03  4 28 17  6 30.0000000  0  7G24G30G 6G 5G17G21G10
  22351835.102     9377978.88849   7220794.57846  22351835.037    22351842.169
       228.000         180.000
  20531513.037   -12837172.55149  -9988174.37247  20531513.399    20531518.111
       243.000         209.000
  22716299.585   -12713075.93349  -9899409.48046  22716299.053    22716305.302
       224.000         174.000
  20568201.199    -3610744.03449  -2805128.27147  20568200.741    20568206.596
       242.000         209.000
  24072738.887    -7260813.64249  -5639556.81845  24072737.491    24072747.107
       206.000         142.000
  24797606.597    -5432998.79149  -2232920.95044  24797605.285    24797613.951
       206.000         127.000
  20880333.651   -16286466.84449 -12677983.58747  20880332.806    20880339.288
       238.000         200.000
 03  4 28 17  7  0.0000000  0  7G24G30G 6G 5G17G21G10
  22366270.272     9453836.11849   7279904.05446  22366270.283    22366277.217
       229.000         180.000
  20525975.130   -12866274.59349 -10010851.29747  20525975.303    20525980.242
       244.000         209.000
  22703580.496   -12779915.10149  -9951491.92846  22703580.688    22703586.013
       224.000         174.000
  20575660.671    -3571544.33049  -2774583.10047  20575660.177    20575666.201
       242.000         209.000
  24057649.672    -7340107.43049  -5701344.11345  24057648.696    24057657.809
       207.000         144.000
  24781046.302    -5520024.16649  -2300732.87844  24781046.518    24781054.609
       207.000         127.000
  20874225.170   -16318567.09549 -12702996.76047  20874224.325    20874230.819
       239.000         200.000
 03  4 28 17  7 30.0000000  0  7G24G30G 6G 5G17G21G10
  22380724.650     9529794.27049   7339092.17146  22380724.717    22380731.296
       228.000         179.000
  20520542.406   -12894823.80149 -10033097.44747  20520542.494    20520547.444
       243.000         209.000
  22690868.242   -12846718.34449 -10003546.37646  22690868.169    22690873.948
       224.000         174.000
  20583219.622    -3531821.88149  -2743630.60447  20583219.174    20583224.981
       242.000         208.000
  24042596.204    -7419214.10349  -5762985.59845  24042596.357    24042604.964
       209.000         145.000
  24764514.032    -5606901.50549  -2368429.47044  24764511.645    24764520.182
       206.000         125.000
  20868231.375   -16350064.71749 -12727540.36247  20868230.665    20868237.179
       239.000         201.000
 03  4 28 17  8  0.0000000  0  7G24G30G 6G 5G17G21G10
  22395198.031     9605852.16049   7398357.99446  22395198.037    22395204.904
       229.000         179.000
  20515215.223   -12922818.45849 -10054911.48147  20515215.452    20515220.165
       246.000         209.000
  22678163.048   -12913484.58049 -10055572.00346  22678163.024    22678169.078
       225.000         174.000
  20590877.930    -3491577.44849  -2712271.36447  20590877.312    20590883.272
       243.000         208.000
  24027578.533    -7498132.82049  -5824480.64145  24027577.055    24027585.927
       208.000         145.000
  24748010.241    -5693629.69749  -2436009.84744  24748010.619    24748017.396
       208.000         128.000
  20862352.541   -16380958.28849 -12751613.27547  20862351.435    20862358.006
       240.000         201.000
 03  4 28 17  8 30.0000000  0  7G24G30G 6G 5G17G21G10
  22409689.971     9682007.50849   7457699.77346  22409689.735    22409697.145
       229.000         179.000
  20509993.716   -12950257.61049 -10076292.65747  20509993.937    20509998.832
       246.000         209.000
  22665464.976   -12980213.49249 -10107568.54446  22665465.555    22665470.616
       225.000         173.000
  20598635.343    -3450812.31649  -2680506.38747  20598635.042    20598640.871
       243.000         208.000
  24012596.545    -7576863.27449  -5885828.97945  24012595.856    24012605.102
       211.000         146.000
  24731534.750    -5780208.43549  -2503473.74344  24731534.385    24731541.060
       206.000         127.000
  20856588.861   -16411246.52149 -12775214.49747  20856587.925    20856594.543
       241.000         201.000
 03  4 28 17  9  0.0000000  0  7G24G30G 6G 5G17G21G10
  22424200.207     9758259.00949   7517116.47746  22424199.690    22424207.472
       228.000         179.000
  20504878.292   -12977139.46349 -10097239.57447  20504878.518    20504883.304
       245.000         209.000
  22652774.142   -13046904.01249 -10159535.16046  22652773.062    22652779.519
       223.000         173.000
  20606491.666    -3409527.28549  -2648336.29547  20606491.163    20606496.960
       242.000         208.000
  23997650.626    -7655404.55349  -5947029.91345  23997649.943    23997658.728
       209.000         148.000
  24715087.996    -5866636.39849  -2570820.12144  24715088.940    24715093.411
       211.000         128.000
  20850940.709   -16440927.73549 -12798342.71847  20850939.625    20850946.439
       239.000         201.000
 03  4 28 17  9 30.0000000  0  7G24G30G 6G 5G17G21G10
  22438728.300     9834604.47749   7576606.39246  22438728.112    22438735.114
       228.000         178.000
  20499869.110   -13003463.06049 -10117751.49047  20499869.256    20499874.006
       245.000         209.000
  22640090.709   -13113555.87449 -10211471.67146  22640090.372    22640096.635
       225.000         173.000
  20614446.651    -3367723.77349  -2615762.19647  20614446.306    20614452.109
       242.000         208.000
  23982740.760    -7733756.19649  -6008083.08345  23982740.095    23982748.623
       209.000         149.000
  24698670.036    -5952913.62349  -2638049.08344  24698669.067    24698678.347
       205.000         129.000
  20845408.220   -16470001.14149 -12820997.32547  20845407.405    20845413.715
       240.000         201.000
 03  4 28 17 10  0.0000000  0  7G24G30G 6G 5G17G21G10
  22453274.005     9911042.45449   7636168.39646  22453274.252    22453281.037
       228.000         178.000
  20494966.353   -13029227.21549 -10137827.47447  20494966.360    20494971.201
       245.000         209.000
  22627414.840   -13180168.18649 -10263377.36246  22627414.067    22627420.941
       225.000         173.000
  20622500.110    -3325402.81049  -2582784.88347  20622499.571    20622505.572
       242.000         208.000
  23967867.003    -7811917.89949  -6068988.25145  23967866.341    23967876.033
       211.000         150.000
  24682280.869    -6039039.02149  -2705159.71944  24682277.405    24682289.412
       205.000         125.000
  20839991.647   -16498465.36149 -12843177.24147  20839990.725    20839997.346
       239.000         201.000
 03  4 28 17 10 30.0000000  0  7G24G30G 6G 5G17G21G10
  22467837.124     9987571.94249   7695801.69946  22467837.870    22467844.482
       228.000         178.000
  20490170.441   -13054429.91249 -10157465.96747  20490170.700    20490175.396
       245.000         209.000
  22614746.721   -13246739.77849 -10315251.32446  22614746.127    22614752.076
       224.000         174.000
  20630651.940    -3282565.03349  -2549404.86847  20630651.497    20630657.477
       242.000         208.000
  23953029.641    -7889888.28149  -6129744.33445  23953029.103    23953037.432
       212.000         151.000
  24665920.832    -6125011.38549  -2772151.07144  24665920.369    24665927.425
       211.000         127.000
  20834691.409   -16526318.54549 -12864881.03447  20834690.694    20834697.217
       240.000         201.000
 03  4 28 17 11  0.0000000  0  7G24G30G 6G 5G17G21G10
  22482417.083    10064189.81549   7755503.88246  22482417.017    22482424.198
       228.000         178.000
  20485481.390   -13079071.11949 -10176666.92447  20485481.526    20485486.374
       246.000         209.000
  22602086.224   -13313270.88849 -10367093.73246  22602086.341    22602092.096
       226.000         174.000
  20638901.630    -3239212.79049  -2515623.96347  20638901.396    20638907.162
       243.000         208.000
  23938228.699    -7967667.70949  -6190351.61245  23938228.199    23938237.010
       213.000         152.000
  24649589.856    -6210831.24549  -2839023.58444  24649588.935    24649597.631
       207.000         128.000
  20829507.429   -16553560.53149 -12886108.56047  20829506.563    20829513.115
       241.000         202.000
 03  4 28 17 11 30.0000000  0  7G24G30G 6G 5G17G21G10
  22497013.613    10140894.61149   7815273.79346  22497013.252    22497020.559
       227.000         178.000
  20480899.567   -13103148.98549 -10195428.92047  20480899.588    20480904.617
       246.000         209.000
  22589433.705   -13379760.34849 -10418903.69846  22589433.780    22589439.696
       227.000         175.000
  20647249.101    -3195346.84749  -2481442.77047  20647248.697    20647254.597
       242.000         208.000
  23923464.177    -8045255.65949  -6250809.69345  23923463.811    23923472.541
       211.000         152.000
  24633288.108    -6296496.94449  -2905775.97244  24633287.390    24633294.255
       206.000         128.000
  20824440.092   -16580189.60549 -12906858.49247  20824439.021    20824445.898
       240.000         202.000
 03  4 28 17 12  0.0000000  0  7G24G30G 6G 5G17G21G10
  22511626.474    10217685.41349   7875110.72846  22511626.066    22511632.786
       227.000         177.000
  20476425.217   -13126661.93649 -10213750.72747  20476425.516    20476430.426
       245.000         209.000
  22576789.389   -13446206.85949 -10470680.19846  22576788.744    22576795.776
       226.000         175.000
  20655694.217    -3150967.71549  -2446861.69547  20655693.971    20655699.699
       242.000         208.000
  23908736.381    -8122650.62449  -6311117.40045  23908735.217    23908744.594
       212.000         152.000
  24617015.936    -6382007.58849  -2972407.57144  24617016.634    24617023.311
       203.000         129.000
  20819489.737   -16606204.02849 -12927129.48647  20819489.058    20819495.509
       239.000         202.000
 03  4 28 17 12 30.0000000  0  7G24G30G 6G 5G17G21G10
  22526255.183    10294559.70249   7935012.71746  22526255.248    22526261.949
       226.000         177.000
  20472058.371   -13149609.74849 -10231632.15847  20472058.799    20472063.409
       245.000         209.000
  22564153.159   -13512610.65149 -10522423.39746  22564152.762    22564158.749
       225.000         176.000
  20664236.579    -3106077.55649  -2411882.40747  20664236.197    20664242.240
       242.000         208.000
  23894045.126    -8199853.30249  -6371275.26945  23894044.277    23894052.624
       210.000         152.000
  24600773.161    -6467363.66149  -3038918.68344  24600772.110    24600780.234
       206.000         128.000
  20814656.313   -16631603.73849 -12946921.47747  20814655.534    20814662.305
       239.000         202.000
 03  4 28 17 13  0.0000000  0  7G24G30G 6G 5G17G21G10
  22540899.595    10371516.57249   7994979.04146  22540900.140    22540906.801
       227.000         177.000
  20467799.473   -13171990.41049 -10249071.65847  20467799.887    20467804.560
       246.000         209.000
  22551525.369   -13578970.07449 -10574132.02746  22551525.654    22551530.967
       227.000         176.000
  20672876.115    -3060676.67149  -2376505.15447  20672875.826    20672881.860
       242.000         208.000
  23879390.693    -8276862.40049  -6431282.29845  23879389.852    23879398.791
       212.000         151.000
  24584560.129    -6552563.44549  -3105308.02044  24584561.222    24584567.110
       205.000         130.000
  20809940.236   -16656386.86349 -12966233.02147  20809939.649    20809946.160
       239.000         202.000
 03  4 28 17 13 30.0000000  0  7G24G30G 6G 5G17G21G10
  22555559.417    10448554.23449   8055008.33146  22555559.001    22555565.995
       226.000         176.000
  20463648.761   -13193802.75749 -10266068.31547  20463649.051    20463654.014
       245.000         209.000
  22538906.238   -13645284.44649 -10625805.57346  22538905.470    22538912.451
       225.000         176.000
  20681612.657    -3014766.25849  -2340730.86747  20681612.438    20681618.209
       242.000         207.000
  23864773.265    -8353677.42749  -6491138.10245  23864772.752    23864781.879
       211.000         152.000
  24568376.847    -6637606.36649  -3171575.10944  24568375.488    24568384.145
       203.000         130.000
  20805341.721   -16680552.35949 -12985063.29347  20805341.072    20805347.420
       240.000         202.000
 03  4 28 17 14  0.0000000  0  7G24G30G 6G 5G17G21G10
  22570234.281    10525670.96649   8115099.23246  22570233.872    22570241.011
       226.000         176.000
  20459606.370   -13215045.84249 -10282621.39247  20459606.619    20459611.429
       245.000         209.000
  22526295.670   -13711552.99049 -10677443.38946  22526295.090    22526301.123
       225.000         175.000
  20690445.790    -2968348.01649  -2304560.86847  20690445.103    20690451.354
       242.000         207.000
  23850192.936    -8430297.29849  -6550841.83945  23850192.645    23850201.063
       211.000         152.000
  24552223.653    -6722491.75749  -3237719.45844  24552223.180    24552229.497
       198.000         129.000
  20800860.941   -16704099.10949 -13003411.42547  20800860.044    20800866.636
       240.000         202.000
 03  4 28 17 14 30.0000000  0  7G24G30G 6G 5G17G21G10
  22584923.820    10602864.73849   8175250.16346  22584923.763    22584931.104
       225.000         176.000
  20455672.396   -13235719.01749 -10298730.38347  20455672.593    20455677.413
       245.000         209.000
  22513693.934   -13777775.41049 -10729045.25746  22513693.554    22513699.600
       225.000         176.000
  20699375.297    -2921423.40649  -2267996.29947  20699375.021    20699381.135
       242.000         207.000
  23835649.672    -8506722.41749  -6610393.82745  23835648.754    23835656.963
       211.000         152.000
  24536100.312    -6807219.67649  -3303741.11644  24536100.131    24536107.236
       198.000         129.000
  20796497.973   -16727026.71849 -13021277.11147  20796497.195    20796503.948
       239.000         202.000
 03  4 28 17 15  0.0000000  0  7G24G30G 6G 5G17G21G10
  22599627.722    10680134.03049   8235459.94446  22599626.604    22599634.835
       225.000         175.000
  20451847.119   -13255821.03049 -10314394.31347  20451847.241    20451852.160
       245.000         209.000
  22501101.227   -13843950.62749 -10780610.36246  22501100.412    22501107.554
       225.000         176.000
  20708400.973    -2873993.39649  -2231037.91347  20708400.483    20708406.602
       241.000         207.000
  23821143.658    -8582951.87549  -6669793.36045  23821142.846    23821151.867
       212.000         152.000
  24520007.278    -6891788.77149  -3369639.03144  24520005.833    24520013.807
       199.000         129.000
  20792253.073   -16749333.90349 -13038659.33847  20792252.373    20792258.828
       239.000         202.000
 03  4 28 17 15 30.0000000  0  7G24G30G 6G 5G17G21G10
  22614345.660    10757477.21849   8295727.29746  22614345.574    22614353.093
       225.000         175.000
  20448130.789   -13275350.60549 -10329612.18947  20448131.133    20448135.893
       245.000         209.000
  22488517.580   -13910077.96749 -10832138.14046  22488517.343    22488523.467
       226.000         175.000
  20717522.533    -2826059.50649  -2193686.89147  20717522.238    20717528.296
       241.000         207.000
  23806674.952    -8658985.21049  -6729040.06345  23806673.813    23806682.419
       214.000         152.000
  24503944.537    -6976198.79449  -3435412.95744  24503943.763    24503952.124
       197.000         131.000
  20788126.398   -16771019.71149 -13055557.37547  20788125.460    20788132.264
       239.000         202.000
 03  4 28 17 16  0.0000000  0  7G24G30G 6G 5G17G21G10
  22629077.419    10834892.93149   8356051.17146  22629077.376    22629085.100
       224.000         175.000
  20444523.517   -13294307.12749 -10344383.52747  20444523.671    20444528.581
       245.000         209.000
  22475943.217   -13976156.75249 -10883628.09646  22475942.609    22475948.416
       226.000         176.000
  20726739.691    -2777623.23149  -2155944.40547  20726739.087    20726745.329
       241.000         207.000
  23792243.603    -8734822.08849  -6788133.67845  23792242.343    23792252.442
       212.000         152.000
  24487912.041    -7060449.20049  -3501062.55144  24487911.162    24487917.590
       201.000         130.000
  20784118.151   -16792083.18149 -13071970.47647  20784117.475    20784124.236
       240.000         202.000
 03  4 28 17 16 30.0000000  0  7G24G30G 6G 5G17G21G10
  22643822.677    10912379.51049   8416430.26146  22643822.668    22643830.055
       224.000         174.000
  20441025.554   -13312689.12149 -10358707.18747  20441025.902    20441030.782
       245.000         209.000
  22463378.357   -14042185.68849 -10935079.21146  22463377.887    22463383.392
       226.000         177.000
  20736052.318    -2728685.33249  -2117811.04447  20736051.990    20736057.952
       241.000         207.000
  23777849.844    -8810461.49649  -6847073.43445  23777848.918    23777857.730
       213.000         152.000
  24471910.218    -7144538.65749  -3566586.73544  24471909.590    24471916.865
       199.000         131.000
  20780228.561   -16812523.10549 -13087897.70547  20780227.518    20780234.178
       239.000         203.000
 03  4 28 17 17  0.0000000  0  7G24G30G 6G 5G17G21G10
  22658581.027    10989934.98049   8476863.03046  22658580.341    22658587.857
       224.000         174.000
  20437637.032   -13330495.99949 -10372582.71247  20437637.348    20437642.214
       245.000         209.000
  22450822.988   -14108164.45749 -10986491.22846  22450822.879    22450829.319
       227.000         177.000
  20745460.017    -2679247.85449  -2079288.39947  20745459.687    20745465.621
       241.000         207.000
  23763493.648    -8885903.71349  -6905859.55345  23763492.666    23763500.846
       213.000         152.000
  24455939.137    -7228467.20949  -3631985.50945  24455938.026    24455944.545
       203.000         132.000
  20776457.728   -16832339.21049 -13103338.84047  20776456.938    20776463.719
       240.000         203.000
 03  4 28 17 17 30.0000000  0  7G24G30G 6G 5G17G21G10
  22673352.151    11067557.72149   8537348.22646  22673352.165    22673358.936
       224.000         173.000
  20434358.150   -13347726.85349 -10386009.37247  20434358.518    20434363.331
       245.000         210.000
  22438277.382   -14174092.18249 -11037863.47646  22438276.924    22438282.436
       228.000         178.000
  20754962.447    -2629312.35449  -2040377.67947  20754962.119    20754968.328
       242.000         206.000
  23749175.007    -8961148.45149  -6964491.77745  23749174.399    23749183.299
       213.000         153.000
  24439998.781    -7312234.26849  -3697258.48945  24439998.571    24440006.189
       200.000         136.000
  20772805.772   -16851530.28649 -13118292.93147  20772804.956    20772811.494
       240.000         203.000
 03  4 28 17 18  0.0000000  0  7G24G30G 6G 5G17G21G10
  22688135.944    11145246.73349   8597885.05746  22688135.800    22688143.081
       226.000         173.000
  20431189.079   -13364380.45249 -10398986.23447  20431189.112    20431194.253
       246.000         210.000
  22425741.738   -14239967.64949 -11089195.00646  22425741.582    22425746.757
       228.000         179.000
  20764559.514    -2578879.81749  -2001079.66447  20764558.925    20764565.274
       243.000         206.000
  23734894.158    -9036194.46749  -7022969.16045  23734893.395    23734902.516
       213.000         154.000
  24424089.191    -7395839.13049  -3762405.07045  24424088.016    24424096.174
       204.000         135.000
  20769272.978   -16870095.32849 -13132759.20447  20769271.962    20769278.814
       241.000         203.000
 03  4 28 17 18 30.0000000  0  7G24G30G 6G 5G17G21G10
  22702931.936    11222999.84849   8658471.84346  22702932.057    22702939.457
       225.000         173.000
  20428130.012   -13380456.13449 -10411512.76947  20428130.270    20428135.280
       245.000         210.000
  22413216.081   -14305790.32849 -11140485.38846  22413215.594    22413221.853
       227.000         179.000
  20774250.794    -2527951.98349  -1961395.69747  20774250.286    20774256.533
       241.000         206.000
  23720651.200    -9111041.64049  -7081291.61545  23720650.585    23720658.800
       214.000         155.000
  24408210.612    -7479281.15549  -3827424.77345  24408210.108    24408217.417
       205.000         137.000
  20765859.368   -16888033.93849 -13146737.34347  20765858.315    20765865.083
       239.000         203.000
 03  4 28 17 19  0.0000000  0  7G24G30G 6G 5G17G21G10
  22717739.812    11300815.41049   8719107.28746  22717739.766    22717747.124
       225.000         173.000
  20425181.028   -13395953.19749 -10423588.43347  20425181.271    20425186.244
       245.000         210.000
  22400700.658   -14371559.31949 -11191733.93646  22400700.847    22400706.420
       228.000         180.000
  20784036.092    -2476530.30749  -1921326.91847  20784035.901    20784041.860
       241.000         206.000
  23706446.172    -9185689.70449  -7139458.90345  23706445.399    23706454.291
       217.000         156.000
  24392363.290    -7562559.84149  -3892317.19445  24392362.659    24392369.940
       204.000         139.000
  20762565.118   -16905345.37849 -13160226.77647  20762564.316    20762570.897
       239.000         203.000
 03  4 28 17 19 30.0000000  0  7G24G30G 6G 5G17G21G10
  22732559.232    11378691.60649   8779789.97946  22732559.137    22732566.861
       224.000         173.000
  20422342.304   -13410870.88949 -10435212.64447  20422342.686    20422347.569
       245.000         210.000
  22388195.623   -14437274.00649 -11242940.18946  22388195.155    22388201.549
       227.000         180.000
  20793915.001    -2424616.49949  -1880874.66147  20793914.453    20793920.691
       241.000         206.000
  23692279.020    -9260138.41849  -7197470.87645  23692278.017    23692286.657
       217.000         156.000
  24376547.019    -7645674.79949  -3957082.06045  24376546.658    24376553.372
       206.000         139.000
  20759390.282   -16922029.30249 -13173227.23747  20759389.574    20759395.969
       239.000         203.000
 03  4 28 17 20  0.0000000  0  7G24G30G 6G 5G17G21G10
  22747390.035    11456627.70249   8840519.34946  22747389.990    22747397.303
       225.000         172.000
  20419614.103   -13425207.80649 -10446384.29347  20419614.365    20419619.194
       246.000         210.000
  22375701.076   -14502932.85049 -11294102.90646  22375700.765    22375706.782
       228.000         180.000
  20803887.408    -2372211.37549  -1840039.55847  20803886.809    20803893.500
       242.000         206.000
  23678149.977    -9334386.91349  -7255326.81545  23678149.098    23678157.977
       215.000         156.000
  24360762.055    -7728625.00449  -4021718.51845  24360761.416    24360769.366
       208.000         140.000
  20756335.182   -16938083.96949 -13185737.36047  20756334.359    20756340.912
       240.000         203.000
 03  4 28 17 20 30.0000000  0  7G24G30G 6G 5G17G21G10
  22762231.906    11534622.05649   8901294.11646  22762231.755    22762238.676
       224.000         172.000
  20416996.581   -13438963.12049 -10457102.75547  20416996.847    20417001.817
       245.000         210.000
  22363217.366   -14568535.10149 -11345221.52946  22363217.167    22363223.034
       228.000         180.000
  20813952.991    -2319316.54349  -1798822.87147  20813952.730    20813958.691
       242.000         206.000
  23664059.155    -9408434.61449  -7313026.29845  23664058.223    23664066.632
       213.000         157.000
  24345008.611    -7811409.84849  -4086226.14145  24345008.461    24345015.113
       207.000         141.000
  20753399.947   -16953508.94949 -13197756.82347  20753399.031    20753405.716
       240.000         203.000
 03  4 28 17 21  0.0000000  0  7G24G30G 6G 5G17G21G10
  22777084.554    11612673.03149   8962112.99946  22777083.833    22777091.812
       224.000         171.000
  20414489.841   -13452136.14249 -10467367.47947  20414490.193    20414494.918
       244.000         210.000
  22350744.577   -14634079.94349 -11396295.42546  22350743.582    22350750.240
       227.000         180.000
  20824111.483    -2265933.62949  -1757225.85747  20824111.018    20824117.344
       241.000         206.000
  23650006.552    -9482281.12949  -7370568.99345  23650005.482    23650013.809
       214.000         157.000
  24329286.695    -7894028.94949  -4150604.61545  24329285.936    24329292.543
       209.000         141.000
  20750584.553   -16968303.92949 -13209285.37447  20750583.530    20750590.261
       240.000         203.000
 03  4 28 17 21 30.0000000  0  7G24G30G 6G 5G17G21G10
  22791947.668    11690779.03149   9022974.75746  22791947.903    22791955.172
       224.000         171.000
  20412094.076   -13464726.31049 -10477178.03347  20412094.251    20412099.197
       245.000         210.000
  22338282.844   -14699566.62349 -11447324.00746  22338282.409    22338288.157
       227.000         180.000
  20834362.500    -2212064.42649  -1715249.92347  20834362.061    20834368.339
       241.000         205.000
  23635992.297    -9555926.45949  -7427954.94645  23635991.474    23636000.123
       216.000         157.000
  24313596.403    -7976481.82749  -4214853.56545  24313596.268    24313603.167
       207.000         141.000
  20747889.134   -16982468.24949 -13220322.50047  20747888.216    20747894.732
       239.000         204.000
 03  4 28 17 22  0.0000000  0  7G24G30G 6G 5G17G21G10
  22806820.979    11768938.39049   9083878.09246  22806821.086    22806827.856
       223.000         171.000
  20409809.295   -13476733.03349 -10486533.95447  20409809.623    20409814.528
       246.000         210.000
  22325832.364   -14764994.28849 -11498306.59946  22325832.298    22325838.049
       229.000         180.000
  20844705.708    -2157710.63549  -1672896.38547  20844705.351    20844711.701
       242.000         205.000
  23622016.437    -9629370.16349  -7485183.76245  23622015.959    23622024.581
       215.000         157.000
  24297937.812    -8058767.78949  -4278972.44045  24297938.227    24297944.291
       208.000         141.000
  20745313.895   -16996001.30949 -13230867.73247  20745313.029    20745319.628
       240.000         204.000
 03  4 28 17 22 30.0000000  0  7G24G30G 6G 5G17G21G10
  22821704.122    11847149.90249   9144822.08246  22821703.503    22821711.408
       222.000         170.000
  20407635.752   -13488155.24649 -10495434.40447  20407636.187    20407640.922
       246.000         210.000
  22313393.355   -14830361.83149 -11549242.33446  22313393.249    22313399.021
       229.000         181.000
  20855140.960    -2102873.40549  -1630166.13747  20855140.617    20855146.731
       241.000         205.000
  23608079.035    -9702611.42649  -7542254.83845  23608077.558    23608087.489
       215.000         157.000
  24282311.133    -8140886.24649  -4342960.80945  24282310.976    24282317.856
       209.000         140.000
  20742858.909   -17008902.30349 -13240920.43547  20742857.878    20742864.625
       240.000         204.000
 03  4 28 17 23  0.0000000  0  7G24G30G 6G 5G17G21G10
  22836596.904    11925411.76949   9205805.29446  22836596.743    22836604.787
       222.000         169.000
  20405573.544   -13498992.29749 -10503878.89747  20405573.945    20405578.796
       245.000         210.000
  22300965.938   -14895668.30749 -11600130.50046  22300965.923    22300971.393
       228.000         180.000
  20865667.848    -2047554.57249  -1587060.62547  20865667.469    20865673.595
       241.000         205.000
  23594180.231    -9775649.99949  -7599167.97745  23594180.049    23594187.850
       215.000         158.000
  24266716.453    -8222836.71449  -4406818.26845  24266714.813    24266723.638
       209.000         140.000
  20740524.254   -17021171.03849 -13250480.48147  20740523.304    20740529.981
       239.000         204.000
 03  4 28 17 23 30.0000000  0  7G24G30G 6G 5G17G21G10
  22851499.000    12003722.55349   9266826.62546  22851499.126    22851506.778
       222.000         169.000
  20403622.749   -13509244.03249 -10511867.29047  20403622.956    20403627.862
       245.000         210.000
  22288550.238   -14960913.03049 -11650970.53746  22288549.358    22288555.701
       230.000         181.000
  20876285.984    -1991756.23049  -1543581.46047  20876285.488    20876291.711
       242.000         205.000
  23580319.981    -9848486.03649  -7655923.29245  23580318.905    23580327.391
       216.000         158.000
  24251153.659    -8304619.18049  -4470544.82145  24251152.826    24251160.370
       208.000         140.000
  20738309.962   -17032807.23049 -13259547.63147  20738308.917    20738315.436
       240.000         204.000
 03  4 28 17 24  0.0000000  0  7G24G30G 6G 5G17G21G10
  22866410.099    12082080.77249   9327884.90646  22866410.503    22866417.328
       222.000         169.000
  20401783.474   -13518909.41549 -10519398.78947  20401783.759    20401788.786
       245.000         210.000
  22276146.485   -15026094.92749 -11701761.61446  22276145.565    22276152.073
       229.000         181.000
  20886995.092    -1935479.82049  -1499729.77647  20886994.585    20887000.965
       241.000         205.000
  23566498.416    -9921118.90149  -7712520.28845  23566497.993    23566505.884
       215.000         158.000
  24235623.080    -8386232.78849  -4534139.79045  24235622.438    24235630.220
       209.000         140.000
  20736216.184   -17043810.03249 -13268121.22847  20736215.227    20736221.886
       240.000         204.000
 03  4 28 17 24 30.0000000  0  7G24G30G 6G 5G17G21G10
  22881329.975    12160485.04849   9388979.08546  22881329.795    22881337.641
       222.000         169.000
  20400055.983   -13527987.58649 -10526472.71947  20400056.205    20400061.344
       245.000         210.000
  22263754.961   -15091212.68849 -11752502.71946  22263754.783    22263760.179
       229.000         181.000
  20897794.931    -1878726.49249  -1455506.47147  20897794.668    20897800.738
       241.000         205.000
  23552715.587    -9993547.75249  -7768958.30845  23552714.765    23552723.009
       216.000         158.000
  24220124.937    -8467676.39149  -4597602.30445  24220124.547    24220130.717
       210.000         140.000
  20734243.073   -17054178.78149 -13276200.76247  20734242.233    20734248.811
       240.000         204.000
 03  4 28 17 25  0.0000000  0  7G24G30G 6G 5G17G21G10
  22896258.227    12238933.23049   9450107.47646  22896258.380    22896265.754
       223.000         168.000
  20398440.178   -13536478.80549 -10533089.28247  20398440.593    20398445.440
       245.000         210.000
  22251375.699   -15156266.14649 -11803193.72546  22251375.573    22251382.124
       228.000         181.000
  20908685.066    -1821498.74749  -1410913.49047  20908684.749    20908691.145
       241.000         205.000
  23538971.601   -10065773.01149  -7825237.68645  23538970.630    23538979.894
       216.000         159.000
  24204658.939    -8548950.73249  -4660932.93145  24204658.404    24204664.987
       209.000         140.000
  20732390.518   -17063913.81549 -13283786.49447  20732389.665    20732396.209
       239.000         204.000
 03  4 28 17 25 30.0000000  0  7G24G30G 6G 5G17G21G10
  22911194.636    12317424.62049   9511269.53346  22911194.610    22911202.505
       222.000         168.000
  20396936.353   -13544381.67549 -10539247.39547  20396936.745    20396941.758
       246.000         210.000
  22239008.999   -15221253.66849 -11853833.34746  22239008.655    22239015.198
       229.000         182.000
  20919665.258    -1763797.59749  -1365951.62747  20919664.827    20919671.343
       241.000         204.000
  23525266.398   -10137794.12949  -7881357.99745  23525266.037    23525274.894
       216.000         159.000
  24189225.340    -8630054.44249  -4724130.57245  24189224.968    24189232.329
       211.000         140.000
  20730658.717   -17073014.31249 -13290877.78147  20730658.034    20730664.514
       240.000         204.000
 03  4 28 17 26  0.0000000  0  7G24G30G 6G 5G17G21G10
  22926139.060    12395957.79449   9572464.14946  22926138.874    22926146.133
       221.000         168.000
  20395544.553   -13551695.83349 -10544946.76847  20395545.018    20395549.950
       246.000         210.000
  22226655.071   -15286174.10649 -11904420.69446  22226655.287    22226660.652
       229.000         182.000
  20930735.245    -1705624.64149  -1320622.12147  20930734.544    20930741.131
       241.000         204.000
  23511600.191   -10209610.33249  -7937318.62845  23511599.308    23511608.074
       217.000         159.000
  24173824.440    -8710986.77549  -4787194.70045  24173823.550    24173831.111
       211.000         140.000
  20729047.781   -17081479.72749 -13297474.19947  20729047.159    20729053.311
       240.000         204.000
 03  4 28 17 26 30.0000000  0  7G24G30G 6G 5G17G21G10
  22941091.154    12474531.33449   9633690.22346  22941091.023    22941098.427
       221.000         168.000
  20394264.880   -13558420.68949 -10550186.94947  20394265.084    20394270.322
       245.000         210.000
  22214313.959   -15351026.94749 -11954955.38146  22214313.641    22214319.876
       229.000         182.000
  20941894.637    -1646981.99849  -1274926.62647  20941894.258    20941900.636
       241.000         204.000
  23497972.986   -10281221.67349  -7993119.63745  23497971.883    23497980.875
       214.000         159.000
  24158456.141    -8791747.74649  -4850125.30945  24158455.559    24158463.176
       211.000         141.000
  20727557.754   -17089309.89249 -13303575.62447  20727556.981    20727563.489
       240.000         204.000
 03  4 28 17 27  0.0000000  0  7G24G30G 6G 5G17G21G10
  22956050.706    12553143.83549   9694946.65446  22956050.517    22956057.773
       222.000         168.000
  20393097.398   -13564555.91049 -10554967.67147  20393097.812    20393102.772
       245.000         210.000
  22201985.944   -15415811.12649 -12005436.56146  22201985.995    22201991.761
       230.000         182.000
  20953143.085    -1587871.22849  -1228866.35447  20953142.771    20953149.279
       241.000         204.000
  23484384.858   -10352627.79549  -8048760.72145  23484384.149    23484392.670
       216.000         158.000
  24143120.522    -8872336.85649  -4912921.97345  24143120.276    24143127.259
       211.000         140.000
  20726188.667   -17096504.63049 -13309181.91447  20726187.799    20726194.354
       239.000         204.000
 03  4 28 17 27 30.0000000  0  7G24G30G 6G 5G17G21G10
  22971017.193    12631793.13649   9756231.76346  22971016.876    22971024.638
       221.000         167.000
  20392042.101   -13570101.54649 -10559288.97747  20392042.393    20392047.558
       245.000         210.000
  22189671.119   -15480525.98949 -12055863.71546  22189671.060    22189676.726
       230.000         183.000
  20964480.143    -1528294.79149  -1182443.22147  20964480.112    20964486.203
       240.000         204.000
  23470835.681   -10423828.81049  -8104241.98145  23470834.669    23470842.998
       214.000         158.000
  24127817.646    -8952754.09349  -4975584.71245  24127816.860    24127824.124
       210.000         139.000
  20724940.443   -17103064.05549 -13314293.15247  20724939.823    20724945.948
       240.000         204.000
 03  4 28 17 28  0.0000000  0  7G24G30G 6G 5G17G21G10
  22985990.696    12710479.04549   9817545.38346  22985991.000    22985997.898
       221.000         167.000
  20391099.301   -13575056.25249 -10563149.82047  20391099.576    20391104.680
       245.000         210.000
  22177369.861   -15545169.63249 -12106235.38646  22177369.257    22177375.632
       229.000         183.000
  20975905.687    -1468253.59749  -1135657.95147  20975905.533    20975911.849
       241.000         204.000
  23457325.751   -10494823.55649  -8159562.53045  23457325.571    23457334.487
       216.000         158.000
  24112547.691    -9032998.03249  -5038112.43545  24112546.212    24112554.651
       209.000         141.000
  20723813.303   -17108987.27749 -13318908.66147  20723812.423    20723818.928
       240.000         204.000
 03  4 28 17 28 30.0000000  0  7G24G30G 6G 5G17G21G10
  23000970.725    12789199.29249   9878885.77646  23000970.370    23000977.556
       221.000         167.000
  20390268.846   -13579420.25149 -10566550.36947  20390269.180    20390274.245
       245.000         210.000
  22165082.197   -15609741.75749 -12156551.32646  22165082.173    22165087.874
       229.000         183.000
  20987419.159    -1407750.08249  -1088512.43047  20987418.822    20987425.431
       241.000         203.000
  23443854.995   -10565612.75949  -8214722.90245  23443854.277    23443863.191
       216.000         159.000
  24097310.562    -9113069.05049  -5100505.37245  24097309.919    24097317.266
       209.000         140.000
  20722807.188   -17114274.37849 -13323028.47947  20722806.230    20722812.875
       239.000         204.000
 03  4 28 17 29  0.0000000  0  7G24G30G 6G 5G17G21G10
  23015957.099    12867952.90549   9940252.17046  23015956.665    23015964.697
       222.000         166.000
  20389550.973   -13583192.84949 -10569490.08747  20389551.207    20389556.068
       246.000         210.000
  22152808.386   -15674240.97949 -12206810.45646  22152808.250    22152813.948
       230.000         183.000
  20999020.353    -1346785.82049  -1041007.88447  20999020.161    20999026.478
       241.000         203.000
  23430423.554   -10636195.35149  -8269722.29045  23430422.586    23430431.275
       217.000         160.000
  24082106.698    -9192966.06449  -5162762.76245  24082105.855    24082112.809
       211.000         141.000
  20721922.195   -17118925.05949 -13326652.38847  20721921.152    20721927.783
       241.000         204.000
 03  4 28 17 29 30.0000000  0  7G24G30G 6G 5G17G21G10
  23030949.617    12946738.69449  10001643.63246  23030949.525    23030957.337
       222.000         166.000
  20388945.778   -13586373.28049 -10571968.38147  20388946.166    20388951.194
       245.000         210.000
  22140548.680   -15738665.97949 -12257011.75146  22140548.717    22140554.597
       229.000         184.000
  21010708.952    -1285362.11149   -993145.33147  21010708.589    21010714.970
       240.000         203.000
  23417031.647   -10706570.46549  -8324560.00345  23417030.737    23417038.812
       219.000         161.000
  24066935.933    -9272688.52249  -5224884.14345  24066934.168    24066942.107
       209.000         140.000
  20721158.399   -17122938.85749 -13329780.03147  20721157.551    20721163.972
       239.000         204.000
 03  4 28 17 30  0.0000000  0  7G24G30G 6G 5G17G21G10
  23045947.671    13025553.75749  10063057.89546  23045946.883    23045954.661
       221.000         165.000
  20388453.102   -13588962.62549 -10573986.08747  20388453.337    20388458.379
       245.000         210.000
  22128303.111   -15803017.04049 -12307155.42946  22128302.735    22128309.301
       231.000         184.000
  21022484.323    -1223482.39749   -944927.44347  21022483.687    21022490.242
       240.000         203.000
  23403678.883   -10776739.70449  -8379237.28945  23403678.640    23403687.266
       219.000         162.000
  24051798.200    -9352237.34249  -5286870.19345  24051797.587    24051805.952
       209.000         139.000
  20720515.552   -17126317.15749 -13332412.47447  20720514.466    20720521.213
       240.000         204.000
 03  4 28 17 30 30.0000000  0  7G24G30G 6G 5G17G21G10
  23060951.404    13104398.58549  10124495.36246  23060951.316    23060958.923
       221.000         165.000
  20388073.224   -13590958.86849 -10575541.63947  20388073.620    20388078.643
       245.000         210.000
  22116072.148   -15867291.28949 -12357239.26246  22116072.342    22116077.616
       230.000         185.000
  21034346.491    -1161146.59549   -896354.16747  21034345.845    21034352.824
       240.000         203.000
  23390365.608   -10846701.17449  -8433752.68546  23390364.917    23390372.717
       218.000         163.000
  24036694.008    -9431610.50349  -5348719.37945  24036693.923    24036700.584
       210.000         139.000
  20719993.955   -17129058.14149 -13334548.31347  20719993.157    20720000.010
       239.000         205.000
 03  4 28 17 31  0.0000000  0  7G24G30G 6G 5G17G21G10
  23075960.352    13183270.81049  10185954.17746  23075960.335    23075967.819
       220.000         164.000
  20387806.077   -13592363.07849 -10576635.86847  20387806.475    20387811.466
       245.000         210.000
  22103855.789   -15931488.91749 -12407263.38446  22103855.169    22103861.708
       232.000         185.000
  21046294.803    -1098357.98849   -847428.05747  21046294.464    21046300.961
       240.000         202.000
  23377091.720   -10916455.76049  -8488106.87346  23377090.377    23377099.231
       220.000         163.000
  24021623.148    -9510808.60749  -5410432.14445  24021622.727    24021628.886
       207.000         139.000
  20719593.464   -17131162.80449 -13336188.30347  20719592.694    20719599.101
       240.000         205.000
 03  4 28 17 31 30.0000000  0  7G24G30G 6G 5G17G21G10
  23090974.342    13262169.71349  10247433.78646  23090974.571    23090981.948
       220.000         164.000
  20387651.757   -13593174.15749 -10577267.91247  20387652.172    20387657.375
       245.000         210.000
  22091654.315   -15995608.25149 -12457226.49746  22091654.246    22091659.798
       230.000         186.000
  21058329.068    -1035117.73049   -798150.01447  21058328.852    21058335.215
       239.000         202.000
  23363857.381   -10986002.36649  -8542298.99746  23363856.998    23363864.862
       218.000         163.000
  24006585.712    -9589830.49049  -5472007.59445  24006585.137    24006592.578
       208.000         139.000
  20719314.144   -17132630.62849 -13337332.06747  20719313.558    20719319.822
       239.000         205.000
 03  4 28 17 32  0.0000000  0  7G24G30G 6G 5G17G21G10
  23105993.112    13341093.56249  10308932.80946  23105993.004    23106000.080
       220.000         164.000
  20387610.297   -13593392.15749 -10577437.81747  20387610.291    20387615.543
       246.000         210.000
  22079467.851   -16059648.52349 -12507127.99246  22079467.353    22079473.724
       232.000         186.000
  21070448.859     -971428.05449   -748521.76747  21070448.232    21070455.201
       241.000         202.000
  23350662.600   -11055341.16249  -8596329.19046  23350661.903    23350670.189
       220.000         163.000
  23991581.774    -9668676.38449  -5533445.90545  23991580.015    23991588.246
       208.000         140.000
  20719155.959   -17133461.81049 -13337979.74647  20719154.878    20719161.649
       241.000         205.000
 03  4 28 17 32 30.0000000  0  7G24G30G 6G 5G17G21G10
  23121016.504    13420041.80049  10370450.84746  23121016.323    23121024.292
       219.000         163.000
  20387681.801   -13593016.44149 -10577145.09847  20387682.181    20387687.321
       245.000         210.000
  22067296.755   -16123608.15549 -12556966.67246  22067296.678    22067302.498
       231.000         186.000
  21082653.976     -907290.13549   -698544.25347  21082653.713    21082660.158
       240.000         202.000
  23337507.549   -11124471.38849  -8650196.86446  23337506.830    23337515.273
       220.000         163.000
  23976611.516    -9747344.96949  -5594746.05345  23976610.718    23976617.422
       209.000         141.000
  20719119.065   -17133655.78549 -13338130.90947  20719118.453    20719124.968
       240.000         205.000
 03  4 28 17 33  0.0000000  0  7G24G30G 6G 5G17G21G10
  23136044.094    13499012.25049  10431986.19346  23136043.810    23136050.753
       220.000         163.000
  20387866.275   -13592047.17249 -10576389.86047  20387866.644    20387871.525
       246.000         210.000
  22055141.137   -16187486.47649 -12606741.98346  22055140.874    22055146.789
       232.000         187.000
  21094943.821     -842706.74149   -648219.60447  21094943.135    21094950.242
       240.000         202.000
  23324392.027   -11193393.71249  -8703902.55146  23324390.940    23324400.152
       220.000         164.000
  23961675.041    -9825836.50049  -5655908.25645  23961673.888    23961682.933
       210.000         142.000
  20719203.285   -17133213.23649 -13337786.07547  20719202.395    20719209.234
       240.000         205.000
 03  4 28 17 33 30.0000000  0  7G24G30G 6G 5G17G21G10
  23151075.773    13578003.96449  10493538.10346  23151075.284    23151083.341
       220.000         163.000
  20388163.720   -13590484.40249 -10575172.16047  20388164.128    20388169.272
       245.000         210.000
  22043001.139   -16251282.52849 -12656453.19346  22043000.988    22043007.143
       231.000         186.000
  21107318.073     -777679.87549   -597549.40047  21107317.998    21107324.237
       239.000         201.000
  23311316.227   -11262107.52949  -8757445.75546  23311315.372    23311324.241
       220.000         164.000
  23946772.373    -9904150.69649  -5716932.26545  23946771.775    23946779.924
       210.000         143.000
  20719408.626   -17132134.17149 -13336945.25947  20719407.872    20719414.085
       240.000         205.000
 03  4 28 17 34  0.0000000  0  7G24G30G 6G 5G17G21G10
  23166111.194    13657015.38949  10555105.37346  23166110.805    23166118.284
       220.000         163.000
  20388574.130   -13588327.75649 -10573491.69347  20388574.274    20388579.588
       246.000         210.000
  22030877.005   -16314995.02049 -12706099.29446  22030876.661    22030882.667
       232.000         187.000
  21119776.368     -712211.46349   -546535.12547  21119775.903    21119782.515
       240.000         201.000
  23298280.091   -11330612.44049  -8810826.18146  23298278.927    23298288.301
       220.000         164.000
  23931903.431    -9982287.15749  -5777817.76945  23931902.399    23931909.446
       211.000         144.000
  20719735.090   -17130418.59949 -13335608.45947  20719734.286    20719740.697
       241.000         205.000
 03  4 28 17 34 30.0000000  0  7G24G30G 6G 5G17G21G10
  23181150.178    13736045.46249  10616687.17446  23181150.314    23181158.499
       221.000         164.000
  20389097.629   -13585576.83949 -10571348.15847  20389097.921    20389103.190
       245.000         210.000
  22018769.106   -16378622.51149 -12755679.14946  22018768.614    22018775.155
       231.000         187.000
  21132318.388     -646303.11749   -495178.04247  21132318.051    21132324.850
       239.000         201.000
  23285283.847   -11398908.19549  -8864043.61446  23285283.494    23285291.529
       220.000         164.000
  23917068.508   -10060245.05649  -5838564.14045  23917068.698    23917075.253
       211.000         144.000
  20720182.709   -17128066.40549 -13333775.59147  20720181.847    20720188.468
       240.000         205.000
 03  4 28 17 35  0.0000000  0  7G24G30G 6G 5G17G21G10
  23196192.473    13815092.90449  10678282.50146  23196192.370    23196199.848
       221.000         164.000
  20389734.184   -13582232.10049 -10568741.91247  20389734.560    20389739.760
       247.000         210.000
  22006677.488   -16442164.12249 -12805192.09146  22006676.935    22006682.601
       232.000         187.000
  21144943.664     -579957.15649   -443479.95847  21144943.360    21144950.112
       240.000         201.000
  23272327.249   -11466995.31549  -8917098.47846  23272326.074    23272334.636
       221.000         164.000
  23902267.604   -10138024.41549  -5899171.39245  23902266.925    23902273.662
       213.000         146.000
  20720751.313   -17125078.48749 -13331447.35447  20720750.613    20720757.204
       241.000         205.000
 03  4 28 17 35 30.0000000  0  7G24G30G 6G 5G17G21G10
  23211237.801    13894156.23349  10739890.22346  23211237.605    23211245.473
       221.000         164.000
  20390483.722   -13578293.41749 -10565672.85247  20390484.162    20390489.221
       245.000         210.000
  21994602.449   -16505618.96949 -12854637.43646  21994602.284    21994608.416
       231.000         187.000
  21157651.807     -513175.64649   -391442.49847  21157651.383    21157658.306
       238.000         200.000
  23259410.521   -11534873.01049  -8969990.15846  23259409.786    23259418.431
       220.000         165.000
  23887500.712   -10215625.05949  -5959639.36945  23887499.448    23887507.150
       212.000         146.000
  20721440.839   -17121455.01049 -13328623.88247  20721440.225    20721446.670
       239.000         205.000
 03  4 28 17 36  0.0000000  0  7G24G30G 6G 5G17G21G10
  23226285.921    13973234.37849  10801509.48145  23226286.017    23226293.692
       221.000         160.000
  20391346.298   -13573760.57449 -10562140.80347  20391346.604    20391351.805
       245.000         210.000
  21982544.171   -16568985.54049 -12904013.98546  21982543.522    21982549.893
       231.000         187.000
  21170442.488     -445960.45249   -339067.09947  21170441.908    21170448.941
       239.000         200.000
  23246533.647   -11602541.21849  -9022718.60046  23246533.130    23246540.774
       218.000         165.000
  23872767.881   -10293046.32549  -6019967.58845  23872768.097    23872774.704
       215.000         148.000
  20722251.346   -17117195.85349 -13325305.07347  20722250.654    20722257.047
       240.000         205.000
 03  4 28 17 36 30.0000000  0  7G24G30G 6G 5G17G21G10
  23241336.608    14052326.26149  10863139.42546  23241336.378    23241343.960
       221.000         164.000
  20392322.001   -13568633.44249 -10558145.68647  20392322.369    20392327.462
       245.000         210.000
  21970502.969   -16632262.42949 -12953320.65646  21970502.897    21970508.565
       232.000         187.000
  21183315.294     -378313.64149   -286355.37547  21183314.786    21183321.489
       239.000         200.000
  23233696.785   -11669999.47549  -9075283.44946  23233696.317    23233704.226
       219.000         165.000
  23858069.323   -10370287.72349  -6080155.63645  23858068.793    23858075.885
       213.000         149.000
  20723182.782   -17112301.12349 -13321491.00547  20723181.990    20723188.684
       240.000         205.000
 03  4 28 17 37  0.0000000  0  7G24G30G 6G 5G17G21G10
  23256389.744    14131430.38049  10924778.92746  23256389.736    23256398.342
       221.000         165.000
  20393410.739   -13562912.38949 -10553687.77147  20393411.065    20393416.204
       245.000         210.000
  21958478.993   -16695448.79249 -13002556.79146  21958478.312    21958484.300
       231.000         187.000
  21196269.844     -310237.43249   -233309.06247  21196269.598    21196275.840
       238.000         200.000
  23220899.906   -11737247.62949  -9127684.58246  23220899.196    23220907.260
       221.000         166.000
  23843405.063   -10447348.93749  -6140203.28545  23843405.254    23843411.896
       214.000         150.000
  20724235.060   -17106771.47449 -13317182.20547  20724234.141    20724240.934
       240.000         205.000
 03  4 28 17 37 30.0000000  0  7G24G30G 6G 5G17G21G10
  23271444.825    14210545.19849  10986426.75646  23271444.144    23271452.618
       222.000         166.000
  20394612.420   -13556597.66149 -10548767.24347  20394612.723    20394617.835
       246.000         210.000
  21946472.399   -16758543.89849 -13051721.80447  21946472.104    21946478.334
       232.000         188.000
  21209305.577     -241734.30649   -179930.07347  21209305.084    21209312.248
       239.000         199.000
  23208142.798   -11804286.52449  -9179922.64846  23208142.098    23208150.573
       221.000         167.000
  23828775.056   -10524230.38849  -6200110.86945  23828774.902    23828780.732
       214.000         150.000
  20725408.043   -17100607.39949 -13312379.03547  20725407.139    20725413.656
       240.000         205.000
 03  4 28 17 38  0.0000000  0  7G24G30G 6G 5G17G21G10
  23286501.891    14289670.24249  11048082.55946  23286501.790    23286509.457
       222.000         166.000
  20395927.202   -13549688.61649 -10543383.61747  20395927.703    20395932.917
       245.000         210.000
  21934483.543   -16821545.95949 -13100814.32647  21934483.463    21934489.464
       232.000         188.000
  21222422.321     -172805.72149   -126219.56847  21222422.053    21222428.887
       238.000         199.000
  23195425.711   -11871115.23649  -9231996.92546  23195424.901    23195433.043
       222.000         167.000
  23814179.310   -10600930.93849  -6259877.48545  23814178.397    23814185.726
       214.000         149.000
  20726701.690   -17093809.14549 -13307081.70647  20726700.804    20726707.584
       240.000         205.000
 03  4 28 17 38 30.0000000  0  7G24G30G 6G 5G17G21G10
  23301560.683    14368804.37649  11109745.43846  23301560.156    23301569.119
       222.000         166.000
  20397355.040   -13542185.51749 -10537537.09747  20397355.315    20397360.581
       245.000         210.000
  21922512.563   -16884453.83749 -13149833.46147  21922512.181    21922518.237
       232.000         188.000
  21235619.627     -103453.69549    -72179.10947  21235619.127    21235625.837
       238.000         199.000
  23182748.699   -11937733.15749  -9283906.97046  23182747.848    23182755.764
       222.000         168.000
  23799618.039   -10677450.33549  -6319502.94245  23799617.238    23799625.370
       212.000         149.000
  20728116.012   -17086376.87749 -13301290.34547  20728115.194    20728121.734
       239.000         205.000
 03  4 28 17 39  0.0000000  0  7G24G30G 6G 5G17G21G10
  23316620.956    14447946.12149  11171414.23946  23316620.889    23316628.920
       222.000         166.000
  20398895.896   -13534088.47849 -10531227.76147  20398896.128    20398901.469
       245.000         210.000
  21910559.805   -16947266.15549 -13198778.12647  21910559.725    21910565.722
       232.000         189.000
  21248897.116      -33680.32849    -17810.33847  21248896.725    21248903.625
       238.000         198.000
  23170111.861   -12004140.24649  -9335652.73146  23170111.596    23170119.332
       221.000         167.000
  23785091.301   -10753788.40849  -6378987.11545  23785090.884    23785098.334
       213.000         149.000
  20729650.935   -17078310.76349 -13295005.07147  20729650.192    20729656.622
       240.000         204.000
 03  4 28 17 39 30.0000000  0  7G24G30G 6G 5G17G21G10
  23331682.357    14527093.98349  11233087.82746  23331682.672    23331690.060
       221.000         165.000
  20400549.643   -13525398.02749 -10524456.01847  20400549.873    20400555.001
       245.000         210.000
  21898625.340   -17009982.28249 -13247647.83947  21898624.748    21898631.176
       233.000         189.000
  21262254.311       36511.81649     36884.75347  21262253.858    21262260.889
       238.000         198.000
  23157514.963   -12070337.08249  -9387234.64946  23157514.197    23157521.980
       222.000         167.000
  23770599.206   -10829944.98349  -6438329.86745  23770599.187    23770605.290
       215.000         150.000
  20731306.297   -17069611.86149 -13288226.72847  20731305.406    20731311.988
       239.000         205.000
 03  4 28 17 40  0.0000000  0  7G24G30G 6G 5G17G21G10
  23346744.741    14606246.92149  11294765.36346  23346744.245    23346752.559
       221.000         165.000
  20402316.292   -13516114.43749 -10517222.10147  20402316.490    20402321.931
       245.000         210.000
  21886709.397   -17072601.06249 -13296441.69547  21886709.346    21886715.615
       233.000         189.000
  21275690.730      107120.38549     91904.32347  21275690.466    21275697.712
       237.000         198.000
  23144958.148   -12136323.48949  -9438652.60246  23144957.120    23144965.947
       222.000         168.000
  23756141.652   -10905920.01049  -6497531.14845  23756140.856    23756148.716
       214.000         150.000
  20733082.014   -17060280.65349 -13280955.66947  20733081.436    20733087.717
       239.000         205.000
 03  4 28 17 40 30.0000000  0  7G24G30G 6G 5G17G21G10
  23361807.891    14685403.87449  11356446.02346  23361807.857    23361816.513
       221.000         164.000
  20404195.787   -13506237.72949 -10509526.01047  20404196.219    20404201.401
       244.000         210.000
  21874812.269   -17135121.09749 -13345158.60647  21874812.113    21874818.201
       234.000         189.000
  21289206.064      178143.47849    147246.90247  21289205.770    21289212.875
       238.000         198.000
  23132441.410   -12202099.49749  -9489906.61346  23132441.594    23132447.627
       223.000         168.000
  23741718.734   -10981712.77749  -6556590.39545  23741717.901    23741724.302
       214.000         150.000
  20734977.992   -17050317.29549 -13273192.03147  20734977.294    20734983.793
       240.000         205.000
 03  4 28 17 41  0.0000000  0  7G24G30G 6G 5G17G21G10
  23376871.443    14764563.24549  11418128.55846  23376870.809    23376878.881
       220.000         164.000
  20406188.060   -13495768.36749 -10501368.11347  20406188.460    20406193.638
       244.000         210.000
  21862934.060   -17197541.32849 -13393797.75447  21862933.886    21862940.116
       233.000         189.000
  21302799.813      249578.77849    202910.68247  21302799.289    21302806.198
       238.000         197.000
  23119964.616   -12267665.41449  -9540996.91846  23119963.153    23119972.498
       222.000         168.000
  23727330.552   -11057323.34449  -6615507.68945  23727330.201    23727336.660
       216.000         151.000
  20736994.050   -17039722.89349 -13264936.67447  20736993.098    20737000.182
       239.000         205.000
 03  4 28 17 41 30.0000000  0  7G24G30G 6G 5G17G21G10
  23391935.496    14843725.00949  11479812.96446  23391935.380    23391943.627
       219.000         163.000
  20408293.303   -13484705.52749 -10492747.76547  20408293.662    20408298.940
       244.000         210.000
  21851075.331   -17259859.49349 -13442357.36147  21851075.175    21851081.282
       234.000         190.000
  21316471.727      321424.97449    258894.63947  21316471.324    21316478.452
       237.000         197.000
  23107528.125   -12333019.56449  -9591922.20346  23107527.432    23107535.840
       222.000         168.000
  23712977.304   -11132750.45549  -6674282.04045  23712976.858    23712983.638
       214.000         151.000
  20739130.334   -17028496.75349 -13256189.04647  20739129.479    20739136.117
       240.000         205.000
 03  4 28 17 42  0.0000000  0  7G24G30G 6G 5G17G21G10
  23406999.530    14922886.86249  11541497.44245  23406999.651    23407007.980
       217.000         161.000
  20410511.199   -13473050.65449 -10483666.09347  20410511.497    20410516.805
       244.000         210.000
  21839236.002   -17322075.41549 -13490837.29647  21839235.622    21839241.896
       234.000         190.000
  21330221.268      393678.88249    315196.30247  21330220.795    21330228.023
       239.000         197.000
  23095131.657   -12398163.48749  -9642683.68446  23095130.774    23095138.811
       222.000         168.000
  23698658.586   -11207995.19949  -6732914.24845  23698657.960    23698666.249
       213.000         151.000
  20741386.472   -17016640.65749 -13246950.54247  20741385.598    20741392.235
       240.000         205.000
 03  4 28 17 42 30.0000000  0  7G24G30G 6G 5G17G21G10
  23422063.613    15002048.87849  11603182.03645  23422064.072    23422072.114
       217.000         160.000
  20412841.882   -13460802.83449 -10474122.39247  20412842.263    20412847.414
       244.000         210.000
  21827416.692   -17384186.48649 -13539235.54647  21827416.154    21827422.369
       234.000         190.000
  21344048.180      466339.38349    371814.78147  21344048.033    21344055.054
       237.000         197.000
  23082775.494   -12463095.37949  -9693279.95246  23082775.037    23082782.454
       222.000         168.000
  23684374.904   -11283055.78649  -6791402.97845  23684374.229    23684381.115
       215.000         150.000
  20743762.614   -17004154.03049 -13237220.72247  20743761.813    20743768.510
       241.000         205.000
 03  4 28 17 43  0.0000000  0  7G24G30G 6G 5G17G21G10
  23437127.397    15081209.29749  11664865.39045  23437127.474    23437135.016
       216.000         159.000
  20415285.230   -13447963.21249 -10464117.53947  20415285.722    20415290.997
       244.000         210.000
  21815617.348   -17446192.30849 -13587551.77547  21815617.163    21815623.094
       234.000         190.000
  21357951.864      539403.49249    428747.76347  21357951.478    21357958.815
       237.000         196.000
  23070459.609   -12527815.75149  -9743711.38146  23070459.084    23070467.212
       223.000         169.000
  23670126.216   -11357932.64449  -6849748.54745  23670125.513    23670131.587
       215.000         150.000
  20746258.495   -16991038.26649 -13227000.65747  20746257.645    20746264.616
       240.000         205.000
 03  4 28 17 43 30.0000000  0  7G24G30G 6G 5G17G21G10
  23452190.617    15160366.70549  11726546.41145  23452190.816    23452198.203
       216.000         157.000
  20417841.050   -13434532.54049 -10453652.13447  20417841.303    20417846.703
       243.000         210.000
  21803838.171   -17508092.11049 -13635785.39547  21803837.747    21803843.921
       234.000         191.000
  21371931.859      612868.48449    485993.12247  21371931.610    21371938.491
       237.000         196.000
  23058183.796   -12592325.65649  -9793978.82146  23058183.392    23058190.940
       223.000         170.000
  23655912.550   -11432626.12849  -6907951.21845  23655911.423    23655918.533
       213.000         151.000
  20748873.831   -16977294.55549 -13216291.30347  20748873.064    20748879.565
       239.000         204.000
 03  4 28 17 44  0.0000000  0  7G24G30G 6G 5G17G21G10
  23467252.841    15239518.92449  11788223.37245  23467252.149    23467260.610
       215.000         156.000
  20420509.103   -13420511.81949 -10442726.94747  20420509.276    20420514.629
       244.000         210.000
  21792079.299   -17569885.27049 -13683935.90647  21792079.078    21792084.942
       234.000         190.000
  21385987.569      686731.52249    543548.64347  21385987.139    21385994.093
       237.000         195.000
  23045947.856   -12656625.68349  -9844082.71446  23045947.213    23045955.390
       221.000         170.000
  23641733.557   -11507136.97549  -6966011.57145  23641731.810    23641739.448
       217.000         152.000
  20751608.435   -16962924.15949 -13205093.59647  20751607.501    20751613.943
       240.000         204.000
 03  4 28 17 44 30.0000000  0  7G24G30G 6G 5G17G21G10
  23482314.235    15318666.74749  11849896.91645  23482313.363    23482323.475
       213.000         154.000
  20423289.721   -13405899.80649 -10431341.01447  20423290.150    20423295.489
       245.000         210.000
  21780341.309   -17631568.79249 -13732000.99447  21780341.064    21780347.506
       234.000         191.000
  21400118.895      760991.94149    601413.81447  21400118.306    21400125.733
       237.000         195.000
  23033752.288   -12720713.70249  -9894021.41746  23033751.626    23033759.728
       222.000         170.000
  23627589.752   -11581462.83049  -7023927.77345  23627589.430    23627596.146
       218.000         151.000
  20754462.457   -16947926.15549 -13193406.85447  20754461.615    20754468.154
       240.000         205.000
 03  4 28 17 45  0.0000000  0  7G24G30G 6G 5G17G21G10
  23497374.739    15397809.72549  11911566.68145  23497374.876    23497382.644
       213.000         153.000
  20426182.852   -13390696.46649 -10419494.30747  20426183.298    20426188.631
       244.000         210.000
  21768624.451   -17693141.01649 -13779979.35547  21768624.245    21768630.432
       234.000         191.000
  21414325.515      835647.83849    659587.14047  21414325.171    21414332.403
       236.000         195.000
  23021597.076   -12784589.54749  -9943794.77946  23021595.911    23021604.430
       222.000         170.000
  23613481.385   -11655603.00049  -7081699.29745  23613481.137    23613487.183
       217.000         153.000
  20757435.831   -16932300.89349 -13181231.34647  20757434.957    20757441.782
       240.000         205.000
 03  4 28 17 45 30.0000000  0  7G24G30G 6G 5G17G21G10
  23512433.709    15476944.91259  11973230.13745  23512434.230    23512441.921
       216.000         151.000
  20429188.241   -13374903.12749 -10407187.85747  20429188.657    20429193.756
       243.000         210.000
  21756928.944   -17754601.49749 -13827870.63847  21756929.101    21756934.673
       234.000         191.000
  21428606.796      910696.20549    718066.28947  21428606.564    21428613.383
       235.000         194.000
  23009482.174   -12848253.88249  -9993403.33946  23009481.597    23009489.645
       223.000         170.000
  23599408.206   -11729558.21149  -7139326.68345  23599408.400    23599413.646
       216.000         154.000
  20760528.286   -16916049.98849 -13168568.32847  20760527.706    20760534.018
       240.000         204.000
 03  4 28 17 46  0.0000000  0  7G24G30G 6G 5G17G21G10
  23527491.474    15556073.58849  12034888.79645  23527492.206    23527500.047
       212.000         153.000
  20432305.841   -13358520.18249 -10394421.97947  20432306.259    20432311.480
       244.000         210.000
  21745254.961   -17815948.77049 -13875673.70447  21745255.063    21745260.742
       234.000         191.000
  21442962.356      986134.83649    776849.53447  21442962.246    21442968.923
       236.000         194.000
  22997407.459   -12911706.63049 -10042847.03146  22997406.677    22997415.289
       223.000         171.000
  23585370.259   -11803328.02549  -7196809.60245  23585369.059    23585377.089
       217.000         154.000
  20763739.662   -16899174.06249 -13155418.26447  20763738.843    20763745.477
       239.000         204.000
 03  4 28 17 46 30.0000000  0  7G24G30G 6G 5G17G21G10
  23542547.436    15635192.88349  12096540.11745  23542547.993    23542556.387
       215.000         152.000
  20435535.469   -13341548.57649 -10381197.39747  20435535.983    20435541.211
       244.000         210.000
  21733602.722   -17877181.86049 -13923387.80447  21733603.000    21733608.256
       234.000         192.000
  21457391.681     1061961.07949    835934.81947  21457391.197    21457398.416
       235.000         194.000
  22985372.969   -12974948.03749 -10092126.02246  22985372.318    22985380.156
       222.000         171.000
  23571367.371   -11876912.73049  -7254148.30645  23571366.922    23571373.959
       215.000         154.000
  20767069.710   -16881674.50149 -13141782.26547  20767069.057    20767075.481
       240.000         204.000
 03  4 28 17 47  0.0000000  0  7G24G30G 6G 5G17G21G10
  23557601.484    15714301.94549  12158183.45145  23557601.352    23557609.536
       215.000         152.000
  20438877.021   -13323988.76049 -10367514.47847  20438877.410    20438882.712
       244.000         211.000
  21721972.428   -17938299.41449 -13971011.86947  21721972.401    21721978.158
       234.000         192.000
  21471894.343     1138172.60749    895320.31947  21471893.687    21471901.192
       235.000         194.000
  22973378.776   -13037978.10649 -10141240.32646  22973378.401    22973387.048
       216.000         163.000
  23557399.771   -11950312.42849  -7311342.78445  23557398.362    23557408.021
       206.000         141.000
  20770518.330   -16863552.04649 -13127660.89347  20770517.540    20770524.047
       240.000         204.000
 03  4 28 17 47 30.0000000  0  7G24G30G 6G 5G17G21G10
  23572653.402    15793399.94149  12219818.16645  23572652.732    23572661.890
       214.000         153.000
  20442330.442   -13305841.04149 -10353373.44447  20442330.749    20442336.209
       245.000         210.000
  21710364.482   -17999299.74949 -14018544.59747  21710364.377    21710369.975
       236.000         192.000
  21486469.890     1214767.36449    955004.43847  21486469.926    21486476.824
       235.000         193.000
  22961424.810   -13100796.31649 -10190189.57545  22961424.327    22961431.450
       221.000         160.000
  23543467.604   -12023526.32149  -7368392.53045  23543467.666    23543474.332
       213.000         138.000
  20774085.344   -16844807.26849 -13113054.59847  20774084.680    20774091.115
       239.000         204.000
 03  4 28 17 48  0.0000000  0  7G24G30G 6G 5G17G21G10
  23587702.979    15872485.42749  12281443.14145  23587702.793    23587710.601
       215.000         152.000
  20445895.527   -13287106.64849 -10338775.26947  20445896.001    20445901.195
       244.000         210.000
  21698778.882   -18060182.46849 -14065985.67847  21698778.358    21698784.755
       235.000         192.000
  21501117.814     1291742.30049   1014984.80347  21501117.456    21501125.067
       235.000         193.000
  22949511.029   -13163403.51849 -10238974.39746  22949510.065    22949518.217
       224.000         170.000
  23529570.728   -12096554.65149  -7425297.69945  23529570.847    23529576.388
       216.000         153.000
  20777770.407   -16825442.10249 -13097964.88147  20777769.729    20777776.306
       240.000         204.000
 03  4 28 17 48 30.0000000  0  7G24G30G 6G 5G17G21G10
  23602749.907    15951557.31949  12343057.51445  23602750.096    23602758.539
       216.000         153.000
  20449572.139   -13267786.02949 -10323720.29647  20449572.625    20449577.922
       245.000         210.000
  21687215.992   -18120945.79349 -14113333.72747  21687215.663    21687221.947
       235.000         193.000
  21515837.686     1369095.35449   1075259.79647  21515837.236    21515844.797
       236.000         193.000
  22937637.468   -13225799.60149 -10287594.71546  22937637.144    22937644.449
       224.000         172.000
  23515709.364   -12169397.03349  -7482057.96645  23515709.073    23515714.983
       218.000         156.000
  20781573.480   -16805456.94649 -13082392.05847  20781572.627    20781579.438
       241.000         204.000
 03  4 28 17 49  0.0000000  0  7G24G30G 6G 5G17G21G10
  23617794.074    16030614.37449  12404660.33245  23617793.892    23617802.145
       215.000         153.000
  20453360.125   -13247880.29649 -10308209.38147  20453360.503    20453365.848
       244.000         210.000
  21675675.900   -18181588.93549 -14160588.12047  21675675.542    21675682.093
       235.000         193.000
  21530629.003     1446823.72449   1135827.25447  21530628.846    21530636.364
       236.000         193.000
  22925804.033   -13287984.95749 -10336050.82646  22925803.616    22925811.376
       223.000         173.000
  23501883.259   -12242054.01749  -7538673.74545  23501882.525    23501889.318
       219.000         157.000
  20785494.217   -16784853.35049 -13066337.32547  20785493.342    20785500.102
       240.000         204.000
 03  4 28 17 49 30.0000000  0  7G24G30G 6G 5G17G21G10
  23632835.442    16109656.91549  12466251.82745  23632835.109    23632842.965
       217.000         155.000
  20457259.646   -13227388.22349 -10292241.58747  20457260.084    20457265.411
       244.000         210.000
  21664159.398   -18242108.58449 -14207746.29347  21664159.315    21664165.235
       235.000         193.000
  21545491.596     1524926.74149   1196686.63847  21545491.147    21545498.524
       235.000         192.000
  22914010.916   -13349958.04649 -10384341.53446  22914010.231    22914018.123
       223.000         173.000
  23488092.599   -12314523.74349  -7595143.60445  23488091.353    23488099.197
       217.000         156.000
  20789532.823   -16763630.46549 -13049800.04547  20789532.206    20789538.675
       239.000         204.000
 03  4 28 17 50  0.0000000  0  7G24G30G 6G 5G17G21G10
  23647873.713    16188682.96649  12527830.48445  23647874.167    23647882.488
       218.000         156.000
  20461270.358   -13206312.09049 -10275818.67747  20461270.857    20461276.189
       244.000         210.000
  21652666.352   -18302504.80049 -14254808.28047  21652666.201    21652672.476
       236.000         194.000
  21560424.719     1603400.53449   1257834.93647  21560424.229    21560432.060
       235.000         192.000
  22902257.880   -13411720.26649 -10432467.92546  22902256.957    22902264.890
       223.000         173.000
  23474337.300   -12386807.62649  -7651468.66445  23474335.766    23474344.384
       218.000         156.000
  20793688.793   -16741790.68249 -13032782.05647  20793688.139    20793694.857
       239.000         204.000
 03  4 28 17 50 30.0000000  0  8G24G30G 6G 5G17G21G10G29
  23662907.584    16267686.12349  12589391.27945  23662907.320    23662915.961
       219.000         157.000
  20465391.064   -13184657.87149 -10258945.31547  20465391.354    20465396.871
       243.000         210.000
  21641196.091   -18362781.57749 -14301777.20447  21641195.842    21641201.683
       235.000         194.000
  21575426.948     1682237.36749   1319266.11847  21575426.743    21575434.118
       235.000         192.000
  22890544.007   -13473276.80949 -10480434.04146  22890543.017    22890551.514
       223.000         173.000
  23460616.492   -12458910.90949  -7707652.99845  23460616.273    23460622.826
       217.000         157.000
  20797960.927   -16719340.61249 -13015288.52047  20797960.152    20797966.778
       239.000         204.000
  24599140.599    -2067372.43059  -1450569.36044  24599138.391    24599153.063
       198.000         130.000
 03  4 28 17 51  0.0000000  0  8G24G30G 6G 5G17G21G10G29
  23677938.267    16346672.49349  12650939.00745  23677938.404    23677946.825
       217.000         157.000
  20469622.919   -13162419.55349 -10241616.81247  20469623.405    20469628.665
       243.000         209.000
  21629750.087   -18422930.94449 -14348646.84747  21629750.156    21629755.848
       236.000         194.000
  21590499.080     1761441.55549   1380983.56047  21590498.599    21590505.934
       235.000         191.000
  22878870.537   -13534620.98849 -10528234.67246  22878868.889    22878877.832
       223.000         173.000
  23446931.491   -12530826.02449  -7763690.72545  23446931.077    23446937.975
       218.000         157.000
  20802350.252   -16696274.58749 -12997315.02047  20802349.413    20802356.040
       239.000         204.000
  24585653.663    -2138246.38749  -1505795.56644  24585653.186    24585665.447
       195.000         128.000
 03  4 28 17 51 30.0000000  0  8G24G30G 6G 5G17G21G10G29
  23692965.675    16425641.58549  12712473.26745  23692966.071    23692973.875
       218.000         157.000
  20473965.984   -13139596.76549 -10223832.87147  20473966.198    20473971.871
       244.000         209.000
  21618328.799   -18482950.31649 -14395415.19247  21618328.453    21618334.472
       236.000         194.000
  21605640.908     1841011.75549   1442986.20847  21605640.217    21605648.076
       235.000         191.000
  22867237.638   -13595751.90249 -10575869.12746  22867237.061    22867244.710
       223.000         173.000
  23433282.587   -12602551.66149  -7819580.78845  23433282.396    23433288.510
       218.000         158.000
  20806856.777   -16672592.71049 -12978861.62947  20806855.923    20806862.479
       239.000         204.000
  24572171.374    -2209095.41449  -1561002.40544  24572173.228    24572186.083
       197.000         126.000
 03  4 28 17 52  0.0000000  0  8G24G30G 6G 5G17G21G10G29
  23707989.634    16504592.48249  12773993.35245  23707989.810    23707997.837
       219.000         158.000
  20478420.033   -13116190.73149 -10205594.45947  20478420.604    20478425.874
       244.000         209.000
  21606932.505   -18542838.39749 -14442081.24147  21606932.442    21606938.282
       236.000         194.000
  21620851.815     1920945.30049   1505271.97147  21620851.356    21620858.962
       234.000         191.000
  22855645.339   -13656669.84949 -10623337.64646  22855644.866    22855652.332
       224.000         173.000
  23419669.961   -12674086.49749  -7875322.18345  23419668.911    23419675.764
       219.000         158.000
  20811480.275   -16648296.22349 -12959929.32647  20811479.652    20811486.102
       239.000         204.000
  24558694.424    -2279916.49249  -1616187.46644  24558692.521    24558707.437
       198.000         127.000
 03  4 28 17 52 30.0000000  0  8G24G30G 6G 5G17G21G10G29
  23723009.751    16583523.14849  12835497.66945  23723010.072    23723018.233
       219.000         158.000
  20482984.701   -13092203.49649 -10186903.16447  20482985.035    20482990.695
       243.000         209.000
  21595561.176   -18602595.02949 -14488644.86247  21595560.924    21595566.998
       236.000         194.000
  21636131.158     2001238.49949   1567837.98347  21636131.178    21636138.399
       235.000         191.000
  22844093.344   -13717376.13749 -10670641.22946  22844093.383    22844100.740
       223.000         174.000
  23406092.523   -12745435.92249  -7930919.09145  23406091.520    23406099.200
       217.000         158.000
  20816220.223   -16623387.74349 -12940520.13847  20816219.551    20816226.237
       239.000         204.000
  24545222.995    -2350708.19949  -1671349.61144  24545221.167    24545236.320
       199.000         127.000
 03  4 28 17 53  0.0000000  0  8G24G30G 6G 5G17G21G10G29
  23738025.804    16662432.65149  12896985.48545  23738025.777    23738034.644
       219.000         159.000
  20487659.854   -13067635.58949 -10167759.39447  20487660.148    20487665.717
       243.000         209.000
  21584215.170   -18662218.62349 -14535104.81647  21584215.039    21584220.959
       235.000         194.000
  21651478.566     2081889.03949   1630682.45047  21651478.633    21651485.782
       235.000         190.000
  22832581.525   -13777870.97549 -10717780.04346  22832580.813    22832589.315
       224.000         174.000
  23392550.952   -12816596.65849  -7986368.98245  23392549.745    23392556.602
       219.000         159.000
  20821076.464   -16597868.04449 -12920634.67047  20821075.949    20821082.482
       239.000         203.000
  24531757.855    -2421467.40549  -1726486.47344  24531755.089    24531771.989
       197.000         128.000
 03  4 28 17 53 30.0000000  0  8G24G30G 6G 5G17G21G10G29
  23753037.633    16741319.94549  12958456.00445  23753037.704    23753046.114
       218.000         159.000
  20492445.247   -13042488.25549 -10148164.12047  20492445.585    20492451.272
       243.000         209.000
  21572894.707   -18721708.10349 -14581460.26347  21572894.546    21572900.672
       236.000         195.000
  21666893.435     2162894.28149   1693803.30847  21666893.152    21666900.393
       234.000         190.000
  22821109.918   -13838154.42249 -10764754.14546  22821109.585    22821117.616
       224.000         174.000
  23379045.238   -12887569.84849  -8041672.73245  23379044.634    23379051.491
       219.000         159.000
  20826048.724   -16571738.63349 -12900274.10647  20826047.887    20826054.406
       239.000         203.000
  24518299.349    -2492191.60949  -1781596.05944  24518297.946    24518311.968
       198.000         128.000
 03  4 28 17 54  0.0000000  0  8G24G30G 6G 5G17G21G10G29
  23768045.052    16820184.05049  13019908.45145  23768045.614    23768053.504
       217.000         159.000
  20497340.771   -13016762.48049 -10128118.11747  20497341.316    20497346.650
       244.000         209.000
  21561600.001   -18781062.09449 -14627710.14047  21561600.165    21561606.025
       237.000         195.000
  21682375.289     2244251.55249   1757198.47047  21682375.004    21682382.717
       234.000         189.000
  22809678.647   -13898226.27349 -10811563.37046  22809677.839    22809685.971
       224.000         174.000
  23365575.352   -12958354.58949  -8096829.63345  23365574.809    23365582.276
       218.000         160.000
  20831136.790   -16545000.90149 -12879439.52647  20831136.025    20831142.657
       240.000         203.000
  24504848.026    -2562877.79449  -1836675.98444  24504846.018    24504860.350
       197.000         128.000
 03  4 28 17 54 30.0000000  0  8G24G30G 6G 5G17G21G10G29
  23783047.625    16899022.84849  13081341.18145  23783047.289    23783055.411
       216.000         158.000
  20502345.954   -12990460.25449 -10107622.93047  20502346.381    20502351.962
       244.000         209.000
  21550331.161   -18840280.30749 -14673854.20947  21550330.726    21550337.249
       236.000         195.000
  21697923.408     2325957.15449   1820865.05847  21697923.410    21697930.808
       233.000         189.000
  22798287.293   -13958088.16649 -10858208.99046  22798286.715    22798294.713
       226.000         175.000
  23352141.192   -13028951.36049  -8151840.07545  23352140.809    23352146.966
       219.000         159.000
  20836340.100   -16517657.22349 -12858132.78047  20836339.372    20836345.836
       239.000         203.000
  24491404.305    -2633524.32349  -1891725.00544  24491403.054    24491416.564
       197.000         128.000
 03  4 28 17 55  0.0000000  0  8G24G30G 6G 5G17G21G10G29
  23798045.472    16977836.69449  13142754.45345  23798045.276    23798054.203
       217.000         158.000
  20507460.868   -12963581.42849 -10086678.44547  20507461.320    20507466.821
       244.000         209.000
  21539088.685   -18899360.11849 -14719890.43447  21539088.929    21539094.520
       236.000         195.000
  21713537.584     2408009.87849   1884802.14147  21713537.531    21713544.590
       234.000         188.000
  22786936.075   -14017739.27749 -10904690.35546  22786935.253    22786943.515
       226.000         175.000
  23338742.809   -13099360.21649  -8206704.09245  23338742.065    23338747.865
       220.000         159.000
  20841658.700   -16489707.85849 -12836354.06847  20841657.870    20841664.617
       240.000         203.000
  24477968.924    -2704127.01549  -1946739.87544  24477968.755    24477980.795
       201.000         129.000
 03  4 28 17 55 30.0000000  0  8G24G30G 6G 5G17G21G10G29
  23813038.452    17056624.84049  13204147.70645  23813038.347    23813047.055
       216.000         158.000
  20512685.363   -12936126.70549 -10065285.21247  20512685.563    20512691.176
       243.000         209.000
  21527872.834   -18958299.92149 -14765817.55847  21527872.464    21527878.532
       235.000         195.000
  21729217.443     2490407.62649   1949008.07047  21729217.246    21729225.506
       234.000         188.000
  22775625.040   -14077179.23949 -10951007.20146  22775624.293    22775632.676
       225.000         175.000
  23325380.140   -13169581.25149  -8261421.74745  23325379.026    23325385.425
       220.000         159.000
  20847092.343   -16461153.95149 -12814104.28747  20847091.549    20847098.296
       239.000         203.000
  24464542.512    -2774682.64549  -2001718.07044  24464541.201    24464555.169
       201.000         130.000
 03  4 28 17 56  0.0000000  0  8G24G30G 6G 5G17G21G10G29
  23828026.167    17135385.51749  13265519.55245  23828026.141    23828035.067
       215.000         156.000
  20518019.116   -12908097.94449 -10043444.67647  20518019.621    20518025.195
       244.000         209.000
  21516683.729   -19017099.10649 -14811635.11547  21516683.730    21516689.535
       236.000         196.000
  21744962.292     2573146.88949   2013480.10447  21744962.316    21744969.365
       235.000         189.000
  22764354.017   -14136408.66449 -10997159.98546  22764353.986    22764362.401
       225.000         176.000
  23312053.348   -13239613.92349  -8315992.63245  23312052.862    23312059.481
       221.000         160.000
  20852640.658   -16431997.45549 -12791384.95647  20852639.898    20852646.839
       239.000         203.000
  24451125.384    -2845189.37949  -2056658.18144  24451125.608    24451138.031
       201.000         131.000
 03  4 28 17 56 30.0000000  0  8G24G30G 6G 5G17G21G10G29
  23843008.637    17214118.63749  13326869.92445  23843008.629    23843016.811
       214.000         156.000
  20523462.004   -12879495.56449 -10021157.16247  20523462.383    20523468.082
       243.000         209.000
  21505521.717   -19075755.67849 -14857341.54147  21505521.497    21505527.603
       236.000         196.000
  21760771.765     2656225.65649   2078216.68647  21760771.361    21760779.164
       232.000         189.000
  22753123.091   -14195427.49449 -11043148.67446  22753122.981    22753130.162
       225.000         176.000
  23298762.464   -13309458.16149  -8370416.70345  23298761.653    23298768.319
       220.000         160.000
  20858303.497   -16402239.09049 -12768196.64047  20858303.007    20858309.248
       239.000         203.000
  24437718.184    -2915643.86849  -2111557.57045  24437718.200    24437730.986
       200.000         132.000
 03  4 28 17 57  0.0000000  0  8G24G30G 6G 5G17G21G10G29
  23857985.653    17292822.82549  13388197.75345  23857985.540    23857994.816
       212.000         155.000
  20529013.748   -12850321.03649  -9998423.81747  20529013.999    20529019.813
       244.000         209.000
  21494387.116   -19134268.27949 -14902935.78747  21494386.906    21494392.971
       236.000         196.000
  21776645.299     2739641.36249   2143215.83547  21776644.832    21776652.602
       232.000         188.000
  22741932.198   -14254236.26049 -11088973.66746  22741931.518    22741939.366
       225.000         176.000
  23285507.155   -13379114.92349  -8424694.65645  23285506.090    23285513.641
       220.000         160.000
  20864080.507   -16371880.67649 -12744540.75647  20864079.588    20864086.353
       238.000         203.000
  24424321.446    -2986043.09949  -2166413.85844  24424320.355    24424334.353
       201.000         131.000
 03  4 28 17 57 30.0000000  0  8G24G30G 6G 5G17G21G10G29
  23872957.054    17371497.73749  13449502.74945  23872956.876    23872965.232
       211.000         154.000
  20534674.317   -12820574.88549  -9975245.05047  20534674.621    20534680.133
       244.000         209.000
  21483280.262   -19192635.10349 -14948416.43347  21483280.075    21483286.139
       237.000         196.000
  21792582.529     2823391.71649   2208475.73946  21792582.309    21792590.293
       233.000         187.000
  22730781.333   -14312834.64149 -11134634.71146  22730780.468    22730788.471
       225.000         176.000
  23272287.801   -13448582.77749  -8478825.42845  23272287.161    23272294.019
       220.000         160.000
  20869971.480   -16340923.51049 -12720418.30847  20869970.510    20869977.441
       239.000         202.000
  24410935.883    -3056383.84349  -2221224.59045  24410935.521    24410948.630
       205.000         134.000
 03  4 28 17 58  0.0000000  0  8G24G30G 6G 5G17G21G10G29
  23887922.736    17450142.62349  13510784.37345  23887922.845    23887931.670
       212.000         153.000
  20540443.392   -12790258.37449  -9951621.85047  20540443.767    20540449.466
       244.000         209.000
  21472201.426   -19250854.83449 -14993782.46647  21472201.424    21472207.054
       237.000         196.000
  21808582.942     2907473.97049   2273994.26646  21808582.712    21808590.844
       233.000         187.000
  22719670.394   -14371222.59449 -11180131.78846  22719669.260    22719677.999
       226.000         176.000
  23259104.473   -13517861.37449  -8532808.72945  23259103.608    23259110.570
       222.000         160.000
  20875976.098   -16309369.03849 -12695830.43247  20875975.473    20875981.992
       239.000         202.000
  24397561.951    -3126663.42749  -2275987.67445  24397560.730    24397574.361
       207.000         135.000
 03  4 28 17 58 30.0000000  0  8G24G30G 6G 5G17G21G10G29
  23902882.385    17528755.82249  13572041.30345  23902882.849    23902891.581
       212.000         152.000
  20546320.605   -12759373.44349  -9927555.73247  20546320.958    20546326.839
       244.000         209.000
  21461150.758   -19308926.57849 -15039033.18447  21461150.715    21461156.947
       236.000         197.000
  21824645.904     2991884.99149   2339768.97246  21824645.592    21824653.648
       234.000         186.000
  22708599.374   -14429401.19449 -11225465.73346  22708598.315    22708606.769
       225.000         177.000
  23245957.011   -13586951.74749  -8586645.35745  23245956.749    23245963.222
       222.000         161.000
  20882093.959   -16277219.48549 -12670778.86747  20882093.158    20882099.876
       239.000         202.000
  24384200.063    -3196879.50249  -2330701.25145  24384199.010    24384211.617
       205.000         134.000
 03  4 28 17 59  0.0000000  0  8G24G30G 6G 5G17G21G10G29
  23917836.020    17607336.94949  13633273.23945  23917835.147    23917845.122
       211.000         151.000
  20552305.980   -12727920.43049  -9903046.94547  20552306.434    20552312.088
       244.000         209.000
  21450128.626   -19366848.35149 -15084167.03447  21450128.485    21450134.447
       237.000         197.000
  21840771.078     3076622.84649   2405798.36946  21840770.799    21840778.390
       233.000         186.000
  22697568.307   -14487369.54349 -11270635.85146  22697567.181    22697575.824
       226.000         177.000
  23232845.458   -13655853.50749  -8640335.01245  23232845.086    23232851.886
       223.000         161.000
  20888324.946   -16244475.41249 -12645264.03347  20888324.074    20888330.762
       240.000         202.000
  24370850.895    -3267028.53649  -2385362.60045  24370851.051    24370863.013
       207.000         135.000
 03  4 28 17 59 30.0000000  0  8G24G30G 6G 5G17G21G10G29
  23932783.350    17685885.37949  13694479.69745  23932783.399    23932791.686
       211.000         150.000
  20558399.196   -12695900.48549  -9878096.39847  20558399.536    20558405.110
       243.000         208.000
  21439135.366   -19424618.52949 -15129182.76947  21439135.246    21439141.464
       235.000         197.000
  21856957.912     3161684.87349   2472080.33946  21856957.613    21856965.596
       231.000         186.000
  22686577.115   -14545128.21649 -11315642.56546  22686576.610    22686583.663
       226.000         178.000
  23219769.731   -13724566.70349  -8693877.72145  23219768.319    23219775.436
       221.000         162.000
  20894668.798   -16211138.37549 -12619287.15647  20894668.162    20894674.831
       239.000         202.000
  24357515.168    -3337107.61949  -2439969.44045  24357514.783    24357525.988
       208.000         137.000
 03  4 28 18  0  0.0000000  0  8G24G30G 6G 5G17G21G10G29
  23947724.216    17764400.02049  13755659.81145  23947724.096    23947732.147
       208.000         149.000
  20564600.048   -12663315.13949  -9852705.27547  20564600.413    20564606.234
       243.000         208.000
  21428171.138   -19482235.95849 -15174079.48147  21428170.936    21428177.172
       236.000         197.000
  21873205.898     3247068.32849   2538612.78946  21873205.405    21873213.648
       230.000         185.000
  22675625.832   -14602677.51349 -11360486.13546  22675624.682    22675633.741
       225.000         178.000
  23206729.959   -13793091.09049  -8747273.31545  23206729.505    23206735.546
       222.000         161.000
  20901125.118   -16177210.25449 -12592849.70147  20901124.373    20901131.140
       238.000         202.000
  24344193.250    -3407113.95549  -2494519.60345  24344192.007    24344204.024
       209.000         139.000
 03  4 28 18  0 30.0000000  0  8G24G30G 6G 5G17G21G10G29
  23962658.517    17842880.41549  13816813.26245  23962658.497    23962667.341
       211.000         148.000
  20570908.236   -12630165.49449  -9826874.44147  20570908.556    20570914.364
       245.000         208.000
  21417236.267   -19539698.97849 -15218855.88047  21417235.916    21417242.139
       238.000         197.000
  21889514.617     3332770.82349   2605393.83646  21889514.175    21889522.442
       231.000         185.000
  22664714.340   -14660017.69649 -11405166.77946  22664714.215    22664721.914
       227.000         178.000
  23193726.139   -13861426.74049  -8800521.85945  23193725.468    23193731.753
       223.000         161.000
  20907693.627   -16142692.68849 -12565952.92847  20907692.825    20907699.613
       240.000         202.000
  24330885.675    -3477044.61749  -2549010.80945  24330884.549    24330896.704
       208.000         138.000
 03  4 28 18  1  0.0000000  0  8G24G30G 6G 5G17G21G10G29
  23977586.249    17921325.67049  13877939.30745  23977586.153    23977595.313
       209.000         147.000
  20577323.661   -12596452.42649  -9800604.57947  20577324.205    20577329.575
       243.000         208.000
  21406331.186   -19597005.61349 -15263510.41647  21406331.055    21406336.869
       236.000         198.000
  21905883.622     3418790.04549   2672421.68546  21905883.083    21905890.926
       230.000         185.000
  22653842.687   -14717148.53649 -11449684.28746  22653842.061    22653850.617
       226.000         178.000
  23180758.365   -13929573.01149  -8853622.80946  23180757.585    23180764.367
       221.000         163.000
  20914374.087   -16107586.64549 -12538597.61047  20914373.401    20914380.114
       238.000         202.000
  24317593.149    -3546896.26649  -2603440.41545  24317592.291    24317605.225
       209.000         137.000
 03  4 28 18  1 30.0000000  0  8G24G30G 6G 5G17G21G10G29
  23992507.056    17999734.75649  13939037.19045  23992507.962    23992515.395
       210.000         147.000
  20583845.890   -12562178.00949  -9773897.30047  20583846.280    20583851.981
       244.000         208.000
  21395455.975   -19654155.12449 -15308042.51647  21395455.844    21395461.730
       237.000         198.000
  21922312.191     3505122.43349   2739693.56046  21922312.099    21922319.836
       231.000         185.000
  22643010.755   -14774070.79749 -11494039.26746  22643009.511    22643017.201
       226.000         178.000
  23167826.400   -13997530.48749  -8906576.64245  23167825.528    23167832.434
       222.000         162.000
  20921166.064   -16071894.76249 -12510785.79147  20921165.379    20921172.080
       239.000         202.000
  24304316.087    -3616666.75849  -2657806.80545  24304314.933    24304327.216
       207.000         137.000
 03  4 28 18  2  0.0000000  0  8G24G30G 6G 5G17G21G10G29
  24007420.987    18078107.51449  14000106.76045  24007421.108    24007429.724
       209.000         147.000
  20590474.841   -12527342.92049  -9746753.13547  20590475.231    20590480.803
       244.000         208.000
  21384611.078   -19711145.42149 -15352450.54847  21384610.642    21384617.144
       237.000         198.000
  21938800.027     3591765.99649   2807207.90446  21938799.725    21938807.616
       232.000         185.000
  22632218.540   -14830784.11449 -11538231.43946  22632218.211    22632225.537
       227.000         178.000
  23154930.344   -14065299.18749  -8959383.38345  23154928.756    23154936.652
       222.000         162.000
  20928069.314   -16035618.06049 -12482518.26547  20928068.580    20928075.504
       239.000         202.000
  24291055.122    -3686352.61549  -2712107.26145  24291054.273    24291066.008
       207.000         138.000
 03  4 28 18  2 30.0000000  0  8G24G30G 6G 5G17G21G10G29
  24022327.807    18156442.97949  14061147.25945  24022328.258    24022337.411
       210.000         147.000
  20597210.310   -12491948.02549  -9719172.75947  20597210.608    20597216.475
       243.000         208.000
  21373796.836   -19767974.64649 -15396733.07347  21373796.798    21373802.684
       236.000         198.000
  21955346.642     3678718.42349   2874962.92846  21955346.260    21955354.308
       230.000         184.000
  22621466.095   -14887288.42449 -11582260.75046  22621465.375    22621473.382
       226.000         178.000
  23142070.370   -14132878.70849  -9012042.71846  23142069.968    23142076.204
       221.000         163.000
  20935083.575   -15998757.89749 -12453796.10347  20935082.644    20935089.418
       238.000         201.000
  24277810.866    -3755950.43549  -2766339.10945  24277809.862    24277822.493
       206.000         137.000
 03  4 28 18  3  0.0000000  0  8G24G30G 6G 5G17G21G10G29
  24037227.358    18234740.31949  14122158.05845  24037228.363    24037236.246
       210.000         146.000
  20604051.899   -12455995.35849  -9691157.75747  20604052.261    20604058.150
       244.000         208.000
  21363013.524   -19824641.55649 -15440889.11447  21363013.024    21363019.323
       236.000         198.000
  21971951.421     3765976.78249   2942956.33246  21971950.865    21971958.345
       229.000         183.000
  22610753.255   -14943584.63549 -11626127.90546  22610752.562    22610760.953
       227.000         179.000
  23129246.216   -14200270.07449  -9064555.43146  23129244.997    23129251.790
       221.000         163.000
  20942208.533   -15961316.27049 -12424620.84847  20942207.661    20942214.441
       239.000         201.000
  24264583.846    -3825457.92049  -2820500.59145  24264584.668    24264595.776
       206.000         136.000
 03  4 28 18  3 30.0000000  0  8G24G30G 6G 5G17G21G10G29
  24052119.691    18312999.51549  14183139.14745  24052121.243    24052129.435
       211.000         146.000
  20610999.588   -12419485.21449  -9662708.36247  20610999.982    20611005.753
       243.000         208.000
  21352261.495   -19881143.96549 -15484916.98047  21352260.997    21352267.505
       237.000         198.000
  21988614.067     3853539.22749   3011186.67146  21988613.660    21988622.324
       229.000         182.000
  22600080.177   -14999671.90949 -11669832.25546  22600079.471    22600087.232
       227.000         179.000
  23116458.098   -14267471.39049  -9116920.05345  23116456.450    23116464.003
       221.000         162.000
  20949443.937   -15923294.19649 -12394993.30547  20949443.302    20949449.898
       239.000         201.000
  24251374.810    -3894871.08449  -2874588.55945  24251374.553    24251386.969
       208.000         138.000
 03  4 28 18  4  0.0000000  0  8G24G30G 6G 5G17G21G10G29
  24067004.345    18391218.41249  14244088.83345  24067004.679    24067012.904
       211.000         145.000
  20618052.852   -12382420.31949  -9633826.68547  20618053.319    20618059.046
       243.000         208.000
  21341540.850   -19937481.39449 -15528816.28847  21341540.749    21341546.766
       236.000         198.000
  22005333.872     3941402.04349   3079651.07246  22005334.074    22005341.917
       229.000         182.000
  22589446.665   -15055551.41149 -11713374.70846  22589445.892    22589453.597
       227.000         179.000
  23103706.002   -14334483.76249  -9169137.45746  23103705.797    23103712.296
       222.000         163.000
  20956789.241   -15884694.49149 -12364915.64647  20956788.817    20956795.316
       238.000         201.000
  24238184.077    -3964188.19049  -2928601.68945  24238183.894    24238195.463
       207.000         140.000
 03  4 28 18  4 30.0000000  0  8G24G30G 6G 5G17G21G10G29
  24081881.371    18469397.18749  14305007.24245  24081882.000    24081890.805
       211.000         145.000
  20625211.530   -12344801.46149  -9604513.35547  20625211.973    20625217.950
       243.000         208.000
  21330851.969   -19993651.79649 -15572585.44747  21330851.859    21330857.819
       237.000         198.000
  22022110.447     4029563.13649   3148347.89146  22022110.700    22022118.453
       229.000         183.000
  22578852.652   -15111223.10049 -11756755.21946  22578851.976    22578859.902
       227.000         179.000
  23090990.071   -14401306.86049  -9221207.38846  23090989.860    23090995.541
       224.000         164.000
  20964244.226   -15845518.39449 -12334388.86047  20964243.906    20964250.224
       239.000         201.000
  24225012.246    -4033405.75949  -2982537.26545  24225012.123    24225023.831
       205.000         140.000
 03  4 28 18  5  0.0000000  0  8G24G30G 6G 5G17G21G10G29
  24096750.581    18547535.17049  14365893.86945  24096750.267    24096759.767
       212.000         145.000
  20632475.314   -12306630.34049  -9574769.68447  20632475.854    20632481.627
       243.000         208.000
  21320195.166   -20049653.56649 -15616223.20747  21320194.806    21320200.874
       236.000         198.000
  22038943.316     4118019.77249   3217275.01746  22038943.027    22038951.138
       230.000         183.000
  22568298.168   -15166687.16749 -11799973.94346  22568297.183    22568305.539
       228.000         179.000
  23078310.051   -14467940.85049  -9273129.94146  23078309.809    23078316.828
       223.000         164.000
  20971808.557   -15805767.72849 -12303414.35347  20971807.790    20971814.704
       238.000         201.000
  24211859.892    -4102520.99149  -3036393.09445  24211859.658    24211872.172
       205.000         139.000
 03  4 28 18  5 30.0000000  0  8G24G30G 6G 5G17G21G10G29
  24111611.856    18625631.05749  14426747.70645  24111612.478    24111620.848
       213.000         146.000
  20639843.860   -12267908.66249  -9544597.01947  20639844.093    20639850.144
       244.000         207.000
  21309570.703   -20105485.52349 -15659728.64347  21309570.581    21309576.610
       238.000         199.000
  22055831.771     4206768.71849   3286429.91946  22055831.296    22055840.334
       229.000         183.000
  22557783.140   -15221944.17649 -11843031.32246  22557781.963    22557790.400
       229.000         180.000
  23065665.843   -14534386.61149  -9324905.82746  23065665.102    23065672.203
       224.000         165.000
  20979481.788   -15765444.75749 -12271993.89347  20979481.187    20979488.041
       239.000         201.000
  24198727.513    -4171531.29849  -3090167.16545  24198726.260    24198738.346
       206.000         139.000
 03  4 28 18  6  0.0000000  0  8G24G30G 6G 5G17G21G10G29
  24126465.168    18703685.06049  14487568.91345  24126465.426    24126474.443
       213.000         147.000
  20647317.046   -12228636.95149  -9513995.74747  20647317.470    20647323.414
       243.000         207.000
  21298979.043   -20161145.17049 -15703099.81447  21298978.854    21298985.027
       237.000         199.000
  22072775.548     4295808.37849   3355811.34846  22072774.786    22072783.133
       229.000         182.000
  22547307.551   -15276993.57149 -11885926.91646  22547306.794    22547315.212
       227.000         180.000
  23053057.661   -14600642.92549  -9376534.08846  23053056.611    23053063.789
       224.000         165.000
  20987263.774   -15724550.29549 -12240128.11447  20987263.140    20987269.997
       238.000         201.000
  24185615.844    -4240432.71049  -3143856.39745  24185615.677    24185627.713
       204.000         138.000
 03  4 28 18  6 30.0000000  0  8G24G30G 6G 5G17G21G10G29
  24141310.232    18781695.93649  14548356.50345  24141309.799    24141319.190
       214.000         146.000
  20654894.525   -12188817.37449  -9482967.56447  20654894.904    20654900.723
       244.000         207.000
  21288420.367   -20216631.52849 -15746335.94347  21288419.894    21288426.194
       238.000         199.000
  22089773.973     4385135.21049   3425416.54546  22089773.378    22089781.929
       229.000         181.000
  22536871.320   -15331836.07549 -11928661.29646  22536870.389    22536878.362
       229.000         180.000
  23040485.278   -14666710.88349  -9428015.57646  23040483.795    23040492.073
       224.000         165.000
  20995153.994   -15683086.96249 -12207819.05347  20995153.258    20995159.730
       239.000         201.000
  24172525.328    -4309223.08249  -3197459.10045  24172524.040    24172536.391
       205.000         138.000
 03  4 28 18  7  0.0000000  0  8G24G30G 6G 5G17G21G10G29
  24156147.099    18859664.15549  14609110.83745  24156147.127    24156155.691
       212.000         145.000
  20662576.169   -12148450.37049  -9451512.82147  20662576.636    20662582.506
       243.000         207.000
  21277895.127   -20271942.04849 -15789435.06647  21277894.960    21277900.898
       238.000         199.000
  22106826.756     4474747.84949   3495244.45046  22106826.263    22106835.078
       228.000         180.000
  22526474.581   -15386471.35649 -11971234.22046  22526474.246    22526481.741
       229.000         181.000
  23027949.042   -14732589.07449  -9479349.21246  23027948.603    23027955.073
       224.000         166.000
  21003152.375   -15641055.33549 -12175067.17147  21003151.960    21003158.575
       238.000         201.000
  24159456.745    -4377898.35149  -3250972.11445  24159456.386    24159467.793
       203.000         137.000
 03  4 28 18  7 30.0000000  0  8G24G30G 6G 5G17G21G10G29
  24170975.528    18937587.75649  14669830.42045  24170975.222    24170984.986
       212.000         144.000
  20670361.443   -12107538.57449  -9419633.56347  20670361.796    20670367.707
       244.000         207.000
  21267403.449   -20327076.13949 -15832396.70447  21267403.333    21267409.235
       238.000         199.000
  22123933.221     4564642.67349   3565292.22546  22123933.260    22123941.774
       228.000         179.000
  22516117.064   -15440900.41049 -12013646.44146  22516116.477    22516124.498
       229.000         181.000
  23015448.874   -14798277.88849  -9530535.27646  23015447.947    23015455.074
       226.000         166.000
  21011258.321   -15598458.37349 -12141874.76647  21011257.719    21011264.235
       239.000         201.000
  24146410.341    -4446456.60749  -3304393.94145  24146409.329    24146421.888
       204.000         136.000
 03  4 28 18  8  0.0000000  0  8G24G30G 6G 5G17G21G10G29
  24185795.398    19015466.37049  14730514.95245  24185795.762    24185804.432
       212.000         145.000
  20678250.158   -12066083.26549  -9387330.79247  20678250.715    20678256.507
       243.000         207.000
  21256945.706   -20382031.92749 -15875219.41547  21256945.673    21256951.652
       237.000         200.000
  22141092.947     4654817.02249   3635557.82246  22141092.271    22141100.785
       228.000         180.000
  22505798.748   -15495123.38249 -12055898.08746  22505798.160    22505805.877
       228.000         181.000
  23002984.464   -14863778.48449  -9581574.66646  23002982.846    23002990.722
       223.000         166.000
  21019471.509   -15555297.94249 -12108243.29447  21019470.623    21019477.769
       239.000         201.000
  24133386.881    -4514894.53949  -3357722.01645  24133386.854    24133398.265
       202.000         135.000
 03  4 28 18  8 30.0000000  0  8G24G30G 6G 5G17G21G10G29
  24200606.638    19093299.43449  14791163.98645  24200607.428    24200616.361
       211.000         146.000
  20686242.000   -12024086.05649  -9354605.76247  20686242.552    20686248.188
       243.000         206.000
  21246522.260   -20436807.60649 -15917901.78047  21246522.219    21246528.241
       237.000         200.000
  22158305.373     4745268.38449   3706039.27946  22158305.304    22158313.639
       228.000         180.000
  22495519.615   -15549140.65849 -12097989.44446  22495518.906    22495527.257
       228.000         181.000
  22990556.077   -14929089.76649  -9632466.54146  22990555.610    22990561.443
       223.000         166.000
  21027791.553   -15511575.94449 -12074174.23547  21027790.943    21027797.489
       238.000         201.000
  24120386.898    -4583209.02549  -3410953.88045  24120387.163    24120398.773
       202.000         136.000
 03  4 28 18  9  0.0000000  0  8G24G30G 6G 5G17G21G10G29
  24215409.155    19171086.75849  14851777.38045  24215409.261    24215418.024
       212.000         145.000
  20694336.735   -11981548.33149  -9321459.54447  20694337.069    20694343.095
       243.000         206.000
  21236133.418   -20491401.43349 -15960442.43547  21236133.421    21236139.351
       238.000         200.000
  22175570.030     4835994.13149   3776734.53546  22175570.142    22175578.054
       229.000         180.000
  22485279.590   -15602951.86849 -12139920.23946  22485278.536    22485286.238
       229.000         181.000
  22978163.717   -14994212.24249  -9683211.30546  22978162.879    22978169.182
       223.000         166.000
  21036218.122   -15467294.11849 -12039668.94347  21036217.330    21036224.065
       239.000         201.000
  24107410.988    -4651396.99849  -3464087.19045  24107409.628    24107421.533
       201.000         134.000
 03  4 28 18  9 30.0000000  0  8G24G30G 6G 5G17G21G10G29
  24230202.815    19248827.65549  14912354.61145  24230202.490    24230212.412
       211.000         144.000
  20702533.931   -11938471.88349  -9287893.54447  20702534.444    20702540.294
       243.000         206.000
  21225779.461   -20545811.83549 -16002840.16447  21225779.279    21225785.253
       238.000         201.000
  22192886.331     4926991.42549   3847641.38846  22192886.185    22192894.665
       227.000         179.000
  22475078.811   -15656557.12049 -12181690.54046  22475078.277    22475085.854
       229.000         181.000
  22965807.292   -15059145.43849  -9733808.56946  22965806.153    22965813.065
       223.000         166.000
  21044750.924   -15422454.22749 -12004728.79547  21044750.023    21044756.883
       238.000         201.000
  24094459.637    -4719456.00049  -3517120.02445  24094458.593    24094470.722
       202.000         135.000
 03  4 28 18 10  0.0000000  0  8G24G30G 6G 5G17G21G10G29
  24244987.514    19326521.30749  14972895.02045  24244987.474    24244995.741
       213.000         144.000
  20710833.427   -11894858.00749  -9253908.77847  20710834.078    20710839.878
       244.000         206.000
  21215460.752   -20600037.04449 -16045093.59447  21215460.692    21215466.840
       239.000         201.000
  22210253.890     5018257.93149   3918758.01446  22210252.862    22210262.393
       228.000         179.000
  22464917.143   -15709957.10449 -12223300.91046  22464916.782    22464924.789
       230.000         182.000
  22953486.991   -15123888.87849  -9784257.98046  22953486.062    22953492.848
       224.000         167.000
  21053389.505   -15377058.18549 -11969355.28547  21053388.752    21053395.772
       239.000         200.000
  24081533.582    -4787382.27349  -3570049.41745  24081533.221    24081543.840
       201.000         137.000
 03  4 28 18 10 30.0000000  0  8G24G30G 6G 5G17G21G10G29
  24259762.741    19404165.40049  15033396.79845  24259763.046    24259773.243
       212.000         142.000
  20719234.484   -11850710.48549  -9219508.18947  20719234.862    20719241.073
       243.000         206.000
  21205177.248   -20654077.29149 -16087202.89847  21205177.001    21205182.919
       238.000         201.000
  22227671.800     5109789.20149   3990080.96046  22227670.894    22227680.004
       226.000         178.000
  22454794.133   -15763154.08349 -12264753.08546  22454793.480    22454800.783
       229.000         182.000
  22941202.321   -15188445.13449  -9834561.52746  22941201.916    22941209.394
       223.000         167.000
  21062133.242   -15331109.71849 -11933551.31547  21062132.439    21062139.237
       238.000         200.000
  24068632.916    -4855174.95249  -3622874.68545  24068632.912    24068644.187
       201.000         137.000
 03  4 28 18 11  0.0000000  0  8G24G30G 6G 5G17G21G10G29
  24274528.946    19481761.88549  15093861.51045  24274528.903    24274539.322
       212.000         143.000
  20727737.267   -11806028.34949  -9184691.01447  20727737.696    20727743.664
       242.000         206.000
  21194929.727   -20707928.57849 -16129164.95547  21194929.436    21194935.960
       238.000         201.000
  22245140.026     5201584.82349   4061609.87946  22245139.560    22245148.714
       224.000         177.000
  22444710.182   -15816145.43349 -12306045.03346  22444709.631    22444717.160
       228.000         182.000
  22928953.597   -15252812.58149  -9884717.94446  22928953.236    22928959.230
       222.000         168.000
  21070982.134   -15284608.51249 -11897316.64147  21070981.413    21070988.321
       238.000         200.000
  24055758.692    -4922828.62649  -3675591.64645  24055757.666    24055770.371
       204.000         137.000
 03  4 28 18 11 30.0000000  0  8G24G30G 6G 5G17G21G10G29
  24289285.824    19559309.46749  15154288.09345  24289285.887    24289294.892
       209.000         143.000
  20736341.279   -11760814.16349  -9149459.25947  20736341.499    20736347.634
       243.000         206.000
  21184718.319   -20761589.89549 -16170978.98247  21184718.115    21184724.210
       238.000         201.000
  22262657.855     5293641.20249   4133341.99546  22262658.322    22262666.732
       226.000         177.000
  22434665.129   -15868932.42749 -12347177.74246  22434664.665    22434672.515
       229.000         182.000
  22916740.702   -15316991.74249  -9934727.65146  22916740.501    22916746.320
       224.000         168.000
  21079935.688   -15237557.36849 -11860653.44047  21079934.865    21079941.907
       238.000         200.000
  24042911.375    -4990341.18249  -3728198.69345  24042911.199    24042921.970
       200.000         138.000
 03  4 28 18 12  0.0000000  0  8G24G30G 6G 5G17G21G10G29
  24304033.365    19636807.86449  15214676.33545  24304033.608    24304043.402
       210.000         143.000
  20745046.357   -11715069.01649  -9113813.74847  20745046.723    20745052.755
       243.000         205.000
  21174543.439   -20815059.15849 -16212643.35947  21174543.399    21174549.597
       238.000         201.000
  22280224.883     5385956.04549   4205275.51246  22280225.111    22280233.792
       226.000         177.000
  22424659.072   -15921514.88749 -12388151.07646  22424658.312    22424666.314
       230.000         182.000
  22904563.710   -15380982.23049  -9984590.35246  22904562.721    22904569.311
       224.000         168.000
  21088993.561   -15189957.95949 -11823563.02547  21088992.704    21088999.874
       238.000         200.000
  24030091.470    -5057709.14649  -3780693.02745  24030090.844    24030102.841
       203.000         139.000
 03  4 28 18 12 30.0000000  0  8G24G30G 6G 5G17G21G10G29
  24318771.402    19714256.22149  15275025.60545  24318771.075    24318780.086
       212.000         143.000
  20753852.028   -11668795.16049  -9077756.26347  20753852.527    20753858.753
       243.000         205.000
  21164405.418   -20868334.84249 -16254156.89547  21164405.317    21164411.517
       239.000         201.000
  22297840.583     5478526.70649   4277408.37346  22297840.466    22297849.126
       227.000         176.000
  22414691.824   -15973893.03549 -12428965.20446  22414691.442    22414698.585
       230.000         182.000
  22892422.626   -15444783.96749 -10034305.96746  22892422.356    22892428.311
       225.000         169.000
  21098155.361   -15141812.56049 -11786047.16847  21098154.601    21098161.651
       239.000         200.000
  24017299.778    -5124929.72249  -3833072.58045  24017299.240    24017311.350
       202.000         140.000
 03  4 28 18 13  0.0000000  0  8G24G30G 6G 5G17G21G10G29
  24333499.743    19791653.49449  15335335.06245  24333498.829    24333509.963
       210.000         143.000
  20762757.912   -11621994.73649  -9041288.46847  20762758.132    20762764.535
       242.000         205.000
  21154304.437   -20921415.85849 -16295518.73747  21154304.290    21154310.636
       239.000         202.000
  22315504.333     5571349.80149   4349737.92746  22315503.488    22315513.161
       225.000         176.000
  22404763.287   -16026067.58549 -12469620.69046  22404762.076    22404770.281
       229.000         182.000
  22880317.326   -15508397.38149 -10083874.84346  22880317.186    22880323.523
       224.000         168.000
  21107420.521   -15093123.79849 -11748107.90747  21107419.687    21107426.770
       237.000         200.000
  24004536.460    -5192000.58449  -3885335.44645  24004535.876    24004547.406
       201.000         140.000
 03  4 28 18 13 30.0000000  0  8G24G30G 6G 5G17G21G10G29
  24348218.272    19868999.63549  15395604.67245  24348217.949    24348226.730
       210.000         143.000
  20771763.679   -11574669.18549  -9004411.48147  20771764.317    20771770.360
       242.000         205.000
  21144240.938   -20974300.02849 -16336727.19847  21144240.797    21144246.884
       239.000         202.000
  22333215.607     5664422.78149   4422262.20146  22333214.987    22333223.482
       226.000         176.000
  22394873.473   -16078038.75549 -12510117.68946  22394872.702    22394880.579
       229.000         182.000
  22868247.887   -15571822.55149 -10133297.03746  22868247.991    22868254.217
       225.000         168.000
  21116788.752   -15043893.58149 -11709746.73547  21116788.112    21116795.093
       238.000         199.000
  23991802.400    -5258918.21549  -3937478.91345  23991801.382    23991814.108
       207.000         143.000
 03  4 28 18 14  0.0000000  0  9G24G30G 6G26G 5G17G21G10G29
  24362926.757    19946292.76449  15455832.96545  24362926.277    24362935.563
       208.000         143.000
  20780868.782   -11526821.75549  -8967127.83747  20780869.194    20780875.203
       242.000         205.000
  21134214.942   -21026987.18249 -16377782.14047  21134214.778    21134220.853
       238.000         202.000
  24314768.722    -3567301.76259  -2770602.27445  24314768.066    24314782.490
       200.000         134.000
  22350973.722     5757741.70349   4494978.10946  22350973.163    22350981.340
       225.000         175.000
  22385022.008   -16129808.62349 -12550457.82746  22385020.893    22385029.487
       228.000         183.000
  22856214.042   -15635061.00449 -10182573.73746  22856213.303    22856220.591
       224.000         169.000
  21126259.435   -14994124.91349 -11670966.00147  21126258.586    21126265.624
       238.000         199.000
  23979097.735    -5325681.09049  -3989501.83545  23979096.717    23979108.163
       205.000         143.000
 03  4 28 18 14 30.0000000  0  9G24G30G 6G26G 5G17G21G10G29
  24377625.057    20023532.51649  15516019.68545  24377625.041    24377635.408
       210.000         142.000
  20790072.890   -11478454.05249  -8929438.78947  20790073.302    20790079.423
       242.000         205.000
  21124226.775   -21079475.36349 -16418682.03547  21124226.562    21124232.799
       239.000         202.000
  24297647.992    -3657270.62649  -2840707.56745  24297646.140    24297661.542
       199.000         132.000
  22368778.137     5851304.00149   4567883.66446  22368777.927    22368786.649
       225.000         175.000
  22375208.837   -16181376.96849 -12590640.93646  22375208.266    22375216.314
       229.000         183.000
  22844215.591   -15698112.96949 -10231705.10946  22844215.129    22844221.204
       224.000         169.000
  21135832.121   -14943820.22349 -11631767.59047  21135831.678    21135838.224
       238.000         199.000
  23966423.112    -5392286.11749  -4041401.74945  23966422.961    23966434.781
       209.000         145.000
 03  4 28 18 15  0.0000000  0  9G24G30G 6G26G 5G17G21G10G29
  24392313.742    20100721.47049  15576166.79345  24392314.362    24392323.041
       207.000         142.000
  20799376.265   -11429564.81049  -8891343.35047  20799376.851    20799382.995
       241.000         205.000
  21114277.374   -21131759.75249 -16459423.14347  21114277.230    21114283.344
       239.000         202.000
  24280521.561    -3747269.03749  -2910835.87944  24280521.815    24280533.872
       198.000         130.000
  22386628.894     5945110.08549   4640979.16446  22386628.350    22386638.076
       225.000         174.000
  22365434.599   -16232740.77749 -12630664.66946  22365433.802    22365441.926
       230.000         183.000
  22832253.391   -15760974.56649 -10280688.15146  22832252.990    22832259.220
       225.000         170.000
  21145507.041   -14892978.31049 -11592150.56347  21145506.550    21145513.315
       237.000         199.000
  23953779.743    -5458727.10249  -4093173.84145  23953778.824    23953791.055
       206.000         146.000
 03  4 28 18 15 30.0000000  0  9G24G30G 6G26G 5G17G21G10G29
  24406992.158    20177856.74349  15636272.10245  24406992.081    24407002.558
       207.000         141.000
  20808778.047   -11380158.31149  -8852844.84547  20808778.432    20808784.467
       242.000         204.000
  21104366.634   -21183841.06849 -16500006.00047  21104366.391    21104372.752
       238.000         202.000
  24263389.726    -3837296.05749  -2980986.47644  24263389.245    24263404.863
       198.000         129.000
  22404525.119     6039154.73449   4714260.58146  22404524.760    22404533.728
       224.000         174.000
  22355698.792   -16283902.85049 -12670531.20546  22355697.742    22355705.692
       229.000         183.000
  22820327.026   -15823648.25249 -10329524.75146  22820326.257    22820333.460
       225.000         170.000
  21155283.316   -14841603.74349 -11552118.48047  21155282.183    21155289.326
       237.000         199.000
  23941167.629    -5525003.49649  -4144817.67845  23941167.215    23941178.671
       207.000         146.000
 03  4 28 18 16  0.0000000  0  9G24G30G 6G26G 5G17G21G10G29
  24421660.510    20254939.10149  15696336.16445  24421659.847    24421669.898
       207.000         142.000
  20818278.211   -11330234.97249  -8813943.61547  20818278.825    20818284.741
       242.000         204.000
  21094495.112   -21235716.20449 -16540428.20347  21094495.005    21094501.015
       239.000         203.000
  24246253.272    -3927347.38649  -3051155.99944  24246253.168    24246266.558
       197.000         130.000
  22422466.461     6133436.67049   4787726.86446  22422465.960    22422474.963
       226.000         174.000
  22346001.478   -16334862.65149 -12710240.13246  22346000.985    22346008.611
       230.000         183.000
  22808436.579   -15886133.18049 -10378214.27546  22808435.169    22808442.339
       225.000         170.000
  21165160.769   -14789697.50849 -11511672.11447  21165160.135    21165167.374
       238.000         199.000
  23928587.773    -5591110.87849  -4196329.81345  23928587.264    23928599.060
       208.000         148.000
 03  4 28 18 16 30.0000000  0  9G24G30G 6G26G 5G17G21G10G29
  24436318.429    20331966.75649  15756357.60645  24436319.518    24436327.422
       207.000         143.000
  20827876.070   -11279798.06849  -8774642.19247  20827876.381    20827882.271
       241.000         204.000
  21084662.939   -21287384.79249 -16580689.45447  21084662.502    21084668.876
       239.000         203.000
  24229112.571    -4017421.16349  -3121342.95944  24229112.594    24229125.765
       195.000         130.000
  22440452.191     6227951.88449   4861374.94246  22440451.798    22440461.594
       225.000         174.000
  22336342.392   -16385621.42349 -12749792.40546  22336341.672    22336349.671
       230.000         183.000
  22796581.697   -15948430.58149 -10426757.65646  22796579.906    22796587.032
       224.000         170.000
  21175138.753   -14737263.06449 -11470814.14947  21175138.067    21175144.918
       237.000         199.000
  23916040.320    -5657047.55249  -4247708.93745  23916040.020    23916051.387
       206.000         149.000
 03  4 28 18 17  0.0000000  0  9G24G30G 6G26G 5G17G21G10G29
  24450966.230    20408941.13649  15816337.51045  24450966.718    24450976.242
       205.000         142.000
  20837571.619   -11228847.89649  -8734940.83347  20837571.939    20837578.342
       241.000         204.000
  21074870.715   -21338843.30849 -16620787.01647  21074870.531    21074876.781
       239.000         203.000
  24211968.529    -4107512.35949  -3191543.54644  24211966.684    24211982.116
       198.000         130.000
  22458482.157     6322699.43349   4935204.04346  22458482.006    22458491.036
       224.000         173.000
  22326721.878   -16436177.62349 -12789186.84246  22326721.272    22326729.129
       230.000         183.000
  22784762.706   -16010539.49349 -10475154.16846  22784762.477    22784768.958
       225.000         170.000
  21185217.160   -14684300.87549 -11429544.96347  21185216.460    21185223.907
       237.000         198.000
  23903526.234    -5722809.05149  -4298951.55245  23903526.023    23903536.955
       209.000         150.000
 03  4 28 18 17 30.0000000  0  9G24G30G 6G26G 5G17G21G10G29
  24465603.369    20485859.30949  15876273.64145  24465603.365    24465612.765
       207.000         143.000
  20847364.060   -11177388.54949  -8694842.71347  20847364.750    20847370.987
       241.000         204.000
  21065118.335   -21390092.44049 -16660721.41447  21065118.132    21065124.379
       239.000         203.000
  24194821.332    -4197620.16849  -3261757.09844  24194820.624    24194834.334
       198.000         130.000
  22476555.434     6417674.38849   5009210.35846  22476554.965    22476563.811
       224.000         173.000
  22317139.323   -16486533.96949 -12828425.54146  22317138.257    22317146.230
       230.000         183.000
  22772979.333   -16072461.41749 -10523404.98346  22772979.075    22772985.952
       225.000         170.000
  21195395.130   -14630815.41149 -11387868.02447  21195394.444    21195401.756
       237.000         198.000
  23891045.671    -5788394.48949  -4350056.98545  23891045.124    23891056.723
       210.000         152.000
 03  4 28 18 18  0.0000000  0  9G24G30G 6G26G 5G17G21G10G29
  24480229.922    20562722.05149  15936166.57045  24480230.359    24480239.166
       204.000         141.000
  20857253.238   -11125420.77149  -8654348.40947  20857253.764    20857259.650
       242.000         203.000
  21055406.396   -21441129.11549 -16700490.26447  21055406.116    21055412.237
       239.000         203.000
  24177671.846    -4287740.21349  -3331980.17144  24177671.236    24177684.370
       199.000         131.000
  22494671.624     6512875.15849   5083392.63246  22494671.213    22494680.837
       224.000         173.000
  22307594.979   -16536689.70449 -12867507.91946  22307594.274    22307602.207
       230.000         183.000
  22761231.720   -16134195.09049 -10571509.10046  22761230.748    22761236.708
       225.000         170.000
  21205672.526   -14576807.51549 -11345783.99547  21205671.629    21205678.679
       237.000         198.000
  23878599.423    -5853799.68349  -4401021.96045  23878599.150    23878610.886
       211.000         152.000
 03  4 28 18 18 30.0000000  0  9G24G30G 6G26G 5G17G21G10G29
  24494845.809    20639528.74249  15996015.80945  24494846.351    24494855.414
       206.000         140.000
  20867238.742   -11072946.91349  -8613459.76247  20867238.951    20867245.094
       242.000         203.000
  21045735.140   -21491951.81549 -16740092.38547  21045734.871    21045740.967
       240.000         203.000
  24160520.472    -4377869.60349  -3402210.56344  24160519.930    24160534.327
       199.000         130.000
  22512830.210     6608298.57449   5157748.39146  22512829.792    22512838.880
       224.000         172.000
  22298088.663   -16586645.65649 -12906434.62746  22298088.065    22298095.662
       231.000         184.000
  22749519.692   -16195742.26449 -10619467.90546  22749518.936    22749525.032
       227.000         171.000
  21216048.809   -14522280.01649 -11303295.08347  21216048.195    21216055.150
       238.000         198.000
  23866187.989    -5919021.99549  -4451844.43545  23866187.082    23866198.676
       212.000         152.000
 03  4 28 18 19  0.0000000  0  9G24G30G 6G26G 5G17G21G10G29
  24509451.088    20716279.66349  16055821.60845  24509451.700    24509461.079
       206.000         140.000
  20877320.257   -11019968.33849  -8572177.82647  20877320.552    20877326.958
       241.000         203.000
  21036105.044   -21542558.37449 -16779526.08547  21036104.848    21036110.871
       239.000         203.000
  24143368.048    -4468004.67749  -3472445.39044  24143366.165    24143382.617
       199.000         130.000
  22531030.721     6703942.44649   5232275.92046  22531030.162    22531039.847
       223.000         171.000
  22288620.401   -16636401.70249 -12945205.56846  22288620.319    22288627.521
       230.000         184.000
  22737843.382   -16257101.70049 -10667280.42446  22737842.529    22737849.617
       225.000         171.000
  21226523.589   -14467234.78549 -11260402.74047  21226523.154    21226530.004
       237.000         198.000
  23853811.968    -5984058.00249  -4502521.72945  23853812.100    23853822.916
       212.000         153.000
 03  4 28 18 19 30.0000000  0  9G24G30G 6G26G 5G17G21G10G29
  24524045.528    20792973.25649  16115582.73445  24524045.686    24524056.087
       206.000         142.000
  20887497.287   -10966487.91749  -8530504.84347  20887497.846    20887504.151
       241.000         203.000
  21026516.316   -21592947.66049 -16818790.48047  21026516.436    21026522.402
       240.000         204.000
  24126215.095    -4558142.73849  -3542682.55244  24126214.169    24126227.431
       200.000         131.000
  22549272.569     6799803.37049   5306972.58846  22549272.294    22549281.272
       222.000         171.000
  22279190.139   -16685958.16249 -12983820.98746  22279189.868    22279197.217
       231.000         184.000
  22726202.568   -16318274.33949 -10714947.37546  22726201.888    22726209.188
       225.000         171.000
  21237096.359   -14411674.61549 -11217109.14447  21237095.575    21237102.798
       237.000         198.000
  23841471.873    -6048905.36849  -4553052.01945  23841471.952    23841482.115
       212.000         152.000
 03  4 28 18 20  0.0000000  0  9G24G30G 6G26G 5G17G21G10G29
  24538628.993    20869609.31149  16175299.03045  24538630.260    24538639.652
       205.000         141.000
  20897769.481   -10912507.56449  -8488442.30047  20897769.815    20897776.155
       241.000         203.000
  21016969.263   -21643117.89449 -16857884.18747  21016969.245    21016975.279
       240.000         204.000
  24109062.203    -4648280.49449  -3612919.52445  24109061.574    24109076.157
       204.000         132.000
  22567555.238     6895878.71649   5381836.34346  22567554.537    22567565.016
       221.000         170.000
  22269797.703   -16735315.51349 -13022281.25246  22269797.400    22269804.930
       231.000         185.000
  22714597.292   -16379260.25849 -10762468.84046  22714596.862    22714602.942
       225.000         171.000
  21247766.771   -14355601.43149 -11173415.79347  21247766.208    21247773.200
       236.000         198.000
  23829168.235    -6113561.00549  -4603432.91745  23829168.140    23829179.022
       211.000         152.000
